<?xml version="1.0" encoding="UTF-8"?>
<gpx
version="1.0"
creator="Polar ProTrainer 5 - www.polar.fi"
xmlns:xsi="http://www.w3.org/2001/XMLSchema-instance"
xmlns="http://www.topografix.com/GPX/1/0"
xsi:schemaLocation="http://www.topografix.com/GPX/1/0 http://www.topografix.com/GPX/1/0/gpx.xsd">
<time>2014-01-11T12:30:22Z</time>
<trk>
<trkseg>
<trkpt lat="58.782805000" lon="7.330686667">
<time>2014-01-11T12:30:22Z</time>
 <fix>2d</fix>
 <sat>8</sat>
</trkpt>
<trkpt lat="58.782805000" lon="7.330686667">
<time>2014-01-11T12:30:24Z</time>
 <fix>2d</fix>
 <sat>8</sat>
</trkpt>
<trkpt lat="58.782805000" lon="7.330686667">
<time>2014-01-11T12:30:26Z</time>
 <fix>2d</fix>
 <sat>8</sat>
</trkpt>
<trkpt lat="58.782805000" lon="7.330686667">
<time>2014-01-11T12:30:28Z</time>
 <fix>2d</fix>
 <sat>8</sat>
</trkpt>
<trkpt lat="58.782805000" lon="7.330685000">
<time>2014-01-11T12:30:30Z</time>
 <fix>2d</fix>
 <sat>8</sat>
</trkpt>
<trkpt lat="58.782805000" lon="7.330685000">
<time>2014-01-11T12:30:32Z</time>
 <fix>2d</fix>
 <sat>8</sat>
</trkpt>
<trkpt lat="58.782805000" lon="7.330685000">
<time>2014-01-11T12:30:34Z</time>
 <fix>2d</fix>
 <sat>8</sat>
</trkpt>
<trkpt lat="58.782805000" lon="7.330685000">
<time>2014-01-11T12:30:36Z</time>
 <fix>2d</fix>
 <sat>8</sat>
</trkpt>
<trkpt lat="58.782805000" lon="7.330683333">
<time>2014-01-11T12:30:38Z</time>
 <fix>2d</fix>
 <sat>9</sat>
</trkpt>
<trkpt lat="58.782801667" lon="7.330673333">
<time>2014-01-11T12:30:40Z</time>
 <fix>2d</fix>
 <sat>9</sat>
</trkpt>
<trkpt lat="58.782791667" lon="7.330643333">
<time>2014-01-11T12:30:42Z</time>
 <fix>2d</fix>
 <sat>9</sat>
</trkpt>
<trkpt lat="58.782775000" lon="7.330586667">
<time>2014-01-11T12:30:44Z</time>
 <fix>2d</fix>
 <sat>9</sat>
</trkpt>
<trkpt lat="58.782755000" lon="7.330516667">
<time>2014-01-11T12:30:46Z</time>
 <fix>2d</fix>
 <sat>9</sat>
</trkpt>
<trkpt lat="58.782735000" lon="7.330428333">
<time>2014-01-11T12:30:48Z</time>
 <fix>2d</fix>
 <sat>9</sat>
</trkpt>
<trkpt lat="58.782720000" lon="7.330336667">
<time>2014-01-11T12:30:50Z</time>
 <fix>2d</fix>
 <sat>9</sat>
</trkpt>
<trkpt lat="58.782713333" lon="7.330270000">
<time>2014-01-11T12:30:52Z</time>
 <fix>2d</fix>
 <sat>9</sat>
</trkpt>
<trkpt lat="58.782711667" lon="7.330206667">
<time>2014-01-11T12:30:54Z</time>
 <fix>2d</fix>
 <sat>9</sat>
</trkpt>
<trkpt lat="58.782710000" lon="7.330126667">
<time>2014-01-11T12:30:56Z</time>
 <fix>2d</fix>
 <sat>9</sat>
</trkpt>
<trkpt lat="58.782710000" lon="7.330040000">
<time>2014-01-11T12:30:58Z</time>
 <fix>2d</fix>
 <sat>9</sat>
</trkpt>
<trkpt lat="58.782711667" lon="7.329973333">
<time>2014-01-11T12:31:00Z</time>
 <fix>2d</fix>
 <sat>9</sat>
</trkpt>
<trkpt lat="58.782718333" lon="7.329921667">
<time>2014-01-11T12:31:02Z</time>
 <fix>2d</fix>
 <sat>9</sat>
</trkpt>
<trkpt lat="58.782721667" lon="7.329881667">
<time>2014-01-11T12:31:04Z</time>
 <fix>2d</fix>
 <sat>9</sat>
</trkpt>
<trkpt lat="58.782720000" lon="7.329846667">
<time>2014-01-11T12:31:06Z</time>
 <fix>2d</fix>
 <sat>9</sat>
</trkpt>
<trkpt lat="58.782721667" lon="7.329815000">
<time>2014-01-11T12:31:08Z</time>
 <fix>2d</fix>
 <sat>9</sat>
</trkpt>
<trkpt lat="58.782718333" lon="7.329788333">
<time>2014-01-11T12:31:10Z</time>
 <fix>2d</fix>
 <sat>9</sat>
</trkpt>
<trkpt lat="58.782718333" lon="7.329755000">
<time>2014-01-11T12:31:12Z</time>
 <fix>2d</fix>
 <sat>9</sat>
</trkpt>
<trkpt lat="58.782716667" lon="7.329720000">
<time>2014-01-11T12:31:14Z</time>
 <fix>2d</fix>
 <sat>9</sat>
</trkpt>
<trkpt lat="58.782721667" lon="7.329691667">
<time>2014-01-11T12:31:16Z</time>
 <fix>2d</fix>
 <sat>9</sat>
</trkpt>
<trkpt lat="58.782723333" lon="7.329658333">
<time>2014-01-11T12:31:18Z</time>
 <fix>2d</fix>
 <sat>9</sat>
</trkpt>
<trkpt lat="58.782730000" lon="7.329631667">
<time>2014-01-11T12:31:20Z</time>
 <fix>2d</fix>
 <sat>9</sat>
</trkpt>
<trkpt lat="58.782733333" lon="7.329598333">
<time>2014-01-11T12:31:22Z</time>
 <fix>2d</fix>
 <sat>9</sat>
</trkpt>
<trkpt lat="58.782738333" lon="7.329573333">
<time>2014-01-11T12:31:24Z</time>
 <fix>2d</fix>
 <sat>9</sat>
</trkpt>
<trkpt lat="58.782746667" lon="7.329548333">
<time>2014-01-11T12:31:26Z</time>
 <fix>2d</fix>
 <sat>9</sat>
</trkpt>
<trkpt lat="58.782753333" lon="7.329521667">
<time>2014-01-11T12:31:28Z</time>
 <fix>2d</fix>
 <sat>9</sat>
</trkpt>
<trkpt lat="58.782760000" lon="7.329495000">
<time>2014-01-11T12:31:30Z</time>
 <fix>2d</fix>
 <sat>9</sat>
</trkpt>
<trkpt lat="58.782766667" lon="7.329471667">
<time>2014-01-11T12:31:32Z</time>
 <fix>2d</fix>
 <sat>9</sat>
</trkpt>
<trkpt lat="58.782771667" lon="7.329446667">
<time>2014-01-11T12:31:34Z</time>
 <fix>2d</fix>
 <sat>9</sat>
</trkpt>
<trkpt lat="58.782776667" lon="7.329420000">
<time>2014-01-11T12:31:36Z</time>
 <fix>2d</fix>
 <sat>9</sat>
</trkpt>
<trkpt lat="58.782781667" lon="7.329393333">
<time>2014-01-11T12:31:38Z</time>
 <fix>2d</fix>
 <sat>9</sat>
</trkpt>
<trkpt lat="58.782790000" lon="7.329368333">
<time>2014-01-11T12:31:40Z</time>
 <fix>2d</fix>
 <sat>9</sat>
</trkpt>
<trkpt lat="58.782798333" lon="7.329335000">
<time>2014-01-11T12:31:42Z</time>
 <fix>2d</fix>
 <sat>9</sat>
</trkpt>
<trkpt lat="58.782805000" lon="7.329296667">
<time>2014-01-11T12:31:44Z</time>
 <fix>2d</fix>
 <sat>9</sat>
</trkpt>
<trkpt lat="58.782813333" lon="7.329248333">
<time>2014-01-11T12:31:46Z</time>
 <fix>2d</fix>
 <sat>9</sat>
</trkpt>
<trkpt lat="58.782823333" lon="7.329206667">
<time>2014-01-11T12:31:48Z</time>
 <fix>2d</fix>
 <sat>9</sat>
</trkpt>
<trkpt lat="58.782831667" lon="7.329168333">
<time>2014-01-11T12:31:50Z</time>
 <fix>2d</fix>
 <sat>9</sat>
</trkpt>
<trkpt lat="58.782845000" lon="7.329126667">
<time>2014-01-11T12:31:52Z</time>
 <fix>2d</fix>
 <sat>9</sat>
</trkpt>
<trkpt lat="58.782858333" lon="7.329080000">
<time>2014-01-11T12:31:54Z</time>
 <fix>2d</fix>
 <sat>8</sat>
</trkpt>
<trkpt lat="58.782873333" lon="7.329023333">
<time>2014-01-11T12:31:56Z</time>
 <fix>2d</fix>
 <sat>9</sat>
</trkpt>
<trkpt lat="58.782886667" lon="7.328970000">
<time>2014-01-11T12:31:58Z</time>
 <fix>2d</fix>
 <sat>9</sat>
</trkpt>
<trkpt lat="58.782898333" lon="7.328928333">
<time>2014-01-11T12:32:00Z</time>
 <fix>2d</fix>
 <sat>9</sat>
</trkpt>
<trkpt lat="58.782913333" lon="7.328901667">
<time>2014-01-11T12:32:02Z</time>
 <fix>2d</fix>
 <sat>9</sat>
</trkpt>
<trkpt lat="58.782931667" lon="7.328873333">
<time>2014-01-11T12:32:04Z</time>
 <fix>2d</fix>
 <sat>9</sat>
</trkpt>
<trkpt lat="58.782936667" lon="7.328843333">
<time>2014-01-11T12:32:06Z</time>
 <fix>2d</fix>
 <sat>9</sat>
</trkpt>
<trkpt lat="58.782945000" lon="7.328815000">
<time>2014-01-11T12:32:08Z</time>
 <fix>2d</fix>
 <sat>9</sat>
</trkpt>
<trkpt lat="58.782955000" lon="7.328785000">
<time>2014-01-11T12:32:10Z</time>
 <fix>2d</fix>
 <sat>9</sat>
</trkpt>
<trkpt lat="58.782965000" lon="7.328756667">
<time>2014-01-11T12:32:12Z</time>
 <fix>2d</fix>
 <sat>9</sat>
</trkpt>
<trkpt lat="58.782976667" lon="7.328725000">
<time>2014-01-11T12:32:14Z</time>
 <fix>2d</fix>
 <sat>9</sat>
</trkpt>
<trkpt lat="58.782986667" lon="7.328693333">
<time>2014-01-11T12:32:16Z</time>
 <fix>2d</fix>
 <sat>9</sat>
</trkpt>
<trkpt lat="58.783000000" lon="7.328653333">
<time>2014-01-11T12:32:18Z</time>
 <fix>2d</fix>
 <sat>9</sat>
</trkpt>
<trkpt lat="58.783011667" lon="7.328618333">
<time>2014-01-11T12:32:20Z</time>
 <fix>2d</fix>
 <sat>9</sat>
</trkpt>
<trkpt lat="58.783025000" lon="7.328580000">
<time>2014-01-11T12:32:22Z</time>
 <fix>2d</fix>
 <sat>9</sat>
</trkpt>
<trkpt lat="58.783040000" lon="7.328545000">
<time>2014-01-11T12:32:24Z</time>
 <fix>2d</fix>
 <sat>9</sat>
</trkpt>
<trkpt lat="58.783053333" lon="7.328520000">
<time>2014-01-11T12:32:26Z</time>
 <fix>2d</fix>
 <sat>9</sat>
</trkpt>
<trkpt lat="58.783065000" lon="7.328495000">
<time>2014-01-11T12:32:28Z</time>
 <fix>2d</fix>
 <sat>9</sat>
</trkpt>
<trkpt lat="58.783071667" lon="7.328471667">
<time>2014-01-11T12:32:30Z</time>
 <fix>2d</fix>
 <sat>9</sat>
</trkpt>
<trkpt lat="58.783078333" lon="7.328445000">
<time>2014-01-11T12:32:32Z</time>
 <fix>2d</fix>
 <sat>9</sat>
</trkpt>
<trkpt lat="58.783085000" lon="7.328420000">
<time>2014-01-11T12:32:34Z</time>
 <fix>2d</fix>
 <sat>9</sat>
</trkpt>
<trkpt lat="58.783093333" lon="7.328395000">
<time>2014-01-11T12:32:36Z</time>
 <fix>2d</fix>
 <sat>9</sat>
</trkpt>
<trkpt lat="58.783100000" lon="7.328366667">
<time>2014-01-11T12:32:38Z</time>
 <fix>2d</fix>
 <sat>9</sat>
</trkpt>
<trkpt lat="58.783105000" lon="7.328346667">
<time>2014-01-11T12:32:40Z</time>
 <fix>2d</fix>
 <sat>9</sat>
</trkpt>
<trkpt lat="58.783110000" lon="7.328320000">
<time>2014-01-11T12:32:42Z</time>
 <fix>2d</fix>
 <sat>9</sat>
</trkpt>
<trkpt lat="58.783116667" lon="7.328300000">
<time>2014-01-11T12:32:44Z</time>
 <fix>2d</fix>
 <sat>9</sat>
</trkpt>
<trkpt lat="58.783120000" lon="7.328275000">
<time>2014-01-11T12:32:46Z</time>
 <fix>2d</fix>
 <sat>9</sat>
</trkpt>
<trkpt lat="58.783126667" lon="7.328255000">
<time>2014-01-11T12:32:48Z</time>
 <fix>2d</fix>
 <sat>9</sat>
</trkpt>
<trkpt lat="58.783130000" lon="7.328230000">
<time>2014-01-11T12:32:50Z</time>
 <fix>2d</fix>
 <sat>9</sat>
</trkpt>
<trkpt lat="58.783135000" lon="7.328206667">
<time>2014-01-11T12:32:52Z</time>
 <fix>2d</fix>
 <sat>9</sat>
</trkpt>
<trkpt lat="58.783140000" lon="7.328180000">
<time>2014-01-11T12:32:54Z</time>
 <fix>2d</fix>
 <sat>9</sat>
</trkpt>
<trkpt lat="58.783146667" lon="7.328151667">
<time>2014-01-11T12:32:56Z</time>
 <fix>2d</fix>
 <sat>9</sat>
</trkpt>
<trkpt lat="58.783151667" lon="7.328120000">
<time>2014-01-11T12:32:58Z</time>
 <fix>2d</fix>
 <sat>9</sat>
</trkpt>
<trkpt lat="58.783156667" lon="7.328090000">
<time>2014-01-11T12:33:00Z</time>
 <fix>2d</fix>
 <sat>9</sat>
</trkpt>
<trkpt lat="58.783160000" lon="7.328060000">
<time>2014-01-11T12:33:02Z</time>
 <fix>2d</fix>
 <sat>9</sat>
</trkpt>
<trkpt lat="58.783163333" lon="7.328031667">
<time>2014-01-11T12:33:04Z</time>
 <fix>2d</fix>
 <sat>9</sat>
</trkpt>
<trkpt lat="58.783166667" lon="7.328000000">
<time>2014-01-11T12:33:06Z</time>
 <fix>2d</fix>
 <sat>9</sat>
</trkpt>
<trkpt lat="58.783166667" lon="7.327973333">
<time>2014-01-11T12:33:08Z</time>
 <fix>2d</fix>
 <sat>9</sat>
</trkpt>
<trkpt lat="58.783166667" lon="7.327956667">
<time>2014-01-11T12:33:10Z</time>
 <fix>2d</fix>
 <sat>9</sat>
</trkpt>
<trkpt lat="58.783168333" lon="7.327926667">
<time>2014-01-11T12:33:12Z</time>
 <fix>2d</fix>
 <sat>9</sat>
</trkpt>
<trkpt lat="58.783168333" lon="7.327898333">
<time>2014-01-11T12:33:14Z</time>
 <fix>2d</fix>
 <sat>9</sat>
</trkpt>
<trkpt lat="58.783170000" lon="7.327865000">
<time>2014-01-11T12:33:16Z</time>
 <fix>2d</fix>
 <sat>9</sat>
</trkpt>
<trkpt lat="58.783168333" lon="7.327840000">
<time>2014-01-11T12:33:18Z</time>
 <fix>2d</fix>
 <sat>9</sat>
</trkpt>
<trkpt lat="58.783166667" lon="7.327813333">
<time>2014-01-11T12:33:20Z</time>
 <fix>2d</fix>
 <sat>9</sat>
</trkpt>
<trkpt lat="58.783165000" lon="7.327790000">
<time>2014-01-11T12:33:22Z</time>
 <fix>2d</fix>
 <sat>9</sat>
</trkpt>
<trkpt lat="58.783163333" lon="7.327766667">
<time>2014-01-11T12:33:24Z</time>
 <fix>2d</fix>
 <sat>9</sat>
</trkpt>
<trkpt lat="58.783160000" lon="7.327741667">
<time>2014-01-11T12:33:26Z</time>
 <fix>2d</fix>
 <sat>9</sat>
</trkpt>
<trkpt lat="58.783160000" lon="7.327718333">
<time>2014-01-11T12:33:28Z</time>
 <fix>2d</fix>
 <sat>9</sat>
</trkpt>
<trkpt lat="58.783161667" lon="7.327696667">
<time>2014-01-11T12:33:30Z</time>
 <fix>2d</fix>
 <sat>9</sat>
</trkpt>
<trkpt lat="58.783160000" lon="7.327676667">
<time>2014-01-11T12:33:32Z</time>
 <fix>2d</fix>
 <sat>9</sat>
</trkpt>
<trkpt lat="58.783160000" lon="7.327655000">
<time>2014-01-11T12:33:34Z</time>
 <fix>2d</fix>
 <sat>9</sat>
</trkpt>
<trkpt lat="58.783153333" lon="7.327630000">
<time>2014-01-11T12:33:36Z</time>
 <fix>2d</fix>
 <sat>9</sat>
</trkpt>
<trkpt lat="58.783148333" lon="7.327608333">
<time>2014-01-11T12:33:38Z</time>
 <fix>2d</fix>
 <sat>9</sat>
</trkpt>
<trkpt lat="58.783143333" lon="7.327583333">
<time>2014-01-11T12:33:40Z</time>
 <fix>2d</fix>
 <sat>9</sat>
</trkpt>
<trkpt lat="58.783133333" lon="7.327550000">
<time>2014-01-11T12:33:42Z</time>
 <fix>2d</fix>
 <sat>9</sat>
</trkpt>
<trkpt lat="58.783121667" lon="7.327513333">
<time>2014-01-11T12:33:44Z</time>
 <fix>2d</fix>
 <sat>9</sat>
</trkpt>
<trkpt lat="58.783110000" lon="7.327483333">
<time>2014-01-11T12:33:46Z</time>
 <fix>2d</fix>
 <sat>9</sat>
</trkpt>
<trkpt lat="58.783098333" lon="7.327455000">
<time>2014-01-11T12:33:48Z</time>
 <fix>2d</fix>
 <sat>9</sat>
</trkpt>
<trkpt lat="58.783090000" lon="7.327430000">
<time>2014-01-11T12:33:50Z</time>
 <fix>2d</fix>
 <sat>9</sat>
</trkpt>
<trkpt lat="58.783080000" lon="7.327405000">
<time>2014-01-11T12:33:52Z</time>
 <fix>2d</fix>
 <sat>9</sat>
</trkpt>
<trkpt lat="58.783071667" lon="7.327375000">
<time>2014-01-11T12:33:54Z</time>
 <fix>2d</fix>
 <sat>9</sat>
</trkpt>
<trkpt lat="58.783065000" lon="7.327355000">
<time>2014-01-11T12:33:56Z</time>
 <fix>2d</fix>
 <sat>9</sat>
</trkpt>
<trkpt lat="58.783058333" lon="7.327333333">
<time>2014-01-11T12:33:58Z</time>
 <fix>2d</fix>
 <sat>9</sat>
</trkpt>
<trkpt lat="58.783048333" lon="7.327311667">
<time>2014-01-11T12:34:00Z</time>
 <fix>2d</fix>
 <sat>9</sat>
</trkpt>
<trkpt lat="58.783040000" lon="7.327293333">
<time>2014-01-11T12:34:02Z</time>
 <fix>2d</fix>
 <sat>9</sat>
</trkpt>
<trkpt lat="58.783030000" lon="7.327275000">
<time>2014-01-11T12:34:04Z</time>
 <fix>2d</fix>
 <sat>9</sat>
</trkpt>
<trkpt lat="58.783025000" lon="7.327263333">
<time>2014-01-11T12:34:06Z</time>
 <fix>2d</fix>
 <sat>9</sat>
</trkpt>
<trkpt lat="58.783023333" lon="7.327258333">
<time>2014-01-11T12:34:08Z</time>
 <fix>2d</fix>
 <sat>8</sat>
</trkpt>
<trkpt lat="58.783025000" lon="7.327258333">
<time>2014-01-11T12:34:10Z</time>
 <fix>2d</fix>
 <sat>8</sat>
</trkpt>
<trkpt lat="58.783025000" lon="7.327258333">
<time>2014-01-11T12:34:12Z</time>
 <fix>2d</fix>
 <sat>9</sat>
</trkpt>
<trkpt lat="58.783025000" lon="7.327256667">
<time>2014-01-11T12:34:14Z</time>
 <fix>2d</fix>
 <sat>9</sat>
</trkpt>
<trkpt lat="58.783018333" lon="7.327251667">
<time>2014-01-11T12:34:16Z</time>
 <fix>2d</fix>
 <sat>9</sat>
</trkpt>
<trkpt lat="58.783010000" lon="7.327241667">
<time>2014-01-11T12:34:18Z</time>
 <fix>2d</fix>
 <sat>9</sat>
</trkpt>
<trkpt lat="58.782998333" lon="7.327225000">
<time>2014-01-11T12:34:20Z</time>
 <fix>2d</fix>
 <sat>9</sat>
</trkpt>
<trkpt lat="58.782983333" lon="7.327206667">
<time>2014-01-11T12:34:22Z</time>
 <fix>2d</fix>
 <sat>9</sat>
</trkpt>
<trkpt lat="58.782975000" lon="7.327190000">
<time>2014-01-11T12:34:24Z</time>
 <fix>2d</fix>
 <sat>9</sat>
</trkpt>
<trkpt lat="58.782963333" lon="7.327171667">
<time>2014-01-11T12:34:26Z</time>
 <fix>2d</fix>
 <sat>9</sat>
</trkpt>
<trkpt lat="58.782953333" lon="7.327150000">
<time>2014-01-11T12:34:28Z</time>
 <fix>2d</fix>
 <sat>9</sat>
</trkpt>
<trkpt lat="58.782941667" lon="7.327128333">
<time>2014-01-11T12:34:30Z</time>
 <fix>2d</fix>
 <sat>9</sat>
</trkpt>
<trkpt lat="58.782930000" lon="7.327111667">
<time>2014-01-11T12:34:32Z</time>
 <fix>2d</fix>
 <sat>9</sat>
</trkpt>
<trkpt lat="58.782916667" lon="7.327095000">
<time>2014-01-11T12:34:34Z</time>
 <fix>2d</fix>
 <sat>9</sat>
</trkpt>
<trkpt lat="58.782911667" lon="7.327078333">
<time>2014-01-11T12:34:36Z</time>
 <fix>2d</fix>
 <sat>9</sat>
</trkpt>
<trkpt lat="58.782913333" lon="7.327070000">
<time>2014-01-11T12:34:38Z</time>
 <fix>2d</fix>
 <sat>9</sat>
</trkpt>
<trkpt lat="58.782915000" lon="7.327070000">
<time>2014-01-11T12:34:40Z</time>
 <fix>2d</fix>
 <sat>9</sat>
</trkpt>
<trkpt lat="58.782915000" lon="7.327070000">
<time>2014-01-11T12:34:42Z</time>
 <fix>2d</fix>
 <sat>9</sat>
</trkpt>
<trkpt lat="58.782915000" lon="7.327070000">
<time>2014-01-11T12:34:44Z</time>
 <fix>2d</fix>
 <sat>9</sat>
</trkpt>
<trkpt lat="58.782915000" lon="7.327070000">
<time>2014-01-11T12:34:46Z</time>
 <fix>2d</fix>
 <sat>9</sat>
</trkpt>
<trkpt lat="58.782913333" lon="7.327070000">
<time>2014-01-11T12:34:48Z</time>
 <fix>2d</fix>
 <sat>9</sat>
</trkpt>
<trkpt lat="58.782908333" lon="7.327070000">
<time>2014-01-11T12:34:50Z</time>
 <fix>2d</fix>
 <sat>10</sat>
</trkpt>
<trkpt lat="58.782900000" lon="7.327063333">
<time>2014-01-11T12:34:52Z</time>
 <fix>2d</fix>
 <sat>10</sat>
</trkpt>
<trkpt lat="58.782891667" lon="7.327055000">
<time>2014-01-11T12:34:54Z</time>
 <fix>2d</fix>
 <sat>10</sat>
</trkpt>
<trkpt lat="58.782885000" lon="7.327045000">
<time>2014-01-11T12:34:56Z</time>
 <fix>2d</fix>
 <sat>10</sat>
</trkpt>
<trkpt lat="58.782876667" lon="7.327030000">
<time>2014-01-11T12:34:58Z</time>
 <fix>2d</fix>
 <sat>10</sat>
</trkpt>
<trkpt lat="58.782868333" lon="7.327018333">
<time>2014-01-11T12:35:00Z</time>
 <fix>2d</fix>
 <sat>10</sat>
</trkpt>
<trkpt lat="58.782860000" lon="7.327008333">
<time>2014-01-11T12:35:02Z</time>
 <fix>2d</fix>
 <sat>10</sat>
</trkpt>
<trkpt lat="58.782853333" lon="7.326991667">
<time>2014-01-11T12:35:04Z</time>
 <fix>2d</fix>
 <sat>10</sat>
</trkpt>
<trkpt lat="58.782843333" lon="7.326978333">
<time>2014-01-11T12:35:06Z</time>
 <fix>2d</fix>
 <sat>10</sat>
</trkpt>
<trkpt lat="58.782836667" lon="7.326965000">
<time>2014-01-11T12:35:08Z</time>
 <fix>2d</fix>
 <sat>10</sat>
</trkpt>
<trkpt lat="58.782826667" lon="7.326953333">
<time>2014-01-11T12:35:10Z</time>
 <fix>2d</fix>
 <sat>10</sat>
</trkpt>
<trkpt lat="58.782811667" lon="7.326930000">
<time>2014-01-11T12:35:12Z</time>
 <fix>2d</fix>
 <sat>10</sat>
</trkpt>
<trkpt lat="58.782795000" lon="7.326908333">
<time>2014-01-11T12:35:14Z</time>
 <fix>2d</fix>
 <sat>10</sat>
</trkpt>
<trkpt lat="58.782781667" lon="7.326891667">
<time>2014-01-11T12:35:16Z</time>
 <fix>2d</fix>
 <sat>10</sat>
</trkpt>
<trkpt lat="58.782771667" lon="7.326883333">
<time>2014-01-11T12:35:18Z</time>
 <fix>2d</fix>
 <sat>10</sat>
</trkpt>
<trkpt lat="58.782761667" lon="7.326870000">
<time>2014-01-11T12:35:20Z</time>
 <fix>2d</fix>
 <sat>10</sat>
</trkpt>
<trkpt lat="58.782750000" lon="7.326853333">
<time>2014-01-11T12:35:22Z</time>
 <fix>2d</fix>
 <sat>10</sat>
</trkpt>
<trkpt lat="58.782741667" lon="7.326836667">
<time>2014-01-11T12:35:24Z</time>
 <fix>2d</fix>
 <sat>10</sat>
</trkpt>
<trkpt lat="58.782731667" lon="7.326818333">
<time>2014-01-11T12:35:26Z</time>
 <fix>2d</fix>
 <sat>9</sat>
</trkpt>
<trkpt lat="58.782725000" lon="7.326800000">
<time>2014-01-11T12:35:28Z</time>
 <fix>2d</fix>
 <sat>10</sat>
</trkpt>
<trkpt lat="58.782715000" lon="7.326783333">
<time>2014-01-11T12:35:30Z</time>
 <fix>2d</fix>
 <sat>9</sat>
</trkpt>
<trkpt lat="58.782706667" lon="7.326766667">
<time>2014-01-11T12:35:32Z</time>
 <fix>2d</fix>
 <sat>9</sat>
</trkpt>
<trkpt lat="58.782696667" lon="7.326751667">
<time>2014-01-11T12:35:34Z</time>
 <fix>2d</fix>
 <sat>9</sat>
</trkpt>
<trkpt lat="58.782688333" lon="7.326735000">
<time>2014-01-11T12:35:36Z</time>
 <fix>2d</fix>
 <sat>9</sat>
</trkpt>
<trkpt lat="58.782681667" lon="7.326721667">
<time>2014-01-11T12:35:38Z</time>
 <fix>2d</fix>
 <sat>9</sat>
</trkpt>
<trkpt lat="58.782673333" lon="7.326711667">
<time>2014-01-11T12:35:40Z</time>
 <fix>2d</fix>
 <sat>9</sat>
</trkpt>
<trkpt lat="58.782665000" lon="7.326700000">
<time>2014-01-11T12:35:42Z</time>
 <fix>2d</fix>
 <sat>9</sat>
</trkpt>
<trkpt lat="58.782656667" lon="7.326690000">
<time>2014-01-11T12:35:44Z</time>
 <fix>2d</fix>
 <sat>9</sat>
</trkpt>
<trkpt lat="58.782648333" lon="7.326678333">
<time>2014-01-11T12:35:46Z</time>
 <fix>2d</fix>
 <sat>9</sat>
</trkpt>
<trkpt lat="58.782630000" lon="7.326651667">
<time>2014-01-11T12:35:48Z</time>
 <fix>2d</fix>
 <sat>9</sat>
</trkpt>
<trkpt lat="58.782613333" lon="7.326623333">
<time>2014-01-11T12:35:50Z</time>
 <fix>2d</fix>
 <sat>9</sat>
</trkpt>
<trkpt lat="58.782603333" lon="7.326600000">
<time>2014-01-11T12:35:52Z</time>
 <fix>2d</fix>
 <sat>9</sat>
</trkpt>
<trkpt lat="58.782596667" lon="7.326578333">
<time>2014-01-11T12:35:54Z</time>
 <fix>2d</fix>
 <sat>9</sat>
</trkpt>
<trkpt lat="58.782591667" lon="7.326558333">
<time>2014-01-11T12:35:56Z</time>
 <fix>2d</fix>
 <sat>9</sat>
</trkpt>
<trkpt lat="58.782586667" lon="7.326543333">
<time>2014-01-11T12:35:58Z</time>
 <fix>2d</fix>
 <sat>9</sat>
</trkpt>
<trkpt lat="58.782581667" lon="7.326531667">
<time>2014-01-11T12:36:00Z</time>
 <fix>2d</fix>
 <sat>9</sat>
</trkpt>
<trkpt lat="58.782576667" lon="7.326518333">
<time>2014-01-11T12:36:02Z</time>
 <fix>2d</fix>
 <sat>9</sat>
</trkpt>
<trkpt lat="58.782570000" lon="7.326505000">
<time>2014-01-11T12:36:04Z</time>
 <fix>2d</fix>
 <sat>9</sat>
</trkpt>
<trkpt lat="58.782565000" lon="7.326493333">
<time>2014-01-11T12:36:06Z</time>
 <fix>2d</fix>
 <sat>9</sat>
</trkpt>
<trkpt lat="58.782556667" lon="7.326480000">
<time>2014-01-11T12:36:08Z</time>
 <fix>2d</fix>
 <sat>9</sat>
</trkpt>
<trkpt lat="58.782550000" lon="7.326470000">
<time>2014-01-11T12:36:10Z</time>
 <fix>2d</fix>
 <sat>9</sat>
</trkpt>
<trkpt lat="58.782540000" lon="7.326456667">
<time>2014-01-11T12:36:12Z</time>
 <fix>2d</fix>
 <sat>9</sat>
</trkpt>
<trkpt lat="58.782530000" lon="7.326441667">
<time>2014-01-11T12:36:14Z</time>
 <fix>2d</fix>
 <sat>9</sat>
</trkpt>
<trkpt lat="58.782521667" lon="7.326425000">
<time>2014-01-11T12:36:16Z</time>
 <fix>2d</fix>
 <sat>9</sat>
</trkpt>
<trkpt lat="58.782516667" lon="7.326406667">
<time>2014-01-11T12:36:18Z</time>
 <fix>2d</fix>
 <sat>9</sat>
</trkpt>
<trkpt lat="58.782511667" lon="7.326388333">
<time>2014-01-11T12:36:20Z</time>
 <fix>2d</fix>
 <sat>9</sat>
</trkpt>
<trkpt lat="58.782506667" lon="7.326366667">
<time>2014-01-11T12:36:22Z</time>
 <fix>2d</fix>
 <sat>9</sat>
</trkpt>
<trkpt lat="58.782500000" lon="7.326345000">
<time>2014-01-11T12:36:24Z</time>
 <fix>2d</fix>
 <sat>9</sat>
</trkpt>
<trkpt lat="58.782491667" lon="7.326325000">
<time>2014-01-11T12:36:26Z</time>
 <fix>2d</fix>
 <sat>9</sat>
</trkpt>
<trkpt lat="58.782485000" lon="7.326300000">
<time>2014-01-11T12:36:28Z</time>
 <fix>2d</fix>
 <sat>9</sat>
</trkpt>
<trkpt lat="58.782476667" lon="7.326281667">
<time>2014-01-11T12:36:30Z</time>
 <fix>2d</fix>
 <sat>9</sat>
</trkpt>
<trkpt lat="58.782466667" lon="7.326260000">
<time>2014-01-11T12:36:32Z</time>
 <fix>2d</fix>
 <sat>9</sat>
</trkpt>
<trkpt lat="58.782460000" lon="7.326236667">
<time>2014-01-11T12:36:34Z</time>
 <fix>2d</fix>
 <sat>9</sat>
</trkpt>
<trkpt lat="58.782453333" lon="7.326213333">
<time>2014-01-11T12:36:36Z</time>
 <fix>2d</fix>
 <sat>9</sat>
</trkpt>
<trkpt lat="58.782443333" lon="7.326190000">
<time>2014-01-11T12:36:38Z</time>
 <fix>2d</fix>
 <sat>9</sat>
</trkpt>
<trkpt lat="58.782435000" lon="7.326166667">
<time>2014-01-11T12:36:40Z</time>
 <fix>2d</fix>
 <sat>9</sat>
</trkpt>
<trkpt lat="58.782425000" lon="7.326143333">
<time>2014-01-11T12:36:42Z</time>
 <fix>2d</fix>
 <sat>9</sat>
</trkpt>
<trkpt lat="58.782416667" lon="7.326118333">
<time>2014-01-11T12:36:44Z</time>
 <fix>2d</fix>
 <sat>9</sat>
</trkpt>
<trkpt lat="58.782408333" lon="7.326093333">
<time>2014-01-11T12:36:46Z</time>
 <fix>2d</fix>
 <sat>9</sat>
</trkpt>
<trkpt lat="58.782400000" lon="7.326070000">
<time>2014-01-11T12:36:48Z</time>
 <fix>2d</fix>
 <sat>9</sat>
</trkpt>
<trkpt lat="58.782395000" lon="7.326046667">
<time>2014-01-11T12:36:50Z</time>
 <fix>2d</fix>
 <sat>9</sat>
</trkpt>
<trkpt lat="58.782383333" lon="7.326026667">
<time>2014-01-11T12:36:52Z</time>
 <fix>2d</fix>
 <sat>9</sat>
</trkpt>
<trkpt lat="58.782375000" lon="7.326011667">
<time>2014-01-11T12:36:54Z</time>
 <fix>2d</fix>
 <sat>9</sat>
</trkpt>
<trkpt lat="58.782363333" lon="7.325993333">
<time>2014-01-11T12:36:56Z</time>
 <fix>2d</fix>
 <sat>9</sat>
</trkpt>
<trkpt lat="58.782355000" lon="7.325976667">
<time>2014-01-11T12:36:58Z</time>
 <fix>2d</fix>
 <sat>9</sat>
</trkpt>
<trkpt lat="58.782346667" lon="7.325960000">
<time>2014-01-11T12:37:00Z</time>
 <fix>2d</fix>
 <sat>9</sat>
</trkpt>
<trkpt lat="58.782340000" lon="7.325945000">
<time>2014-01-11T12:37:02Z</time>
 <fix>2d</fix>
 <sat>9</sat>
</trkpt>
<trkpt lat="58.782330000" lon="7.325928333">
<time>2014-01-11T12:37:04Z</time>
 <fix>2d</fix>
 <sat>9</sat>
</trkpt>
<trkpt lat="58.782321667" lon="7.325910000">
<time>2014-01-11T12:37:06Z</time>
 <fix>2d</fix>
 <sat>9</sat>
</trkpt>
<trkpt lat="58.782311667" lon="7.325893333">
<time>2014-01-11T12:37:08Z</time>
 <fix>2d</fix>
 <sat>9</sat>
</trkpt>
<trkpt lat="58.782300000" lon="7.325878333">
<time>2014-01-11T12:37:10Z</time>
 <fix>2d</fix>
 <sat>9</sat>
</trkpt>
<trkpt lat="58.782288333" lon="7.325863333">
<time>2014-01-11T12:37:12Z</time>
 <fix>2d</fix>
 <sat>9</sat>
</trkpt>
<trkpt lat="58.782278333" lon="7.325848333">
<time>2014-01-11T12:37:14Z</time>
 <fix>2d</fix>
 <sat>9</sat>
</trkpt>
<trkpt lat="58.782268333" lon="7.325835000">
<time>2014-01-11T12:37:16Z</time>
 <fix>2d</fix>
 <sat>9</sat>
</trkpt>
<trkpt lat="58.782255000" lon="7.325821667">
<time>2014-01-11T12:37:18Z</time>
 <fix>2d</fix>
 <sat>9</sat>
</trkpt>
<trkpt lat="58.782241667" lon="7.325806667">
<time>2014-01-11T12:37:20Z</time>
 <fix>2d</fix>
 <sat>9</sat>
</trkpt>
<trkpt lat="58.782231667" lon="7.325796667">
<time>2014-01-11T12:37:22Z</time>
 <fix>2d</fix>
 <sat>9</sat>
</trkpt>
<trkpt lat="58.782213333" lon="7.325786667">
<time>2014-01-11T12:37:24Z</time>
 <fix>2d</fix>
 <sat>9</sat>
</trkpt>
<trkpt lat="58.782181667" lon="7.325765000">
<time>2014-01-11T12:37:26Z</time>
 <fix>2d</fix>
 <sat>9</sat>
</trkpt>
<trkpt lat="58.782163333" lon="7.325743333">
<time>2014-01-11T12:37:28Z</time>
 <fix>2d</fix>
 <sat>10</sat>
</trkpt>
<trkpt lat="58.782150000" lon="7.325725000">
<time>2014-01-11T12:37:30Z</time>
 <fix>2d</fix>
 <sat>10</sat>
</trkpt>
<trkpt lat="58.782138333" lon="7.325710000">
<time>2014-01-11T12:37:32Z</time>
 <fix>2d</fix>
 <sat>10</sat>
</trkpt>
<trkpt lat="58.782126667" lon="7.325696667">
<time>2014-01-11T12:37:34Z</time>
 <fix>2d</fix>
 <sat>9</sat>
</trkpt>
<trkpt lat="58.782113333" lon="7.325686667">
<time>2014-01-11T12:37:36Z</time>
 <fix>2d</fix>
 <sat>9</sat>
</trkpt>
<trkpt lat="58.782095000" lon="7.325675000">
<time>2014-01-11T12:37:38Z</time>
 <fix>2d</fix>
 <sat>9</sat>
</trkpt>
<trkpt lat="58.782078333" lon="7.325658333">
<time>2014-01-11T12:37:40Z</time>
 <fix>2d</fix>
 <sat>9</sat>
</trkpt>
<trkpt lat="58.782063333" lon="7.325643333">
<time>2014-01-11T12:37:42Z</time>
 <fix>2d</fix>
 <sat>9</sat>
</trkpt>
<trkpt lat="58.782050000" lon="7.325631667">
<time>2014-01-11T12:37:44Z</time>
 <fix>2d</fix>
 <sat>9</sat>
</trkpt>
<trkpt lat="58.782036667" lon="7.325615000">
<time>2014-01-11T12:37:46Z</time>
 <fix>2d</fix>
 <sat>10</sat>
</trkpt>
<trkpt lat="58.782023333" lon="7.325601667">
<time>2014-01-11T12:37:48Z</time>
 <fix>2d</fix>
 <sat>10</sat>
</trkpt>
<trkpt lat="58.782008333" lon="7.325586667">
<time>2014-01-11T12:37:50Z</time>
 <fix>2d</fix>
 <sat>10</sat>
</trkpt>
<trkpt lat="58.781993333" lon="7.325566667">
<time>2014-01-11T12:37:52Z</time>
 <fix>2d</fix>
 <sat>10</sat>
</trkpt>
<trkpt lat="58.781976667" lon="7.325548333">
<time>2014-01-11T12:37:54Z</time>
 <fix>2d</fix>
 <sat>10</sat>
</trkpt>
<trkpt lat="58.781961667" lon="7.325528333">
<time>2014-01-11T12:37:56Z</time>
 <fix>2d</fix>
 <sat>10</sat>
</trkpt>
<trkpt lat="58.781946667" lon="7.325510000">
<time>2014-01-11T12:37:58Z</time>
 <fix>2d</fix>
 <sat>10</sat>
</trkpt>
<trkpt lat="58.781933333" lon="7.325498333">
<time>2014-01-11T12:38:00Z</time>
 <fix>2d</fix>
 <sat>10</sat>
</trkpt>
<trkpt lat="58.781920000" lon="7.325485000">
<time>2014-01-11T12:38:02Z</time>
 <fix>2d</fix>
 <sat>10</sat>
</trkpt>
<trkpt lat="58.781910000" lon="7.325471667">
<time>2014-01-11T12:38:04Z</time>
 <fix>2d</fix>
 <sat>10</sat>
</trkpt>
<trkpt lat="58.781900000" lon="7.325456667">
<time>2014-01-11T12:38:06Z</time>
 <fix>2d</fix>
 <sat>10</sat>
</trkpt>
<trkpt lat="58.781888333" lon="7.325440000">
<time>2014-01-11T12:38:08Z</time>
 <fix>2d</fix>
 <sat>10</sat>
</trkpt>
<trkpt lat="58.781878333" lon="7.325430000">
<time>2014-01-11T12:38:10Z</time>
 <fix>2d</fix>
 <sat>10</sat>
</trkpt>
<trkpt lat="58.781871667" lon="7.325425000">
<time>2014-01-11T12:38:12Z</time>
 <fix>2d</fix>
 <sat>10</sat>
</trkpt>
<trkpt lat="58.781866667" lon="7.325423333">
<time>2014-01-11T12:38:14Z</time>
 <fix>2d</fix>
 <sat>10</sat>
</trkpt>
<trkpt lat="58.781866667" lon="7.325421667">
<time>2014-01-11T12:38:16Z</time>
 <fix>2d</fix>
 <sat>10</sat>
</trkpt>
<trkpt lat="58.781866667" lon="7.325421667">
<time>2014-01-11T12:38:18Z</time>
 <fix>2d</fix>
 <sat>10</sat>
</trkpt>
<trkpt lat="58.781866667" lon="7.325423333">
<time>2014-01-11T12:38:20Z</time>
 <fix>2d</fix>
 <sat>10</sat>
</trkpt>
<trkpt lat="58.781866667" lon="7.325423333">
<time>2014-01-11T12:38:22Z</time>
 <fix>2d</fix>
 <sat>10</sat>
</trkpt>
<trkpt lat="58.781866667" lon="7.325426667">
<time>2014-01-11T12:38:24Z</time>
 <fix>2d</fix>
 <sat>10</sat>
</trkpt>
<trkpt lat="58.781868333" lon="7.325426667">
<time>2014-01-11T12:38:26Z</time>
 <fix>2d</fix>
 <sat>10</sat>
</trkpt>
<trkpt lat="58.781868333" lon="7.325420000">
<time>2014-01-11T12:38:28Z</time>
 <fix>2d</fix>
 <sat>10</sat>
</trkpt>
<trkpt lat="58.781868333" lon="7.325425000">
<time>2014-01-11T12:38:30Z</time>
 <fix>2d</fix>
 <sat>10</sat>
</trkpt>
<trkpt lat="58.781868333" lon="7.325426667">
<time>2014-01-11T12:38:32Z</time>
 <fix>2d</fix>
 <sat>9</sat>
</trkpt>
<trkpt lat="58.781868333" lon="7.325426667">
<time>2014-01-11T12:38:34Z</time>
 <fix>2d</fix>
 <sat>10</sat>
</trkpt>
<trkpt lat="58.781868333" lon="7.325426667">
<time>2014-01-11T12:38:36Z</time>
 <fix>2d</fix>
 <sat>10</sat>
</trkpt>
<trkpt lat="58.781866667" lon="7.325426667">
<time>2014-01-11T12:38:38Z</time>
 <fix>2d</fix>
 <sat>10</sat>
</trkpt>
<trkpt lat="58.781866667" lon="7.325426667">
<time>2014-01-11T12:38:40Z</time>
 <fix>2d</fix>
 <sat>10</sat>
</trkpt>
<trkpt lat="58.781868333" lon="7.325426667">
<time>2014-01-11T12:38:42Z</time>
 <fix>2d</fix>
 <sat>10</sat>
</trkpt>
<trkpt lat="58.781868333" lon="7.325426667">
<time>2014-01-11T12:38:44Z</time>
 <fix>2d</fix>
 <sat>10</sat>
</trkpt>
<trkpt lat="58.781868333" lon="7.325426667">
<time>2014-01-11T12:38:46Z</time>
 <fix>2d</fix>
 <sat>10</sat>
</trkpt>
<trkpt lat="58.781870000" lon="7.325426667">
<time>2014-01-11T12:38:48Z</time>
 <fix>2d</fix>
 <sat>10</sat>
</trkpt>
<trkpt lat="58.781870000" lon="7.325426667">
<time>2014-01-11T12:38:50Z</time>
 <fix>2d</fix>
 <sat>10</sat>
</trkpt>
<trkpt lat="58.781870000" lon="7.325426667">
<time>2014-01-11T12:38:52Z</time>
 <fix>2d</fix>
 <sat>10</sat>
</trkpt>
<trkpt lat="58.781870000" lon="7.325426667">
<time>2014-01-11T12:38:54Z</time>
 <fix>2d</fix>
 <sat>9</sat>
</trkpt>
<trkpt lat="58.781871667" lon="7.325426667">
<time>2014-01-11T12:38:56Z</time>
 <fix>2d</fix>
 <sat>9</sat>
</trkpt>
<trkpt lat="58.781866667" lon="7.325415000">
<time>2014-01-11T12:38:58Z</time>
 <fix>2d</fix>
 <sat>9</sat>
</trkpt>
<trkpt lat="58.781858333" lon="7.325391667">
<time>2014-01-11T12:39:00Z</time>
 <fix>2d</fix>
 <sat>9</sat>
</trkpt>
<trkpt lat="58.781851667" lon="7.325370000">
<time>2014-01-11T12:39:02Z</time>
 <fix>2d</fix>
 <sat>9</sat>
</trkpt>
<trkpt lat="58.781846667" lon="7.325346667">
<time>2014-01-11T12:39:04Z</time>
 <fix>2d</fix>
 <sat>9</sat>
</trkpt>
<trkpt lat="58.781838333" lon="7.325323333">
<time>2014-01-11T12:39:06Z</time>
 <fix>2d</fix>
 <sat>9</sat>
</trkpt>
<trkpt lat="58.781835000" lon="7.325298333">
<time>2014-01-11T12:39:08Z</time>
 <fix>2d</fix>
 <sat>10</sat>
</trkpt>
<trkpt lat="58.781831667" lon="7.325275000">
<time>2014-01-11T12:39:10Z</time>
 <fix>2d</fix>
 <sat>10</sat>
</trkpt>
<trkpt lat="58.781826667" lon="7.325253333">
<time>2014-01-11T12:39:12Z</time>
 <fix>2d</fix>
 <sat>9</sat>
</trkpt>
<trkpt lat="58.781823333" lon="7.325230000">
<time>2014-01-11T12:39:14Z</time>
 <fix>2d</fix>
 <sat>9</sat>
</trkpt>
<trkpt lat="58.781825000" lon="7.325211667">
<time>2014-01-11T12:39:16Z</time>
 <fix>2d</fix>
 <sat>9</sat>
</trkpt>
<trkpt lat="58.781830000" lon="7.325208333">
<time>2014-01-11T12:39:18Z</time>
 <fix>2d</fix>
 <sat>9</sat>
</trkpt>
<trkpt lat="58.781828333" lon="7.325213333">
<time>2014-01-11T12:39:20Z</time>
 <fix>2d</fix>
 <sat>9</sat>
</trkpt>
<trkpt lat="58.781828333" lon="7.325215000">
<time>2014-01-11T12:39:22Z</time>
 <fix>2d</fix>
 <sat>9</sat>
</trkpt>
<trkpt lat="58.781826667" lon="7.325215000">
<time>2014-01-11T12:39:24Z</time>
 <fix>2d</fix>
 <sat>9</sat>
</trkpt>
<trkpt lat="58.781823333" lon="7.325211667">
<time>2014-01-11T12:39:26Z</time>
 <fix>2d</fix>
 <sat>9</sat>
</trkpt>
<trkpt lat="58.781823333" lon="7.325208333">
<time>2014-01-11T12:39:28Z</time>
 <fix>2d</fix>
 <sat>9</sat>
</trkpt>
<trkpt lat="58.781823333" lon="7.325208333">
<time>2014-01-11T12:39:30Z</time>
 <fix>2d</fix>
 <sat>9</sat>
</trkpt>
<trkpt lat="58.781820000" lon="7.325203333">
<time>2014-01-11T12:39:32Z</time>
 <fix>2d</fix>
 <sat>9</sat>
</trkpt>
<trkpt lat="58.781820000" lon="7.325198333">
<time>2014-01-11T12:39:34Z</time>
 <fix>2d</fix>
 <sat>9</sat>
</trkpt>
<trkpt lat="58.781820000" lon="7.325198333">
<time>2014-01-11T12:39:36Z</time>
 <fix>2d</fix>
 <sat>9</sat>
</trkpt>
<trkpt lat="58.781820000" lon="7.325195000">
<time>2014-01-11T12:39:38Z</time>
 <fix>2d</fix>
 <sat>9</sat>
</trkpt>
<trkpt lat="58.781820000" lon="7.325193333">
<time>2014-01-11T12:39:40Z</time>
 <fix>2d</fix>
 <sat>9</sat>
</trkpt>
<trkpt lat="58.781820000" lon="7.325195000">
<time>2014-01-11T12:39:42Z</time>
 <fix>2d</fix>
 <sat>9</sat>
</trkpt>
<trkpt lat="58.781820000" lon="7.325195000">
<time>2014-01-11T12:39:44Z</time>
 <fix>2d</fix>
 <sat>9</sat>
</trkpt>
<trkpt lat="58.781820000" lon="7.325193333">
<time>2014-01-11T12:39:46Z</time>
 <fix>2d</fix>
 <sat>9</sat>
</trkpt>
<trkpt lat="58.781818333" lon="7.325188333">
<time>2014-01-11T12:39:48Z</time>
 <fix>2d</fix>
 <sat>9</sat>
</trkpt>
<trkpt lat="58.781813333" lon="7.325161667">
<time>2014-01-11T12:39:50Z</time>
 <fix>2d</fix>
 <sat>9</sat>
</trkpt>
<trkpt lat="58.781806667" lon="7.325118333">
<time>2014-01-11T12:39:52Z</time>
 <fix>2d</fix>
 <sat>9</sat>
</trkpt>
<trkpt lat="58.781810000" lon="7.325071667">
<time>2014-01-11T12:39:54Z</time>
 <fix>2d</fix>
 <sat>9</sat>
</trkpt>
<trkpt lat="58.781821667" lon="7.325020000">
<time>2014-01-11T12:39:56Z</time>
 <fix>2d</fix>
 <sat>9</sat>
</trkpt>
<trkpt lat="58.781846667" lon="7.324958333">
<time>2014-01-11T12:39:58Z</time>
 <fix>2d</fix>
 <sat>10</sat>
</trkpt>
<trkpt lat="58.781885000" lon="7.324875000">
<time>2014-01-11T12:40:00Z</time>
 <fix>2d</fix>
 <sat>9</sat>
</trkpt>
<trkpt lat="58.781926667" lon="7.324765000">
<time>2014-01-11T12:40:02Z</time>
 <fix>2d</fix>
 <sat>9</sat>
</trkpt>
<trkpt lat="58.781971667" lon="7.324646667">
<time>2014-01-11T12:40:04Z</time>
 <fix>2d</fix>
 <sat>10</sat>
</trkpt>
<trkpt lat="58.782011667" lon="7.324545000">
<time>2014-01-11T12:40:06Z</time>
 <fix>2d</fix>
 <sat>9</sat>
</trkpt>
<trkpt lat="58.782041667" lon="7.324458333">
<time>2014-01-11T12:40:08Z</time>
 <fix>2d</fix>
 <sat>9</sat>
</trkpt>
<trkpt lat="58.782066667" lon="7.324390000">
<time>2014-01-11T12:40:10Z</time>
 <fix>2d</fix>
 <sat>9</sat>
</trkpt>
<trkpt lat="58.782083333" lon="7.324341667">
<time>2014-01-11T12:40:12Z</time>
 <fix>2d</fix>
 <sat>9</sat>
</trkpt>
<trkpt lat="58.782100000" lon="7.324300000">
<time>2014-01-11T12:40:14Z</time>
 <fix>2d</fix>
 <sat>10</sat>
</trkpt>
<trkpt lat="58.782113333" lon="7.324263333">
<time>2014-01-11T12:40:16Z</time>
 <fix>2d</fix>
 <sat>10</sat>
</trkpt>
<trkpt lat="58.782126667" lon="7.324226667">
<time>2014-01-11T12:40:18Z</time>
 <fix>2d</fix>
 <sat>10</sat>
</trkpt>
<trkpt lat="58.782140000" lon="7.324191667">
<time>2014-01-11T12:40:20Z</time>
 <fix>2d</fix>
 <sat>10</sat>
</trkpt>
<trkpt lat="58.782150000" lon="7.324151667">
<time>2014-01-11T12:40:22Z</time>
 <fix>2d</fix>
 <sat>10</sat>
</trkpt>
<trkpt lat="58.782166667" lon="7.324110000">
<time>2014-01-11T12:40:24Z</time>
 <fix>2d</fix>
 <sat>10</sat>
</trkpt>
<trkpt lat="58.782181667" lon="7.324065000">
<time>2014-01-11T12:40:26Z</time>
 <fix>2d</fix>
 <sat>10</sat>
</trkpt>
<trkpt lat="58.782195000" lon="7.324010000">
<time>2014-01-11T12:40:28Z</time>
 <fix>2d</fix>
 <sat>10</sat>
</trkpt>
<trkpt lat="58.782198333" lon="7.323960000">
<time>2014-01-11T12:40:30Z</time>
 <fix>2d</fix>
 <sat>10</sat>
</trkpt>
<trkpt lat="58.782198333" lon="7.323918333">
<time>2014-01-11T12:40:32Z</time>
 <fix>2d</fix>
 <sat>10</sat>
</trkpt>
<trkpt lat="58.782193333" lon="7.323880000">
<time>2014-01-11T12:40:34Z</time>
 <fix>2d</fix>
 <sat>10</sat>
</trkpt>
<trkpt lat="58.782185000" lon="7.323843333">
<time>2014-01-11T12:40:36Z</time>
 <fix>2d</fix>
 <sat>10</sat>
</trkpt>
<trkpt lat="58.782171667" lon="7.323810000">
<time>2014-01-11T12:40:38Z</time>
 <fix>2d</fix>
 <sat>10</sat>
</trkpt>
<trkpt lat="58.782156667" lon="7.323778333">
<time>2014-01-11T12:40:40Z</time>
 <fix>2d</fix>
 <sat>10</sat>
</trkpt>
<trkpt lat="58.782140000" lon="7.323751667">
<time>2014-01-11T12:40:42Z</time>
 <fix>2d</fix>
 <sat>9</sat>
</trkpt>
<trkpt lat="58.782115000" lon="7.323735000">
<time>2014-01-11T12:40:44Z</time>
 <fix>2d</fix>
 <sat>9</sat>
</trkpt>
<trkpt lat="58.782085000" lon="7.323711667">
<time>2014-01-11T12:40:46Z</time>
 <fix>2d</fix>
 <sat>10</sat>
</trkpt>
<trkpt lat="58.782043333" lon="7.323683333">
<time>2014-01-11T12:40:48Z</time>
 <fix>2d</fix>
 <sat>9</sat>
</trkpt>
<trkpt lat="58.781995000" lon="7.323653333">
<time>2014-01-11T12:40:50Z</time>
 <fix>2d</fix>
 <sat>9</sat>
</trkpt>
<trkpt lat="58.781963333" lon="7.323633333">
<time>2014-01-11T12:40:52Z</time>
 <fix>2d</fix>
 <sat>9</sat>
</trkpt>
<trkpt lat="58.781940000" lon="7.323628333">
<time>2014-01-11T12:40:54Z</time>
 <fix>2d</fix>
 <sat>9</sat>
</trkpt>
<trkpt lat="58.781920000" lon="7.323620000">
<time>2014-01-11T12:40:56Z</time>
 <fix>2d</fix>
 <sat>9</sat>
</trkpt>
<trkpt lat="58.781900000" lon="7.323615000">
<time>2014-01-11T12:40:58Z</time>
 <fix>2d</fix>
 <sat>9</sat>
</trkpt>
<trkpt lat="58.781878333" lon="7.323603333">
<time>2014-01-11T12:41:00Z</time>
 <fix>2d</fix>
 <sat>9</sat>
</trkpt>
<trkpt lat="58.781858333" lon="7.323593333">
<time>2014-01-11T12:41:02Z</time>
 <fix>2d</fix>
 <sat>9</sat>
</trkpt>
<trkpt lat="58.781831667" lon="7.323578333">
<time>2014-01-11T12:41:04Z</time>
 <fix>2d</fix>
 <sat>9</sat>
</trkpt>
<trkpt lat="58.781795000" lon="7.323558333">
<time>2014-01-11T12:41:06Z</time>
 <fix>2d</fix>
 <sat>9</sat>
</trkpt>
<trkpt lat="58.781760000" lon="7.323531667">
<time>2014-01-11T12:41:08Z</time>
 <fix>2d</fix>
 <sat>9</sat>
</trkpt>
<trkpt lat="58.781733333" lon="7.323505000">
<time>2014-01-11T12:41:10Z</time>
 <fix>2d</fix>
 <sat>9</sat>
</trkpt>
<trkpt lat="58.781713333" lon="7.323486667">
<time>2014-01-11T12:41:12Z</time>
 <fix>2d</fix>
 <sat>9</sat>
</trkpt>
<trkpt lat="58.781693333" lon="7.323465000">
<time>2014-01-11T12:41:14Z</time>
 <fix>2d</fix>
 <sat>9</sat>
</trkpt>
<trkpt lat="58.781670000" lon="7.323430000">
<time>2014-01-11T12:41:16Z</time>
 <fix>2d</fix>
 <sat>9</sat>
</trkpt>
<trkpt lat="58.781650000" lon="7.323396667">
<time>2014-01-11T12:41:18Z</time>
 <fix>2d</fix>
 <sat>9</sat>
</trkpt>
<trkpt lat="58.781638333" lon="7.323370000">
<time>2014-01-11T12:41:20Z</time>
 <fix>2d</fix>
 <sat>9</sat>
</trkpt>
<trkpt lat="58.781631667" lon="7.323355000">
<time>2014-01-11T12:41:22Z</time>
 <fix>2d</fix>
 <sat>9</sat>
</trkpt>
<trkpt lat="58.781626667" lon="7.323345000">
<time>2014-01-11T12:41:24Z</time>
 <fix>2d</fix>
 <sat>9</sat>
</trkpt>
<trkpt lat="58.781625000" lon="7.323335000">
<time>2014-01-11T12:41:26Z</time>
 <fix>2d</fix>
 <sat>9</sat>
</trkpt>
<trkpt lat="58.781621667" lon="7.323318333">
<time>2014-01-11T12:41:28Z</time>
 <fix>2d</fix>
 <sat>9</sat>
</trkpt>
<trkpt lat="58.781616667" lon="7.323301667">
<time>2014-01-11T12:41:30Z</time>
 <fix>2d</fix>
 <sat>8</sat>
</trkpt>
<trkpt lat="58.781610000" lon="7.323280000">
<time>2014-01-11T12:41:32Z</time>
 <fix>2d</fix>
 <sat>9</sat>
</trkpt>
<trkpt lat="58.781608333" lon="7.323266667">
<time>2014-01-11T12:41:34Z</time>
 <fix>2d</fix>
 <sat>8</sat>
</trkpt>
<trkpt lat="58.781603333" lon="7.323248333">
<time>2014-01-11T12:41:36Z</time>
 <fix>2d</fix>
 <sat>9</sat>
</trkpt>
<trkpt lat="58.781598333" lon="7.323236667">
<time>2014-01-11T12:41:38Z</time>
 <fix>2d</fix>
 <sat>9</sat>
</trkpt>
<trkpt lat="58.781598333" lon="7.323231667">
<time>2014-01-11T12:41:40Z</time>
 <fix>2d</fix>
 <sat>9</sat>
</trkpt>
<trkpt lat="58.781596667" lon="7.323231667">
<time>2014-01-11T12:41:42Z</time>
 <fix>2d</fix>
 <sat>9</sat>
</trkpt>
<trkpt lat="58.781596667" lon="7.323233333">
<time>2014-01-11T12:41:44Z</time>
 <fix>2d</fix>
 <sat>9</sat>
</trkpt>
<trkpt lat="58.781596667" lon="7.323231667">
<time>2014-01-11T12:41:46Z</time>
 <fix>2d</fix>
 <sat>9</sat>
</trkpt>
<trkpt lat="58.781596667" lon="7.323233333">
<time>2014-01-11T12:41:48Z</time>
 <fix>2d</fix>
 <sat>9</sat>
</trkpt>
<trkpt lat="58.781595000" lon="7.323235000">
<time>2014-01-11T12:41:50Z</time>
 <fix>2d</fix>
 <sat>9</sat>
</trkpt>
<trkpt lat="58.781595000" lon="7.323235000">
<time>2014-01-11T12:41:52Z</time>
 <fix>2d</fix>
 <sat>9</sat>
</trkpt>
<trkpt lat="58.781593333" lon="7.323236667">
<time>2014-01-11T12:41:54Z</time>
 <fix>2d</fix>
 <sat>9</sat>
</trkpt>
<trkpt lat="58.781595000" lon="7.323238333">
<time>2014-01-11T12:41:56Z</time>
 <fix>2d</fix>
 <sat>9</sat>
</trkpt>
<trkpt lat="58.781595000" lon="7.323238333">
<time>2014-01-11T12:41:58Z</time>
 <fix>2d</fix>
 <sat>9</sat>
</trkpt>
<trkpt lat="58.781595000" lon="7.323240000">
<time>2014-01-11T12:42:00Z</time>
 <fix>2d</fix>
 <sat>9</sat>
</trkpt>
<trkpt lat="58.781596667" lon="7.323240000">
<time>2014-01-11T12:42:02Z</time>
 <fix>2d</fix>
 <sat>9</sat>
</trkpt>
<trkpt lat="58.781595000" lon="7.323236667">
<time>2014-01-11T12:42:04Z</time>
 <fix>2d</fix>
 <sat>8</sat>
</trkpt>
<trkpt lat="58.781595000" lon="7.323235000">
<time>2014-01-11T12:42:06Z</time>
 <fix>2d</fix>
 <sat>8</sat>
</trkpt>
<trkpt lat="58.781591667" lon="7.323208333">
<time>2014-01-11T12:42:08Z</time>
 <fix>2d</fix>
 <sat>9</sat>
</trkpt>
<trkpt lat="58.781588333" lon="7.323173333">
<time>2014-01-11T12:42:10Z</time>
 <fix>2d</fix>
 <sat>9</sat>
</trkpt>
<trkpt lat="58.781586667" lon="7.323125000">
<time>2014-01-11T12:42:12Z</time>
 <fix>2d</fix>
 <sat>9</sat>
</trkpt>
<trkpt lat="58.781581667" lon="7.323065000">
<time>2014-01-11T12:42:14Z</time>
 <fix>2d</fix>
 <sat>9</sat>
</trkpt>
<trkpt lat="58.781573333" lon="7.322995000">
<time>2014-01-11T12:42:16Z</time>
 <fix>2d</fix>
 <sat>9</sat>
</trkpt>
<trkpt lat="58.781563333" lon="7.322916667">
<time>2014-01-11T12:42:18Z</time>
 <fix>2d</fix>
 <sat>9</sat>
</trkpt>
<trkpt lat="58.781555000" lon="7.322843333">
<time>2014-01-11T12:42:20Z</time>
 <fix>2d</fix>
 <sat>9</sat>
</trkpt>
<trkpt lat="58.781538333" lon="7.322755000">
<time>2014-01-11T12:42:22Z</time>
 <fix>2d</fix>
 <sat>8</sat>
</trkpt>
<trkpt lat="58.781523333" lon="7.322628333">
<time>2014-01-11T12:42:24Z</time>
 <fix>2d</fix>
 <sat>8</sat>
</trkpt>
<trkpt lat="58.781515000" lon="7.322493333">
<time>2014-01-11T12:42:26Z</time>
 <fix>2d</fix>
 <sat>9</sat>
</trkpt>
<trkpt lat="58.781515000" lon="7.322373333">
<time>2014-01-11T12:42:28Z</time>
 <fix>2d</fix>
 <sat>8</sat>
</trkpt>
<trkpt lat="58.781521667" lon="7.322271667">
<time>2014-01-11T12:42:30Z</time>
 <fix>2d</fix>
 <sat>9</sat>
</trkpt>
<trkpt lat="58.781530000" lon="7.322181667">
<time>2014-01-11T12:42:32Z</time>
 <fix>2d</fix>
 <sat>9</sat>
</trkpt>
<trkpt lat="58.781536667" lon="7.322093333">
<time>2014-01-11T12:42:34Z</time>
 <fix>2d</fix>
 <sat>9</sat>
</trkpt>
<trkpt lat="58.781545000" lon="7.322006667">
<time>2014-01-11T12:42:36Z</time>
 <fix>2d</fix>
 <sat>9</sat>
</trkpt>
<trkpt lat="58.781555000" lon="7.321916667">
<time>2014-01-11T12:42:38Z</time>
 <fix>2d</fix>
 <sat>9</sat>
</trkpt>
<trkpt lat="58.781561667" lon="7.321843333">
<time>2014-01-11T12:42:40Z</time>
 <fix>2d</fix>
 <sat>9</sat>
</trkpt>
<trkpt lat="58.781570000" lon="7.321795000">
<time>2014-01-11T12:42:42Z</time>
 <fix>2d</fix>
 <sat>9</sat>
</trkpt>
<trkpt lat="58.781580000" lon="7.321746667">
<time>2014-01-11T12:42:44Z</time>
 <fix>2d</fix>
 <sat>9</sat>
</trkpt>
<trkpt lat="58.781588333" lon="7.321715000">
<time>2014-01-11T12:42:46Z</time>
 <fix>2d</fix>
 <sat>9</sat>
</trkpt>
<trkpt lat="58.781593333" lon="7.321688333">
<time>2014-01-11T12:42:48Z</time>
 <fix>2d</fix>
 <sat>9</sat>
</trkpt>
<trkpt lat="58.781598333" lon="7.321665000">
<time>2014-01-11T12:42:50Z</time>
 <fix>2d</fix>
 <sat>9</sat>
</trkpt>
<trkpt lat="58.781601667" lon="7.321646667">
<time>2014-01-11T12:42:52Z</time>
 <fix>2d</fix>
 <sat>9</sat>
</trkpt>
<trkpt lat="58.781603333" lon="7.321631667">
<time>2014-01-11T12:42:54Z</time>
 <fix>2d</fix>
 <sat>9</sat>
</trkpt>
<trkpt lat="58.781610000" lon="7.321610000">
<time>2014-01-11T12:42:56Z</time>
 <fix>2d</fix>
 <sat>9</sat>
</trkpt>
<trkpt lat="58.781613333" lon="7.321591667">
<time>2014-01-11T12:42:58Z</time>
 <fix>2d</fix>
 <sat>9</sat>
</trkpt>
<trkpt lat="58.781618333" lon="7.321566667">
<time>2014-01-11T12:43:00Z</time>
 <fix>2d</fix>
 <sat>9</sat>
</trkpt>
<trkpt lat="58.781621667" lon="7.321535000">
<time>2014-01-11T12:43:02Z</time>
 <fix>2d</fix>
 <sat>9</sat>
</trkpt>
<trkpt lat="58.781630000" lon="7.321493333">
<time>2014-01-11T12:43:04Z</time>
 <fix>2d</fix>
 <sat>9</sat>
</trkpt>
<trkpt lat="58.781636667" lon="7.321441667">
<time>2014-01-11T12:43:06Z</time>
 <fix>2d</fix>
 <sat>9</sat>
</trkpt>
<trkpt lat="58.781643333" lon="7.321390000">
<time>2014-01-11T12:43:08Z</time>
 <fix>2d</fix>
 <sat>9</sat>
</trkpt>
<trkpt lat="58.781650000" lon="7.321343333">
<time>2014-01-11T12:43:10Z</time>
 <fix>2d</fix>
 <sat>9</sat>
</trkpt>
<trkpt lat="58.781655000" lon="7.321300000">
<time>2014-01-11T12:43:12Z</time>
 <fix>2d</fix>
 <sat>9</sat>
</trkpt>
<trkpt lat="58.781661667" lon="7.321260000">
<time>2014-01-11T12:43:14Z</time>
 <fix>2d</fix>
 <sat>9</sat>
</trkpt>
<trkpt lat="58.781668333" lon="7.321221667">
<time>2014-01-11T12:43:16Z</time>
 <fix>2d</fix>
 <sat>9</sat>
</trkpt>
<trkpt lat="58.781676667" lon="7.321176667">
<time>2014-01-11T12:43:18Z</time>
 <fix>2d</fix>
 <sat>9</sat>
</trkpt>
<trkpt lat="58.781685000" lon="7.321115000">
<time>2014-01-11T12:43:20Z</time>
 <fix>2d</fix>
 <sat>9</sat>
</trkpt>
<trkpt lat="58.781700000" lon="7.321023333">
<time>2014-01-11T12:43:22Z</time>
 <fix>2d</fix>
 <sat>9</sat>
</trkpt>
<trkpt lat="58.781733333" lon="7.320881667">
<time>2014-01-11T12:43:24Z</time>
 <fix>2d</fix>
 <sat>9</sat>
</trkpt>
<trkpt lat="58.781771667" lon="7.320696667">
<time>2014-01-11T12:43:26Z</time>
 <fix>2d</fix>
 <sat>9</sat>
</trkpt>
<trkpt lat="58.781803333" lon="7.320525000">
<time>2014-01-11T12:43:28Z</time>
 <fix>2d</fix>
 <sat>9</sat>
</trkpt>
<trkpt lat="58.781818333" lon="7.320433333">
<time>2014-01-11T12:43:30Z</time>
 <fix>2d</fix>
 <sat>9</sat>
</trkpt>
<trkpt lat="58.781823333" lon="7.320380000">
<time>2014-01-11T12:43:32Z</time>
 <fix>2d</fix>
 <sat>9</sat>
</trkpt>
<trkpt lat="58.781830000" lon="7.320340000">
<time>2014-01-11T12:43:34Z</time>
 <fix>2d</fix>
 <sat>9</sat>
</trkpt>
<trkpt lat="58.781835000" lon="7.320326667">
<time>2014-01-11T12:43:36Z</time>
 <fix>2d</fix>
 <sat>9</sat>
</trkpt>
<trkpt lat="58.781836667" lon="7.320325000">
<time>2014-01-11T12:43:38Z</time>
 <fix>2d</fix>
 <sat>9</sat>
</trkpt>
<trkpt lat="58.781836667" lon="7.320323333">
<time>2014-01-11T12:43:40Z</time>
 <fix>2d</fix>
 <sat>8</sat>
</trkpt>
<trkpt lat="58.781835000" lon="7.320321667">
<time>2014-01-11T12:43:42Z</time>
 <fix>2d</fix>
 <sat>9</sat>
</trkpt>
<trkpt lat="58.781833333" lon="7.320323333">
<time>2014-01-11T12:43:44Z</time>
 <fix>2d</fix>
 <sat>8</sat>
</trkpt>
<trkpt lat="58.781831667" lon="7.320323333">
<time>2014-01-11T12:43:46Z</time>
 <fix>2d</fix>
 <sat>9</sat>
</trkpt>
<trkpt lat="58.781831667" lon="7.320326667">
<time>2014-01-11T12:43:48Z</time>
 <fix>2d</fix>
 <sat>9</sat>
</trkpt>
<trkpt lat="58.781831667" lon="7.320328333">
<time>2014-01-11T12:43:50Z</time>
 <fix>2d</fix>
 <sat>9</sat>
</trkpt>
<trkpt lat="58.781830000" lon="7.320333333">
<time>2014-01-11T12:43:52Z</time>
 <fix>2d</fix>
 <sat>9</sat>
</trkpt>
<trkpt lat="58.781828333" lon="7.320340000">
<time>2014-01-11T12:43:54Z</time>
 <fix>2d</fix>
 <sat>9</sat>
</trkpt>
<trkpt lat="58.781826667" lon="7.320341667">
<time>2014-01-11T12:43:56Z</time>
 <fix>2d</fix>
 <sat>8</sat>
</trkpt>
<trkpt lat="58.781825000" lon="7.320336667">
<time>2014-01-11T12:43:58Z</time>
 <fix>2d</fix>
 <sat>8</sat>
</trkpt>
<trkpt lat="58.781825000" lon="7.320333333">
<time>2014-01-11T12:44:00Z</time>
 <fix>2d</fix>
 <sat>9</sat>
</trkpt>
<trkpt lat="58.781825000" lon="7.320333333">
<time>2014-01-11T12:44:02Z</time>
 <fix>2d</fix>
 <sat>9</sat>
</trkpt>
<trkpt lat="58.781825000" lon="7.320335000">
<time>2014-01-11T12:44:04Z</time>
 <fix>2d</fix>
 <sat>9</sat>
</trkpt>
<trkpt lat="58.781821667" lon="7.320336667">
<time>2014-01-11T12:44:06Z</time>
 <fix>2d</fix>
 <sat>9</sat>
</trkpt>
<trkpt lat="58.781821667" lon="7.320335000">
<time>2014-01-11T12:44:08Z</time>
 <fix>2d</fix>
 <sat>9</sat>
</trkpt>
<trkpt lat="58.781823333" lon="7.320333333">
<time>2014-01-11T12:44:10Z</time>
 <fix>2d</fix>
 <sat>9</sat>
</trkpt>
<trkpt lat="58.781821667" lon="7.320331667">
<time>2014-01-11T12:44:12Z</time>
 <fix>2d</fix>
 <sat>9</sat>
</trkpt>
<trkpt lat="58.781823333" lon="7.320300000">
<time>2014-01-11T12:44:14Z</time>
 <fix>2d</fix>
 <sat>9</sat>
</trkpt>
<trkpt lat="58.781828333" lon="7.320238333">
<time>2014-01-11T12:44:16Z</time>
 <fix>2d</fix>
 <sat>9</sat>
</trkpt>
<trkpt lat="58.781831667" lon="7.320156667">
<time>2014-01-11T12:44:18Z</time>
 <fix>2d</fix>
 <sat>9</sat>
</trkpt>
<trkpt lat="58.781833333" lon="7.320063333">
<time>2014-01-11T12:44:20Z</time>
 <fix>2d</fix>
 <sat>9</sat>
</trkpt>
<trkpt lat="58.781831667" lon="7.319975000">
<time>2014-01-11T12:44:22Z</time>
 <fix>2d</fix>
 <sat>9</sat>
</trkpt>
<trkpt lat="58.781830000" lon="7.319896667">
<time>2014-01-11T12:44:24Z</time>
 <fix>2d</fix>
 <sat>9</sat>
</trkpt>
<trkpt lat="58.781828333" lon="7.319855000">
<time>2014-01-11T12:44:26Z</time>
 <fix>2d</fix>
 <sat>9</sat>
</trkpt>
<trkpt lat="58.781826667" lon="7.319820000">
<time>2014-01-11T12:44:28Z</time>
 <fix>2d</fix>
 <sat>9</sat>
</trkpt>
<trkpt lat="58.781825000" lon="7.319785000">
<time>2014-01-11T12:44:30Z</time>
 <fix>2d</fix>
 <sat>9</sat>
</trkpt>
<trkpt lat="58.781823333" lon="7.319753333">
<time>2014-01-11T12:44:32Z</time>
 <fix>2d</fix>
 <sat>9</sat>
</trkpt>
<trkpt lat="58.781823333" lon="7.319720000">
<time>2014-01-11T12:44:34Z</time>
 <fix>2d</fix>
 <sat>9</sat>
</trkpt>
<trkpt lat="58.781821667" lon="7.319696667">
<time>2014-01-11T12:44:36Z</time>
 <fix>2d</fix>
 <sat>9</sat>
</trkpt>
<trkpt lat="58.781821667" lon="7.319670000">
<time>2014-01-11T12:44:38Z</time>
 <fix>2d</fix>
 <sat>9</sat>
</trkpt>
<trkpt lat="58.781818333" lon="7.319651667">
<time>2014-01-11T12:44:40Z</time>
 <fix>2d</fix>
 <sat>9</sat>
</trkpt>
<trkpt lat="58.781816667" lon="7.319630000">
<time>2014-01-11T12:44:42Z</time>
 <fix>2d</fix>
 <sat>9</sat>
</trkpt>
<trkpt lat="58.781816667" lon="7.319606667">
<time>2014-01-11T12:44:44Z</time>
 <fix>2d</fix>
 <sat>9</sat>
</trkpt>
<trkpt lat="58.781816667" lon="7.319583333">
<time>2014-01-11T12:44:46Z</time>
 <fix>2d</fix>
 <sat>9</sat>
</trkpt>
<trkpt lat="58.781815000" lon="7.319538333">
<time>2014-01-11T12:44:48Z</time>
 <fix>2d</fix>
 <sat>9</sat>
</trkpt>
<trkpt lat="58.781811667" lon="7.319473333">
<time>2014-01-11T12:44:50Z</time>
 <fix>2d</fix>
 <sat>8</sat>
</trkpt>
<trkpt lat="58.781810000" lon="7.319406667">
<time>2014-01-11T12:44:52Z</time>
 <fix>2d</fix>
 <sat>8</sat>
</trkpt>
<trkpt lat="58.781810000" lon="7.319355000">
<time>2014-01-11T12:44:54Z</time>
 <fix>2d</fix>
 <sat>8</sat>
</trkpt>
<trkpt lat="58.781810000" lon="7.319310000">
<time>2014-01-11T12:44:56Z</time>
 <fix>2d</fix>
 <sat>8</sat>
</trkpt>
<trkpt lat="58.781806667" lon="7.319268333">
<time>2014-01-11T12:44:58Z</time>
 <fix>2d</fix>
 <sat>8</sat>
</trkpt>
<trkpt lat="58.781806667" lon="7.319221667">
<time>2014-01-11T12:45:00Z</time>
 <fix>2d</fix>
 <sat>8</sat>
</trkpt>
<trkpt lat="58.781806667" lon="7.319180000">
<time>2014-01-11T12:45:02Z</time>
 <fix>2d</fix>
 <sat>8</sat>
</trkpt>
<trkpt lat="58.781805000" lon="7.319138333">
<time>2014-01-11T12:45:04Z</time>
 <fix>2d</fix>
 <sat>8</sat>
</trkpt>
<trkpt lat="58.781803333" lon="7.319096667">
<time>2014-01-11T12:45:06Z</time>
 <fix>2d</fix>
 <sat>8</sat>
</trkpt>
<trkpt lat="58.781801667" lon="7.319055000">
<time>2014-01-11T12:45:08Z</time>
 <fix>2d</fix>
 <sat>8</sat>
</trkpt>
<trkpt lat="58.781800000" lon="7.319018333">
<time>2014-01-11T12:45:10Z</time>
 <fix>2d</fix>
 <sat>8</sat>
</trkpt>
<trkpt lat="58.781798333" lon="7.318988333">
<time>2014-01-11T12:45:12Z</time>
 <fix>2d</fix>
 <sat>8</sat>
</trkpt>
<trkpt lat="58.781795000" lon="7.318961667">
<time>2014-01-11T12:45:14Z</time>
 <fix>2d</fix>
 <sat>8</sat>
</trkpt>
<trkpt lat="58.781791667" lon="7.318943333">
<time>2014-01-11T12:45:16Z</time>
 <fix>2d</fix>
 <sat>8</sat>
</trkpt>
<trkpt lat="58.781791667" lon="7.318931667">
<time>2014-01-11T12:45:18Z</time>
 <fix>2d</fix>
 <sat>8</sat>
</trkpt>
<trkpt lat="58.781790000" lon="7.318916667">
<time>2014-01-11T12:45:20Z</time>
 <fix>2d</fix>
 <sat>8</sat>
</trkpt>
<trkpt lat="58.781786667" lon="7.318908333">
<time>2014-01-11T12:45:22Z</time>
 <fix>2d</fix>
 <sat>8</sat>
</trkpt>
<trkpt lat="58.781785000" lon="7.318890000">
<time>2014-01-11T12:45:24Z</time>
 <fix>2d</fix>
 <sat>8</sat>
</trkpt>
<trkpt lat="58.781783333" lon="7.318868333">
<time>2014-01-11T12:45:26Z</time>
 <fix>2d</fix>
 <sat>8</sat>
</trkpt>
<trkpt lat="58.781776667" lon="7.318831667">
<time>2014-01-11T12:45:28Z</time>
 <fix>2d</fix>
 <sat>8</sat>
</trkpt>
<trkpt lat="58.781771667" lon="7.318801667">
<time>2014-01-11T12:45:30Z</time>
 <fix>2d</fix>
 <sat>8</sat>
</trkpt>
<trkpt lat="58.781766667" lon="7.318775000">
<time>2014-01-11T12:45:32Z</time>
 <fix>2d</fix>
 <sat>8</sat>
</trkpt>
<trkpt lat="58.781761667" lon="7.318750000">
<time>2014-01-11T12:45:34Z</time>
 <fix>2d</fix>
 <sat>8</sat>
</trkpt>
<trkpt lat="58.781758333" lon="7.318726667">
<time>2014-01-11T12:45:36Z</time>
 <fix>2d</fix>
 <sat>8</sat>
</trkpt>
<trkpt lat="58.781751667" lon="7.318698333">
<time>2014-01-11T12:45:38Z</time>
 <fix>2d</fix>
 <sat>8</sat>
</trkpt>
<trkpt lat="58.781746667" lon="7.318665000">
<time>2014-01-11T12:45:40Z</time>
 <fix>2d</fix>
 <sat>8</sat>
</trkpt>
<trkpt lat="58.781740000" lon="7.318640000">
<time>2014-01-11T12:45:42Z</time>
 <fix>2d</fix>
 <sat>8</sat>
</trkpt>
<trkpt lat="58.781735000" lon="7.318616667">
<time>2014-01-11T12:45:44Z</time>
 <fix>2d</fix>
 <sat>8</sat>
</trkpt>
<trkpt lat="58.781726667" lon="7.318593333">
<time>2014-01-11T12:45:46Z</time>
 <fix>2d</fix>
 <sat>8</sat>
</trkpt>
<trkpt lat="58.781718333" lon="7.318568333">
<time>2014-01-11T12:45:48Z</time>
 <fix>2d</fix>
 <sat>8</sat>
</trkpt>
<trkpt lat="58.781710000" lon="7.318545000">
<time>2014-01-11T12:45:50Z</time>
 <fix>2d</fix>
 <sat>8</sat>
</trkpt>
<trkpt lat="58.781701667" lon="7.318520000">
<time>2014-01-11T12:45:52Z</time>
 <fix>2d</fix>
 <sat>8</sat>
</trkpt>
<trkpt lat="58.781693333" lon="7.318495000">
<time>2014-01-11T12:45:54Z</time>
 <fix>2d</fix>
 <sat>9</sat>
</trkpt>
<trkpt lat="58.781681667" lon="7.318451667">
<time>2014-01-11T12:45:56Z</time>
 <fix>2d</fix>
 <sat>9</sat>
</trkpt>
<trkpt lat="58.781668333" lon="7.318401667">
<time>2014-01-11T12:45:58Z</time>
 <fix>2d</fix>
 <sat>9</sat>
</trkpt>
<trkpt lat="58.781651667" lon="7.318330000">
<time>2014-01-11T12:46:00Z</time>
 <fix>2d</fix>
 <sat>9</sat>
</trkpt>
<trkpt lat="58.781638333" lon="7.318275000">
<time>2014-01-11T12:46:02Z</time>
 <fix>2d</fix>
 <sat>9</sat>
</trkpt>
<trkpt lat="58.781625000" lon="7.318236667">
<time>2014-01-11T12:46:04Z</time>
 <fix>2d</fix>
 <sat>9</sat>
</trkpt>
<trkpt lat="58.781616667" lon="7.318200000">
<time>2014-01-11T12:46:06Z</time>
 <fix>2d</fix>
 <sat>9</sat>
</trkpt>
<trkpt lat="58.781606667" lon="7.318168333">
<time>2014-01-11T12:46:08Z</time>
 <fix>2d</fix>
 <sat>9</sat>
</trkpt>
<trkpt lat="58.781598333" lon="7.318136667">
<time>2014-01-11T12:46:10Z</time>
 <fix>2d</fix>
 <sat>9</sat>
</trkpt>
<trkpt lat="58.781588333" lon="7.318100000">
<time>2014-01-11T12:46:12Z</time>
 <fix>2d</fix>
 <sat>9</sat>
</trkpt>
<trkpt lat="58.781576667" lon="7.318061667">
<time>2014-01-11T12:46:14Z</time>
 <fix>2d</fix>
 <sat>9</sat>
</trkpt>
<trkpt lat="58.781566667" lon="7.318026667">
<time>2014-01-11T12:46:16Z</time>
 <fix>2d</fix>
 <sat>9</sat>
</trkpt>
<trkpt lat="58.781556667" lon="7.317993333">
<time>2014-01-11T12:46:18Z</time>
 <fix>2d</fix>
 <sat>9</sat>
</trkpt>
<trkpt lat="58.781545000" lon="7.317960000">
<time>2014-01-11T12:46:20Z</time>
 <fix>2d</fix>
 <sat>9</sat>
</trkpt>
<trkpt lat="58.781535000" lon="7.317930000">
<time>2014-01-11T12:46:22Z</time>
 <fix>2d</fix>
 <sat>9</sat>
</trkpt>
<trkpt lat="58.781521667" lon="7.317893333">
<time>2014-01-11T12:46:24Z</time>
 <fix>2d</fix>
 <sat>9</sat>
</trkpt>
<trkpt lat="58.781506667" lon="7.317851667">
<time>2014-01-11T12:46:26Z</time>
 <fix>2d</fix>
 <sat>9</sat>
</trkpt>
<trkpt lat="58.781486667" lon="7.317791667">
<time>2014-01-11T12:46:28Z</time>
 <fix>2d</fix>
 <sat>9</sat>
</trkpt>
<trkpt lat="58.781463333" lon="7.317721667">
<time>2014-01-11T12:46:30Z</time>
 <fix>2d</fix>
 <sat>9</sat>
</trkpt>
<trkpt lat="58.781446667" lon="7.317661667">
<time>2014-01-11T12:46:32Z</time>
 <fix>2d</fix>
 <sat>9</sat>
</trkpt>
<trkpt lat="58.781431667" lon="7.317608333">
<time>2014-01-11T12:46:34Z</time>
 <fix>2d</fix>
 <sat>9</sat>
</trkpt>
<trkpt lat="58.781418333" lon="7.317563333">
<time>2014-01-11T12:46:36Z</time>
 <fix>2d</fix>
 <sat>9</sat>
</trkpt>
<trkpt lat="58.781403333" lon="7.317521667">
<time>2014-01-11T12:46:38Z</time>
 <fix>2d</fix>
 <sat>9</sat>
</trkpt>
<trkpt lat="58.781390000" lon="7.317480000">
<time>2014-01-11T12:46:40Z</time>
 <fix>2d</fix>
 <sat>9</sat>
</trkpt>
<trkpt lat="58.781378333" lon="7.317436667">
<time>2014-01-11T12:46:42Z</time>
 <fix>2d</fix>
 <sat>9</sat>
</trkpt>
<trkpt lat="58.781365000" lon="7.317393333">
<time>2014-01-11T12:46:44Z</time>
 <fix>2d</fix>
 <sat>8</sat>
</trkpt>
<trkpt lat="58.781348333" lon="7.317338333">
<time>2014-01-11T12:46:46Z</time>
 <fix>2d</fix>
 <sat>8</sat>
</trkpt>
<trkpt lat="58.781331667" lon="7.317273333">
<time>2014-01-11T12:46:48Z</time>
 <fix>2d</fix>
 <sat>8</sat>
</trkpt>
<trkpt lat="58.781311667" lon="7.317191667">
<time>2014-01-11T12:46:50Z</time>
 <fix>2d</fix>
 <sat>9</sat>
</trkpt>
<trkpt lat="58.781288333" lon="7.317095000">
<time>2014-01-11T12:46:52Z</time>
 <fix>2d</fix>
 <sat>9</sat>
</trkpt>
<trkpt lat="58.781268333" lon="7.317013333">
<time>2014-01-11T12:46:54Z</time>
 <fix>2d</fix>
 <sat>9</sat>
</trkpt>
<trkpt lat="58.781253333" lon="7.316950000">
<time>2014-01-11T12:46:56Z</time>
 <fix>2d</fix>
 <sat>9</sat>
</trkpt>
<trkpt lat="58.781238333" lon="7.316886667">
<time>2014-01-11T12:46:58Z</time>
 <fix>2d</fix>
 <sat>9</sat>
</trkpt>
<trkpt lat="58.781220000" lon="7.316810000">
<time>2014-01-11T12:47:00Z</time>
 <fix>2d</fix>
 <sat>9</sat>
</trkpt>
<trkpt lat="58.781205000" lon="7.316733333">
<time>2014-01-11T12:47:02Z</time>
 <fix>2d</fix>
 <sat>9</sat>
</trkpt>
<trkpt lat="58.781191667" lon="7.316666667">
<time>2014-01-11T12:47:04Z</time>
 <fix>2d</fix>
 <sat>9</sat>
</trkpt>
<trkpt lat="58.781183333" lon="7.316620000">
<time>2014-01-11T12:47:06Z</time>
 <fix>2d</fix>
 <sat>9</sat>
</trkpt>
<trkpt lat="58.781175000" lon="7.316568333">
<time>2014-01-11T12:47:08Z</time>
 <fix>2d</fix>
 <sat>10</sat>
</trkpt>
<trkpt lat="58.781168333" lon="7.316518333">
<time>2014-01-11T12:47:10Z</time>
 <fix>2d</fix>
 <sat>10</sat>
</trkpt>
<trkpt lat="58.781160000" lon="7.316471667">
<time>2014-01-11T12:47:12Z</time>
 <fix>2d</fix>
 <sat>10</sat>
</trkpt>
<trkpt lat="58.781158333" lon="7.316445000">
<time>2014-01-11T12:47:14Z</time>
 <fix>2d</fix>
 <sat>10</sat>
</trkpt>
<trkpt lat="58.781156667" lon="7.316401667">
<time>2014-01-11T12:47:16Z</time>
 <fix>2d</fix>
 <sat>10</sat>
</trkpt>
<trkpt lat="58.781153333" lon="7.316348333">
<time>2014-01-11T12:47:18Z</time>
 <fix>2d</fix>
 <sat>10</sat>
</trkpt>
<trkpt lat="58.781145000" lon="7.316293333">
<time>2014-01-11T12:47:20Z</time>
 <fix>2d</fix>
 <sat>10</sat>
</trkpt>
<trkpt lat="58.781140000" lon="7.316230000">
<time>2014-01-11T12:47:22Z</time>
 <fix>2d</fix>
 <sat>10</sat>
</trkpt>
<trkpt lat="58.781131667" lon="7.316146667">
<time>2014-01-11T12:47:24Z</time>
 <fix>2d</fix>
 <sat>10</sat>
</trkpt>
<trkpt lat="58.781123333" lon="7.316056667">
<time>2014-01-11T12:47:26Z</time>
 <fix>2d</fix>
 <sat>10</sat>
</trkpt>
<trkpt lat="58.781116667" lon="7.315968333">
<time>2014-01-11T12:47:28Z</time>
 <fix>2d</fix>
 <sat>10</sat>
</trkpt>
<trkpt lat="58.781110000" lon="7.315886667">
<time>2014-01-11T12:47:30Z</time>
 <fix>2d</fix>
 <sat>10</sat>
</trkpt>
<trkpt lat="58.781101667" lon="7.315803333">
<time>2014-01-11T12:47:32Z</time>
 <fix>2d</fix>
 <sat>9</sat>
</trkpt>
<trkpt lat="58.781096667" lon="7.315731667">
<time>2014-01-11T12:47:34Z</time>
 <fix>2d</fix>
 <sat>8</sat>
</trkpt>
<trkpt lat="58.781093333" lon="7.315678333">
<time>2014-01-11T12:47:36Z</time>
 <fix>2d</fix>
 <sat>9</sat>
</trkpt>
<trkpt lat="58.781088333" lon="7.315630000">
<time>2014-01-11T12:47:38Z</time>
 <fix>2d</fix>
 <sat>9</sat>
</trkpt>
<trkpt lat="58.781086667" lon="7.315583333">
<time>2014-01-11T12:47:40Z</time>
 <fix>2d</fix>
 <sat>9</sat>
</trkpt>
<trkpt lat="58.781083333" lon="7.315536667">
<time>2014-01-11T12:47:42Z</time>
 <fix>2d</fix>
 <sat>9</sat>
</trkpt>
<trkpt lat="58.781076667" lon="7.315476667">
<time>2014-01-11T12:47:44Z</time>
 <fix>2d</fix>
 <sat>9</sat>
</trkpt>
<trkpt lat="58.781068333" lon="7.315396667">
<time>2014-01-11T12:47:46Z</time>
 <fix>2d</fix>
 <sat>9</sat>
</trkpt>
<trkpt lat="58.781055000" lon="7.315291667">
<time>2014-01-11T12:47:48Z</time>
 <fix>2d</fix>
 <sat>10</sat>
</trkpt>
<trkpt lat="58.781041667" lon="7.315180000">
<time>2014-01-11T12:47:50Z</time>
 <fix>2d</fix>
 <sat>10</sat>
</trkpt>
<trkpt lat="58.781033333" lon="7.315105000">
<time>2014-01-11T12:47:52Z</time>
 <fix>2d</fix>
 <sat>10</sat>
</trkpt>
<trkpt lat="58.781026667" lon="7.315051667">
<time>2014-01-11T12:47:54Z</time>
 <fix>2d</fix>
 <sat>10</sat>
</trkpt>
<trkpt lat="58.781018333" lon="7.314991667">
<time>2014-01-11T12:47:56Z</time>
 <fix>2d</fix>
 <sat>10</sat>
</trkpt>
<trkpt lat="58.781013333" lon="7.314941667">
<time>2014-01-11T12:47:58Z</time>
 <fix>2d</fix>
 <sat>10</sat>
</trkpt>
<trkpt lat="58.781010000" lon="7.314900000">
<time>2014-01-11T12:48:00Z</time>
 <fix>2d</fix>
 <sat>10</sat>
</trkpt>
<trkpt lat="58.781006667" lon="7.314861667">
<time>2014-01-11T12:48:02Z</time>
 <fix>2d</fix>
 <sat>10</sat>
</trkpt>
<trkpt lat="58.781005000" lon="7.314826667">
<time>2014-01-11T12:48:04Z</time>
 <fix>2d</fix>
 <sat>10</sat>
</trkpt>
<trkpt lat="58.781001667" lon="7.314775000">
<time>2014-01-11T12:48:06Z</time>
 <fix>2d</fix>
 <sat>10</sat>
</trkpt>
<trkpt lat="58.780998333" lon="7.314711667">
<time>2014-01-11T12:48:08Z</time>
 <fix>2d</fix>
 <sat>10</sat>
</trkpt>
<trkpt lat="58.780998333" lon="7.314641667">
<time>2014-01-11T12:48:10Z</time>
 <fix>2d</fix>
 <sat>10</sat>
</trkpt>
<trkpt lat="58.780998333" lon="7.314568333">
<time>2014-01-11T12:48:12Z</time>
 <fix>2d</fix>
 <sat>10</sat>
</trkpt>
<trkpt lat="58.780998333" lon="7.314496667">
<time>2014-01-11T12:48:14Z</time>
 <fix>2d</fix>
 <sat>10</sat>
</trkpt>
<trkpt lat="58.780998333" lon="7.314430000">
<time>2014-01-11T12:48:16Z</time>
 <fix>2d</fix>
 <sat>10</sat>
</trkpt>
<trkpt lat="58.780998333" lon="7.314376667">
<time>2014-01-11T12:48:18Z</time>
 <fix>2d</fix>
 <sat>9</sat>
</trkpt>
<trkpt lat="58.781000000" lon="7.314336667">
<time>2014-01-11T12:48:20Z</time>
 <fix>2d</fix>
 <sat>9</sat>
</trkpt>
<trkpt lat="58.781001667" lon="7.314303333">
<time>2014-01-11T12:48:22Z</time>
 <fix>2d</fix>
 <sat>9</sat>
</trkpt>
<trkpt lat="58.781001667" lon="7.314273333">
<time>2014-01-11T12:48:24Z</time>
 <fix>2d</fix>
 <sat>9</sat>
</trkpt>
<trkpt lat="58.781001667" lon="7.314255000">
<time>2014-01-11T12:48:26Z</time>
 <fix>2d</fix>
 <sat>9</sat>
</trkpt>
<trkpt lat="58.781003333" lon="7.314250000">
<time>2014-01-11T12:48:28Z</time>
 <fix>2d</fix>
 <sat>10</sat>
</trkpt>
<trkpt lat="58.780998333" lon="7.314251667">
<time>2014-01-11T12:48:30Z</time>
 <fix>2d</fix>
 <sat>10</sat>
</trkpt>
<trkpt lat="58.780998333" lon="7.314253333">
<time>2014-01-11T12:48:32Z</time>
 <fix>2d</fix>
 <sat>10</sat>
</trkpt>
<trkpt lat="58.780998333" lon="7.314255000">
<time>2014-01-11T12:48:34Z</time>
 <fix>2d</fix>
 <sat>10</sat>
</trkpt>
<trkpt lat="58.780998333" lon="7.314255000">
<time>2014-01-11T12:48:36Z</time>
 <fix>2d</fix>
 <sat>9</sat>
</trkpt>
<trkpt lat="58.780998333" lon="7.314255000">
<time>2014-01-11T12:48:38Z</time>
 <fix>2d</fix>
 <sat>9</sat>
</trkpt>
<trkpt lat="58.780996667" lon="7.314255000">
<time>2014-01-11T12:48:40Z</time>
 <fix>2d</fix>
 <sat>9</sat>
</trkpt>
<trkpt lat="58.780996667" lon="7.314258333">
<time>2014-01-11T12:48:42Z</time>
 <fix>2d</fix>
 <sat>9</sat>
</trkpt>
<trkpt lat="58.780996667" lon="7.314260000">
<time>2014-01-11T12:48:44Z</time>
 <fix>2d</fix>
 <sat>9</sat>
</trkpt>
<trkpt lat="58.780996667" lon="7.314260000">
<time>2014-01-11T12:48:46Z</time>
 <fix>2d</fix>
 <sat>9</sat>
</trkpt>
<trkpt lat="58.780996667" lon="7.314260000">
<time>2014-01-11T12:48:48Z</time>
 <fix>2d</fix>
 <sat>10</sat>
</trkpt>
<trkpt lat="58.780996667" lon="7.314260000">
<time>2014-01-11T12:48:50Z</time>
 <fix>2d</fix>
 <sat>9</sat>
</trkpt>
<trkpt lat="58.780996667" lon="7.314260000">
<time>2014-01-11T12:48:52Z</time>
 <fix>2d</fix>
 <sat>9</sat>
</trkpt>
<trkpt lat="58.780996667" lon="7.314260000">
<time>2014-01-11T12:48:54Z</time>
 <fix>2d</fix>
 <sat>9</sat>
</trkpt>
<trkpt lat="58.780996667" lon="7.314263333">
<time>2014-01-11T12:48:56Z</time>
 <fix>2d</fix>
 <sat>8</sat>
</trkpt>
<trkpt lat="58.780996667" lon="7.314265000">
<time>2014-01-11T12:48:58Z</time>
 <fix>2d</fix>
 <sat>9</sat>
</trkpt>
<trkpt lat="58.780998333" lon="7.314265000">
<time>2014-01-11T12:49:00Z</time>
 <fix>2d</fix>
 <sat>10</sat>
</trkpt>
<trkpt lat="58.780998333" lon="7.314265000">
<time>2014-01-11T12:49:02Z</time>
 <fix>2d</fix>
 <sat>10</sat>
</trkpt>
<trkpt lat="58.781000000" lon="7.314265000">
<time>2014-01-11T12:49:04Z</time>
 <fix>2d</fix>
 <sat>10</sat>
</trkpt>
<trkpt lat="58.781000000" lon="7.314263333">
<time>2014-01-11T12:49:06Z</time>
 <fix>2d</fix>
 <sat>10</sat>
</trkpt>
<trkpt lat="58.781000000" lon="7.314265000">
<time>2014-01-11T12:49:08Z</time>
 <fix>2d</fix>
 <sat>9</sat>
</trkpt>
<trkpt lat="58.781000000" lon="7.314266667">
<time>2014-01-11T12:49:10Z</time>
 <fix>2d</fix>
 <sat>9</sat>
</trkpt>
<trkpt lat="58.781000000" lon="7.314268333">
<time>2014-01-11T12:49:12Z</time>
 <fix>2d</fix>
 <sat>9</sat>
</trkpt>
<trkpt lat="58.781000000" lon="7.314266667">
<time>2014-01-11T12:49:14Z</time>
 <fix>2d</fix>
 <sat>9</sat>
</trkpt>
<trkpt lat="58.781000000" lon="7.314266667">
<time>2014-01-11T12:49:16Z</time>
 <fix>2d</fix>
 <sat>9</sat>
</trkpt>
<trkpt lat="58.781000000" lon="7.314266667">
<time>2014-01-11T12:49:18Z</time>
 <fix>2d</fix>
 <sat>10</sat>
</trkpt>
<trkpt lat="58.781000000" lon="7.314270000">
<time>2014-01-11T12:49:20Z</time>
 <fix>2d</fix>
 <sat>10</sat>
</trkpt>
<trkpt lat="58.781001667" lon="7.314266667">
<time>2014-01-11T12:49:22Z</time>
 <fix>2d</fix>
 <sat>10</sat>
</trkpt>
<trkpt lat="58.781001667" lon="7.314266667">
<time>2014-01-11T12:49:24Z</time>
 <fix>2d</fix>
 <sat>9</sat>
</trkpt>
<trkpt lat="58.781001667" lon="7.314268333">
<time>2014-01-11T12:49:26Z</time>
 <fix>2d</fix>
 <sat>9</sat>
</trkpt>
<trkpt lat="58.781000000" lon="7.314268333">
<time>2014-01-11T12:49:28Z</time>
 <fix>2d</fix>
 <sat>9</sat>
</trkpt>
<trkpt lat="58.781000000" lon="7.314268333">
<time>2014-01-11T12:49:30Z</time>
 <fix>2d</fix>
 <sat>9</sat>
</trkpt>
<trkpt lat="58.781000000" lon="7.314266667">
<time>2014-01-11T12:49:32Z</time>
 <fix>2d</fix>
 <sat>9</sat>
</trkpt>
<trkpt lat="58.780998333" lon="7.314261667">
<time>2014-01-11T12:49:34Z</time>
 <fix>2d</fix>
 <sat>9</sat>
</trkpt>
<trkpt lat="58.781000000" lon="7.314255000">
<time>2014-01-11T12:49:36Z</time>
 <fix>2d</fix>
 <sat>9</sat>
</trkpt>
<trkpt lat="58.780998333" lon="7.314251667">
<time>2014-01-11T12:49:38Z</time>
 <fix>2d</fix>
 <sat>9</sat>
</trkpt>
<trkpt lat="58.781003333" lon="7.314228333">
<time>2014-01-11T12:49:40Z</time>
 <fix>2d</fix>
 <sat>9</sat>
</trkpt>
<trkpt lat="58.781013333" lon="7.314171667">
<time>2014-01-11T12:49:42Z</time>
 <fix>2d</fix>
 <sat>9</sat>
</trkpt>
<trkpt lat="58.781035000" lon="7.314080000">
<time>2014-01-11T12:49:44Z</time>
 <fix>2d</fix>
 <sat>9</sat>
</trkpt>
<trkpt lat="58.781061667" lon="7.313973333">
<time>2014-01-11T12:49:46Z</time>
 <fix>2d</fix>
 <sat>9</sat>
</trkpt>
<trkpt lat="58.781088333" lon="7.313895000">
<time>2014-01-11T12:49:48Z</time>
 <fix>2d</fix>
 <sat>9</sat>
</trkpt>
<trkpt lat="58.781106667" lon="7.313853333">
<time>2014-01-11T12:49:50Z</time>
 <fix>2d</fix>
 <sat>9</sat>
</trkpt>
<trkpt lat="58.781120000" lon="7.313820000">
<time>2014-01-11T12:49:52Z</time>
 <fix>2d</fix>
 <sat>9</sat>
</trkpt>
<trkpt lat="58.781135000" lon="7.313793333">
<time>2014-01-11T12:49:54Z</time>
 <fix>2d</fix>
 <sat>9</sat>
</trkpt>
<trkpt lat="58.781146667" lon="7.313770000">
<time>2014-01-11T12:49:56Z</time>
 <fix>2d</fix>
 <sat>9</sat>
</trkpt>
<trkpt lat="58.781160000" lon="7.313743333">
<time>2014-01-11T12:49:58Z</time>
 <fix>2d</fix>
 <sat>9</sat>
</trkpt>
<trkpt lat="58.781176667" lon="7.313711667">
<time>2014-01-11T12:50:00Z</time>
 <fix>2d</fix>
 <sat>9</sat>
</trkpt>
<trkpt lat="58.781195000" lon="7.313676667">
<time>2014-01-11T12:50:02Z</time>
 <fix>2d</fix>
 <sat>9</sat>
</trkpt>
<trkpt lat="58.781213333" lon="7.313640000">
<time>2014-01-11T12:50:04Z</time>
 <fix>2d</fix>
 <sat>9</sat>
</trkpt>
<trkpt lat="58.781231667" lon="7.313605000">
<time>2014-01-11T12:50:06Z</time>
 <fix>2d</fix>
 <sat>9</sat>
</trkpt>
<trkpt lat="58.781251667" lon="7.313561667">
<time>2014-01-11T12:50:08Z</time>
 <fix>2d</fix>
 <sat>9</sat>
</trkpt>
<trkpt lat="58.781273333" lon="7.313518333">
<time>2014-01-11T12:50:10Z</time>
 <fix>2d</fix>
 <sat>9</sat>
</trkpt>
<trkpt lat="58.781291667" lon="7.313483333">
<time>2014-01-11T12:50:12Z</time>
 <fix>2d</fix>
 <sat>9</sat>
</trkpt>
<trkpt lat="58.781305000" lon="7.313453333">
<time>2014-01-11T12:50:14Z</time>
 <fix>2d</fix>
 <sat>9</sat>
</trkpt>
<trkpt lat="58.781320000" lon="7.313421667">
<time>2014-01-11T12:50:16Z</time>
 <fix>2d</fix>
 <sat>9</sat>
</trkpt>
<trkpt lat="58.781331667" lon="7.313400000">
<time>2014-01-11T12:50:18Z</time>
 <fix>2d</fix>
 <sat>9</sat>
</trkpt>
<trkpt lat="58.781341667" lon="7.313381667">
<time>2014-01-11T12:50:20Z</time>
 <fix>2d</fix>
 <sat>9</sat>
</trkpt>
<trkpt lat="58.781348333" lon="7.313366667">
<time>2014-01-11T12:50:22Z</time>
 <fix>2d</fix>
 <sat>9</sat>
</trkpt>
<trkpt lat="58.781358333" lon="7.313343333">
<time>2014-01-11T12:50:24Z</time>
 <fix>2d</fix>
 <sat>9</sat>
</trkpt>
<trkpt lat="58.781370000" lon="7.313321667">
<time>2014-01-11T12:50:26Z</time>
 <fix>2d</fix>
 <sat>9</sat>
</trkpt>
<trkpt lat="58.781383333" lon="7.313296667">
<time>2014-01-11T12:50:28Z</time>
 <fix>2d</fix>
 <sat>9</sat>
</trkpt>
<trkpt lat="58.781393333" lon="7.313275000">
<time>2014-01-11T12:50:30Z</time>
 <fix>2d</fix>
 <sat>9</sat>
</trkpt>
<trkpt lat="58.781405000" lon="7.313255000">
<time>2014-01-11T12:50:32Z</time>
 <fix>2d</fix>
 <sat>9</sat>
</trkpt>
<trkpt lat="58.781416667" lon="7.313235000">
<time>2014-01-11T12:50:34Z</time>
 <fix>2d</fix>
 <sat>9</sat>
</trkpt>
<trkpt lat="58.781428333" lon="7.313213333">
<time>2014-01-11T12:50:36Z</time>
 <fix>2d</fix>
 <sat>9</sat>
</trkpt>
<trkpt lat="58.781445000" lon="7.313188333">
<time>2014-01-11T12:50:38Z</time>
 <fix>2d</fix>
 <sat>9</sat>
</trkpt>
<trkpt lat="58.781468333" lon="7.313151667">
<time>2014-01-11T12:50:40Z</time>
 <fix>2d</fix>
 <sat>9</sat>
</trkpt>
<trkpt lat="58.781493333" lon="7.313113333">
<time>2014-01-11T12:50:42Z</time>
 <fix>2d</fix>
 <sat>9</sat>
</trkpt>
<trkpt lat="58.781513333" lon="7.313085000">
<time>2014-01-11T12:50:44Z</time>
 <fix>2d</fix>
 <sat>10</sat>
</trkpt>
<trkpt lat="58.781531667" lon="7.313055000">
<time>2014-01-11T12:50:46Z</time>
 <fix>2d</fix>
 <sat>10</sat>
</trkpt>
<trkpt lat="58.781550000" lon="7.313025000">
<time>2014-01-11T12:50:48Z</time>
 <fix>2d</fix>
 <sat>10</sat>
</trkpt>
<trkpt lat="58.781566667" lon="7.312990000">
<time>2014-01-11T12:50:50Z</time>
 <fix>2d</fix>
 <sat>9</sat>
</trkpt>
<trkpt lat="58.781580000" lon="7.312946667">
<time>2014-01-11T12:50:52Z</time>
 <fix>2d</fix>
 <sat>9</sat>
</trkpt>
<trkpt lat="58.781590000" lon="7.312900000">
<time>2014-01-11T12:50:54Z</time>
 <fix>2d</fix>
 <sat>9</sat>
</trkpt>
<trkpt lat="58.781596667" lon="7.312848333">
<time>2014-01-11T12:50:56Z</time>
 <fix>2d</fix>
 <sat>9</sat>
</trkpt>
<trkpt lat="58.781598333" lon="7.312798333">
<time>2014-01-11T12:50:58Z</time>
 <fix>2d</fix>
 <sat>10</sat>
</trkpt>
<trkpt lat="58.781595000" lon="7.312756667">
<time>2014-01-11T12:51:00Z</time>
 <fix>2d</fix>
 <sat>10</sat>
</trkpt>
<trkpt lat="58.781591667" lon="7.312721667">
<time>2014-01-11T12:51:02Z</time>
 <fix>2d</fix>
 <sat>10</sat>
</trkpt>
<trkpt lat="58.781590000" lon="7.312698333">
<time>2014-01-11T12:51:04Z</time>
 <fix>2d</fix>
 <sat>10</sat>
</trkpt>
<trkpt lat="58.781588333" lon="7.312696667">
<time>2014-01-11T12:51:06Z</time>
 <fix>2d</fix>
 <sat>10</sat>
</trkpt>
<trkpt lat="58.781586667" lon="7.312698333">
<time>2014-01-11T12:51:08Z</time>
 <fix>2d</fix>
 <sat>10</sat>
</trkpt>
<trkpt lat="58.781586667" lon="7.312701667">
<time>2014-01-11T12:51:10Z</time>
 <fix>2d</fix>
 <sat>10</sat>
</trkpt>
<trkpt lat="58.781586667" lon="7.312703333">
<time>2014-01-11T12:51:12Z</time>
 <fix>2d</fix>
 <sat>10</sat>
</trkpt>
<trkpt lat="58.781588333" lon="7.312706667">
<time>2014-01-11T12:51:14Z</time>
 <fix>2d</fix>
 <sat>10</sat>
</trkpt>
<trkpt lat="58.781588333" lon="7.312706667">
<time>2014-01-11T12:51:16Z</time>
 <fix>2d</fix>
 <sat>10</sat>
</trkpt>
<trkpt lat="58.781588333" lon="7.312703333">
<time>2014-01-11T12:51:18Z</time>
 <fix>2d</fix>
 <sat>10</sat>
</trkpt>
<trkpt lat="58.781588333" lon="7.312708333">
<time>2014-01-11T12:51:20Z</time>
 <fix>2d</fix>
 <sat>10</sat>
</trkpt>
<trkpt lat="58.781585000" lon="7.312710000">
<time>2014-01-11T12:51:22Z</time>
 <fix>2d</fix>
 <sat>10</sat>
</trkpt>
<trkpt lat="58.781586667" lon="7.312711667">
<time>2014-01-11T12:51:24Z</time>
 <fix>2d</fix>
 <sat>10</sat>
</trkpt>
<trkpt lat="58.781585000" lon="7.312703333">
<time>2014-01-11T12:51:26Z</time>
 <fix>2d</fix>
 <sat>10</sat>
</trkpt>
<trkpt lat="58.781581667" lon="7.312683333">
<time>2014-01-11T12:51:28Z</time>
 <fix>2d</fix>
 <sat>10</sat>
</trkpt>
<trkpt lat="58.781573333" lon="7.312638333">
<time>2014-01-11T12:51:30Z</time>
 <fix>2d</fix>
 <sat>10</sat>
</trkpt>
<trkpt lat="58.781551667" lon="7.312535000">
<time>2014-01-11T12:51:32Z</time>
 <fix>2d</fix>
 <sat>9</sat>
</trkpt>
<trkpt lat="58.781520000" lon="7.312386667">
<time>2014-01-11T12:51:34Z</time>
 <fix>2d</fix>
 <sat>9</sat>
</trkpt>
<trkpt lat="58.781503333" lon="7.312231667">
<time>2014-01-11T12:51:36Z</time>
 <fix>2d</fix>
 <sat>9</sat>
</trkpt>
<trkpt lat="58.781503333" lon="7.312090000">
<time>2014-01-11T12:51:38Z</time>
 <fix>2d</fix>
 <sat>9</sat>
</trkpt>
<trkpt lat="58.781535000" lon="7.311906667">
<time>2014-01-11T12:51:40Z</time>
 <fix>2d</fix>
 <sat>9</sat>
</trkpt>
<trkpt lat="58.781573333" lon="7.311701667">
<time>2014-01-11T12:51:42Z</time>
 <fix>2d</fix>
 <sat>9</sat>
</trkpt>
<trkpt lat="58.781595000" lon="7.311553333">
<time>2014-01-11T12:51:44Z</time>
 <fix>2d</fix>
 <sat>9</sat>
</trkpt>
<trkpt lat="58.781601667" lon="7.311456667">
<time>2014-01-11T12:51:46Z</time>
 <fix>2d</fix>
 <sat>10</sat>
</trkpt>
<trkpt lat="58.781606667" lon="7.311376667">
<time>2014-01-11T12:51:48Z</time>
 <fix>2d</fix>
 <sat>9</sat>
</trkpt>
<trkpt lat="58.781621667" lon="7.311295000">
<time>2014-01-11T12:51:50Z</time>
 <fix>2d</fix>
 <sat>8</sat>
</trkpt>
<trkpt lat="58.781656667" lon="7.311221667">
<time>2014-01-11T12:51:52Z</time>
 <fix>2d</fix>
 <sat>8</sat>
</trkpt>
<trkpt lat="58.781693333" lon="7.311193333">
<time>2014-01-11T12:51:54Z</time>
 <fix>2d</fix>
 <sat>8</sat>
</trkpt>
<trkpt lat="58.781720000" lon="7.311186667">
<time>2014-01-11T12:51:56Z</time>
 <fix>2d</fix>
 <sat>8</sat>
</trkpt>
<trkpt lat="58.781736667" lon="7.311190000">
<time>2014-01-11T12:51:58Z</time>
 <fix>2d</fix>
 <sat>8</sat>
</trkpt>
<trkpt lat="58.781743333" lon="7.311193333">
<time>2014-01-11T12:52:00Z</time>
 <fix>2d</fix>
 <sat>8</sat>
</trkpt>
<trkpt lat="58.781748333" lon="7.311196667">
<time>2014-01-11T12:52:02Z</time>
 <fix>2d</fix>
 <sat>8</sat>
</trkpt>
<trkpt lat="58.781755000" lon="7.311200000">
<time>2014-01-11T12:52:04Z</time>
 <fix>2d</fix>
 <sat>8</sat>
</trkpt>
<trkpt lat="58.781763333" lon="7.311205000">
<time>2014-01-11T12:52:06Z</time>
 <fix>2d</fix>
 <sat>9</sat>
</trkpt>
<trkpt lat="58.781771667" lon="7.311208333">
<time>2014-01-11T12:52:08Z</time>
 <fix>2d</fix>
 <sat>8</sat>
</trkpt>
<trkpt lat="58.781783333" lon="7.311213333">
<time>2014-01-11T12:52:10Z</time>
 <fix>2d</fix>
 <sat>9</sat>
</trkpt>
<trkpt lat="58.781795000" lon="7.311220000">
<time>2014-01-11T12:52:12Z</time>
 <fix>2d</fix>
 <sat>9</sat>
</trkpt>
<trkpt lat="58.781806667" lon="7.311226667">
<time>2014-01-11T12:52:14Z</time>
 <fix>2d</fix>
 <sat>9</sat>
</trkpt>
<trkpt lat="58.781820000" lon="7.311235000">
<time>2014-01-11T12:52:16Z</time>
 <fix>2d</fix>
 <sat>9</sat>
</trkpt>
<trkpt lat="58.781830000" lon="7.311240000">
<time>2014-01-11T12:52:18Z</time>
 <fix>2d</fix>
 <sat>9</sat>
</trkpt>
<trkpt lat="58.781835000" lon="7.311245000">
<time>2014-01-11T12:52:20Z</time>
 <fix>2d</fix>
 <sat>9</sat>
</trkpt>
<trkpt lat="58.781841667" lon="7.311250000">
<time>2014-01-11T12:52:22Z</time>
 <fix>2d</fix>
 <sat>9</sat>
</trkpt>
<trkpt lat="58.781858333" lon="7.311260000">
<time>2014-01-11T12:52:24Z</time>
 <fix>2d</fix>
 <sat>9</sat>
</trkpt>
<trkpt lat="58.781876667" lon="7.311270000">
<time>2014-01-11T12:52:26Z</time>
 <fix>2d</fix>
 <sat>9</sat>
</trkpt>
<trkpt lat="58.781900000" lon="7.311283333">
<time>2014-01-11T12:52:28Z</time>
 <fix>2d</fix>
 <sat>9</sat>
</trkpt>
<trkpt lat="58.781930000" lon="7.311300000">
<time>2014-01-11T12:52:30Z</time>
 <fix>2d</fix>
 <sat>8</sat>
</trkpt>
<trkpt lat="58.781961667" lon="7.311315000">
<time>2014-01-11T12:52:32Z</time>
 <fix>2d</fix>
 <sat>8</sat>
</trkpt>
<trkpt lat="58.781983333" lon="7.311328333">
<time>2014-01-11T12:52:34Z</time>
 <fix>2d</fix>
 <sat>9</sat>
</trkpt>
<trkpt lat="58.781988333" lon="7.311328333">
<time>2014-01-11T12:52:36Z</time>
 <fix>2d</fix>
 <sat>9</sat>
</trkpt>
<trkpt lat="58.781995000" lon="7.311320000">
<time>2014-01-11T12:52:38Z</time>
 <fix>2d</fix>
 <sat>8</sat>
</trkpt>
<trkpt lat="58.782003333" lon="7.311311667">
<time>2014-01-11T12:52:40Z</time>
 <fix>2d</fix>
 <sat>8</sat>
</trkpt>
<trkpt lat="58.782010000" lon="7.311308333">
<time>2014-01-11T12:52:42Z</time>
 <fix>2d</fix>
 <sat>8</sat>
</trkpt>
<trkpt lat="58.782018333" lon="7.311305000">
<time>2014-01-11T12:52:44Z</time>
 <fix>2d</fix>
 <sat>9</sat>
</trkpt>
<trkpt lat="58.782026667" lon="7.311301667">
<time>2014-01-11T12:52:46Z</time>
 <fix>2d</fix>
 <sat>9</sat>
</trkpt>
<trkpt lat="58.782035000" lon="7.311301667">
<time>2014-01-11T12:52:48Z</time>
 <fix>2d</fix>
 <sat>8</sat>
</trkpt>
<trkpt lat="58.782048333" lon="7.311296667">
<time>2014-01-11T12:52:50Z</time>
 <fix>2d</fix>
 <sat>8</sat>
</trkpt>
<trkpt lat="58.782063333" lon="7.311296667">
<time>2014-01-11T12:52:52Z</time>
 <fix>2d</fix>
 <sat>8</sat>
</trkpt>
<trkpt lat="58.782075000" lon="7.311293333">
<time>2014-01-11T12:52:54Z</time>
 <fix>2d</fix>
 <sat>8</sat>
</trkpt>
<trkpt lat="58.782085000" lon="7.311283333">
<time>2014-01-11T12:52:56Z</time>
 <fix>2d</fix>
 <sat>8</sat>
</trkpt>
<trkpt lat="58.782095000" lon="7.311271667">
<time>2014-01-11T12:52:58Z</time>
 <fix>2d</fix>
 <sat>8</sat>
</trkpt>
<trkpt lat="58.782110000" lon="7.311260000">
<time>2014-01-11T12:53:00Z</time>
 <fix>2d</fix>
 <sat>9</sat>
</trkpt>
<trkpt lat="58.782126667" lon="7.311231667">
<time>2014-01-11T12:53:02Z</time>
 <fix>2d</fix>
 <sat>9</sat>
</trkpt>
<trkpt lat="58.782145000" lon="7.311195000">
<time>2014-01-11T12:53:04Z</time>
 <fix>2d</fix>
 <sat>9</sat>
</trkpt>
<trkpt lat="58.782160000" lon="7.311151667">
<time>2014-01-11T12:53:06Z</time>
 <fix>2d</fix>
 <sat>9</sat>
</trkpt>
<trkpt lat="58.782173333" lon="7.311108333">
<time>2014-01-11T12:53:08Z</time>
 <fix>2d</fix>
 <sat>9</sat>
</trkpt>
<trkpt lat="58.782180000" lon="7.311066667">
<time>2014-01-11T12:53:10Z</time>
 <fix>2d</fix>
 <sat>9</sat>
</trkpt>
<trkpt lat="58.782185000" lon="7.311030000">
<time>2014-01-11T12:53:12Z</time>
 <fix>2d</fix>
 <sat>9</sat>
</trkpt>
<trkpt lat="58.782185000" lon="7.310993333">
<time>2014-01-11T12:53:14Z</time>
 <fix>2d</fix>
 <sat>9</sat>
</trkpt>
<trkpt lat="58.782186667" lon="7.310953333">
<time>2014-01-11T12:53:16Z</time>
 <fix>2d</fix>
 <sat>9</sat>
</trkpt>
<trkpt lat="58.782186667" lon="7.310908333">
<time>2014-01-11T12:53:18Z</time>
 <fix>2d</fix>
 <sat>9</sat>
</trkpt>
<trkpt lat="58.782186667" lon="7.310865000">
<time>2014-01-11T12:53:20Z</time>
 <fix>2d</fix>
 <sat>9</sat>
</trkpt>
<trkpt lat="58.782188333" lon="7.310815000">
<time>2014-01-11T12:53:22Z</time>
 <fix>2d</fix>
 <sat>9</sat>
</trkpt>
<trkpt lat="58.782193333" lon="7.310760000">
<time>2014-01-11T12:53:24Z</time>
 <fix>2d</fix>
 <sat>9</sat>
</trkpt>
<trkpt lat="58.782198333" lon="7.310715000">
<time>2014-01-11T12:53:26Z</time>
 <fix>2d</fix>
 <sat>9</sat>
</trkpt>
<trkpt lat="58.782205000" lon="7.310673333">
<time>2014-01-11T12:53:28Z</time>
 <fix>2d</fix>
 <sat>9</sat>
</trkpt>
<trkpt lat="58.782215000" lon="7.310636667">
<time>2014-01-11T12:53:30Z</time>
 <fix>2d</fix>
 <sat>9</sat>
</trkpt>
<trkpt lat="58.782226667" lon="7.310605000">
<time>2014-01-11T12:53:32Z</time>
 <fix>2d</fix>
 <sat>9</sat>
</trkpt>
<trkpt lat="58.782238333" lon="7.310570000">
<time>2014-01-11T12:53:34Z</time>
 <fix>2d</fix>
 <sat>9</sat>
</trkpt>
<trkpt lat="58.782248333" lon="7.310533333">
<time>2014-01-11T12:53:36Z</time>
 <fix>2d</fix>
 <sat>9</sat>
</trkpt>
<trkpt lat="58.782266667" lon="7.310478333">
<time>2014-01-11T12:53:38Z</time>
 <fix>2d</fix>
 <sat>9</sat>
</trkpt>
<trkpt lat="58.782296667" lon="7.310405000">
<time>2014-01-11T12:53:40Z</time>
 <fix>2d</fix>
 <sat>9</sat>
</trkpt>
<trkpt lat="58.782331667" lon="7.310335000">
<time>2014-01-11T12:53:42Z</time>
 <fix>2d</fix>
 <sat>9</sat>
</trkpt>
<trkpt lat="58.782368333" lon="7.310248333">
<time>2014-01-11T12:53:44Z</time>
 <fix>2d</fix>
 <sat>9</sat>
</trkpt>
<trkpt lat="58.782398333" lon="7.310150000">
<time>2014-01-11T12:53:46Z</time>
 <fix>2d</fix>
 <sat>9</sat>
</trkpt>
<trkpt lat="58.782418333" lon="7.310055000">
<time>2014-01-11T12:53:48Z</time>
 <fix>2d</fix>
 <sat>9</sat>
</trkpt>
<trkpt lat="58.782430000" lon="7.309966667">
<time>2014-01-11T12:53:50Z</time>
 <fix>2d</fix>
 <sat>9</sat>
</trkpt>
<trkpt lat="58.782435000" lon="7.309908333">
<time>2014-01-11T12:53:52Z</time>
 <fix>2d</fix>
 <sat>9</sat>
</trkpt>
<trkpt lat="58.782436667" lon="7.309871667">
<time>2014-01-11T12:53:54Z</time>
 <fix>2d</fix>
 <sat>9</sat>
</trkpt>
<trkpt lat="58.782433333" lon="7.309843333">
<time>2014-01-11T12:53:56Z</time>
 <fix>2d</fix>
 <sat>9</sat>
</trkpt>
<trkpt lat="58.782431667" lon="7.309813333">
<time>2014-01-11T12:53:58Z</time>
 <fix>2d</fix>
 <sat>9</sat>
</trkpt>
<trkpt lat="58.782431667" lon="7.309783333">
<time>2014-01-11T12:54:00Z</time>
 <fix>2d</fix>
 <sat>9</sat>
</trkpt>
<trkpt lat="58.782431667" lon="7.309755000">
<time>2014-01-11T12:54:02Z</time>
 <fix>2d</fix>
 <sat>9</sat>
</trkpt>
<trkpt lat="58.782430000" lon="7.309728333">
<time>2014-01-11T12:54:04Z</time>
 <fix>2d</fix>
 <sat>9</sat>
</trkpt>
<trkpt lat="58.782425000" lon="7.309705000">
<time>2014-01-11T12:54:06Z</time>
 <fix>2d</fix>
 <sat>9</sat>
</trkpt>
<trkpt lat="58.782418333" lon="7.309680000">
<time>2014-01-11T12:54:08Z</time>
 <fix>2d</fix>
 <sat>9</sat>
</trkpt>
<trkpt lat="58.782411667" lon="7.309655000">
<time>2014-01-11T12:54:10Z</time>
 <fix>2d</fix>
 <sat>9</sat>
</trkpt>
<trkpt lat="58.782406667" lon="7.309621667">
<time>2014-01-11T12:54:12Z</time>
 <fix>2d</fix>
 <sat>9</sat>
</trkpt>
<trkpt lat="58.782395000" lon="7.309583333">
<time>2014-01-11T12:54:14Z</time>
 <fix>2d</fix>
 <sat>9</sat>
</trkpt>
<trkpt lat="58.782380000" lon="7.309543333">
<time>2014-01-11T12:54:16Z</time>
 <fix>2d</fix>
 <sat>9</sat>
</trkpt>
<trkpt lat="58.782361667" lon="7.309495000">
<time>2014-01-11T12:54:18Z</time>
 <fix>2d</fix>
 <sat>9</sat>
</trkpt>
<trkpt lat="58.782343333" lon="7.309451667">
<time>2014-01-11T12:54:20Z</time>
 <fix>2d</fix>
 <sat>9</sat>
</trkpt>
<trkpt lat="58.782331667" lon="7.309423333">
<time>2014-01-11T12:54:22Z</time>
 <fix>2d</fix>
 <sat>9</sat>
</trkpt>
<trkpt lat="58.782321667" lon="7.309386667">
<time>2014-01-11T12:54:24Z</time>
 <fix>2d</fix>
 <sat>9</sat>
</trkpt>
<trkpt lat="58.782310000" lon="7.309346667">
<time>2014-01-11T12:54:26Z</time>
 <fix>2d</fix>
 <sat>9</sat>
</trkpt>
<trkpt lat="58.782296667" lon="7.309310000">
<time>2014-01-11T12:54:28Z</time>
 <fix>2d</fix>
 <sat>9</sat>
</trkpt>
<trkpt lat="58.782288333" lon="7.309290000">
<time>2014-01-11T12:54:30Z</time>
 <fix>2d</fix>
 <sat>9</sat>
</trkpt>
<trkpt lat="58.782283333" lon="7.309265000">
<time>2014-01-11T12:54:32Z</time>
 <fix>2d</fix>
 <sat>9</sat>
</trkpt>
<trkpt lat="58.782275000" lon="7.309240000">
<time>2014-01-11T12:54:34Z</time>
 <fix>2d</fix>
 <sat>9</sat>
</trkpt>
<trkpt lat="58.782270000" lon="7.309218333">
<time>2014-01-11T12:54:36Z</time>
 <fix>2d</fix>
 <sat>9</sat>
</trkpt>
<trkpt lat="58.782265000" lon="7.309195000">
<time>2014-01-11T12:54:38Z</time>
 <fix>2d</fix>
 <sat>9</sat>
</trkpt>
<trkpt lat="58.782261667" lon="7.309171667">
<time>2014-01-11T12:54:40Z</time>
 <fix>2d</fix>
 <sat>9</sat>
</trkpt>
<trkpt lat="58.782261667" lon="7.309148333">
<time>2014-01-11T12:54:42Z</time>
 <fix>2d</fix>
 <sat>9</sat>
</trkpt>
<trkpt lat="58.782256667" lon="7.309128333">
<time>2014-01-11T12:54:44Z</time>
 <fix>2d</fix>
 <sat>9</sat>
</trkpt>
<trkpt lat="58.782255000" lon="7.309105000">
<time>2014-01-11T12:54:46Z</time>
 <fix>2d</fix>
 <sat>9</sat>
</trkpt>
<trkpt lat="58.782248333" lon="7.309090000">
<time>2014-01-11T12:54:48Z</time>
 <fix>2d</fix>
 <sat>9</sat>
</trkpt>
<trkpt lat="58.782241667" lon="7.309073333">
<time>2014-01-11T12:54:50Z</time>
 <fix>2d</fix>
 <sat>9</sat>
</trkpt>
<trkpt lat="58.782233333" lon="7.309058333">
<time>2014-01-11T12:54:52Z</time>
 <fix>2d</fix>
 <sat>9</sat>
</trkpt>
<trkpt lat="58.782223333" lon="7.309040000">
<time>2014-01-11T12:54:54Z</time>
 <fix>2d</fix>
 <sat>9</sat>
</trkpt>
<trkpt lat="58.782213333" lon="7.309016667">
<time>2014-01-11T12:54:56Z</time>
 <fix>2d</fix>
 <sat>9</sat>
</trkpt>
<trkpt lat="58.782203333" lon="7.308995000">
<time>2014-01-11T12:54:58Z</time>
 <fix>2d</fix>
 <sat>9</sat>
</trkpt>
<trkpt lat="58.782193333" lon="7.308971667">
<time>2014-01-11T12:55:00Z</time>
 <fix>2d</fix>
 <sat>9</sat>
</trkpt>
<trkpt lat="58.782183333" lon="7.308946667">
<time>2014-01-11T12:55:02Z</time>
 <fix>2d</fix>
 <sat>9</sat>
</trkpt>
<trkpt lat="58.782173333" lon="7.308918333">
<time>2014-01-11T12:55:04Z</time>
 <fix>2d</fix>
 <sat>9</sat>
</trkpt>
<trkpt lat="58.782163333" lon="7.308890000">
<time>2014-01-11T12:55:06Z</time>
 <fix>2d</fix>
 <sat>9</sat>
</trkpt>
<trkpt lat="58.782153333" lon="7.308863333">
<time>2014-01-11T12:55:08Z</time>
 <fix>2d</fix>
 <sat>9</sat>
</trkpt>
<trkpt lat="58.782138333" lon="7.308823333">
<time>2014-01-11T12:55:10Z</time>
 <fix>2d</fix>
 <sat>8</sat>
</trkpt>
<trkpt lat="58.782115000" lon="7.308770000">
<time>2014-01-11T12:55:12Z</time>
 <fix>2d</fix>
 <sat>8</sat>
</trkpt>
<trkpt lat="58.782091667" lon="7.308676667">
<time>2014-01-11T12:55:14Z</time>
 <fix>2d</fix>
 <sat>8</sat>
</trkpt>
<trkpt lat="58.782085000" lon="7.308570000">
<time>2014-01-11T12:55:16Z</time>
 <fix>2d</fix>
 <sat>8</sat>
</trkpt>
<trkpt lat="58.782093333" lon="7.308511667">
<time>2014-01-11T12:55:18Z</time>
 <fix>2d</fix>
 <sat>8</sat>
</trkpt>
<trkpt lat="58.782100000" lon="7.308481667">
<time>2014-01-11T12:55:20Z</time>
 <fix>2d</fix>
 <sat>8</sat>
</trkpt>
<trkpt lat="58.782106667" lon="7.308455000">
<time>2014-01-11T12:55:22Z</time>
 <fix>2d</fix>
 <sat>8</sat>
</trkpt>
<trkpt lat="58.782115000" lon="7.308425000">
<time>2014-01-11T12:55:24Z</time>
 <fix>2d</fix>
 <sat>8</sat>
</trkpt>
<trkpt lat="58.782123333" lon="7.308401667">
<time>2014-01-11T12:55:26Z</time>
 <fix>2d</fix>
 <sat>8</sat>
</trkpt>
<trkpt lat="58.782131667" lon="7.308380000">
<time>2014-01-11T12:55:28Z</time>
 <fix>2d</fix>
 <sat>8</sat>
</trkpt>
<trkpt lat="58.782143333" lon="7.308366667">
<time>2014-01-11T12:55:30Z</time>
 <fix>2d</fix>
 <sat>8</sat>
</trkpt>
<trkpt lat="58.782153333" lon="7.308345000">
<time>2014-01-11T12:55:32Z</time>
 <fix>2d</fix>
 <sat>8</sat>
</trkpt>
<trkpt lat="58.782163333" lon="7.308326667">
<time>2014-01-11T12:55:34Z</time>
 <fix>2d</fix>
 <sat>8</sat>
</trkpt>
<trkpt lat="58.782176667" lon="7.308305000">
<time>2014-01-11T12:55:36Z</time>
 <fix>2d</fix>
 <sat>8</sat>
</trkpt>
<trkpt lat="58.782190000" lon="7.308288333">
<time>2014-01-11T12:55:38Z</time>
 <fix>2d</fix>
 <sat>8</sat>
</trkpt>
<trkpt lat="58.782201667" lon="7.308268333">
<time>2014-01-11T12:55:40Z</time>
 <fix>2d</fix>
 <sat>8</sat>
</trkpt>
<trkpt lat="58.782216667" lon="7.308248333">
<time>2014-01-11T12:55:42Z</time>
 <fix>2d</fix>
 <sat>8</sat>
</trkpt>
<trkpt lat="58.782231667" lon="7.308228333">
<time>2014-01-11T12:55:44Z</time>
 <fix>2d</fix>
 <sat>8</sat>
</trkpt>
<trkpt lat="58.782245000" lon="7.308208333">
<time>2014-01-11T12:55:46Z</time>
 <fix>2d</fix>
 <sat>8</sat>
</trkpt>
<trkpt lat="58.782260000" lon="7.308186667">
<time>2014-01-11T12:55:48Z</time>
 <fix>2d</fix>
 <sat>8</sat>
</trkpt>
<trkpt lat="58.782275000" lon="7.308166667">
<time>2014-01-11T12:55:50Z</time>
 <fix>2d</fix>
 <sat>8</sat>
</trkpt>
<trkpt lat="58.782286667" lon="7.308146667">
<time>2014-01-11T12:55:52Z</time>
 <fix>2d</fix>
 <sat>8</sat>
</trkpt>
<trkpt lat="58.782303333" lon="7.308125000">
<time>2014-01-11T12:55:54Z</time>
 <fix>2d</fix>
 <sat>8</sat>
</trkpt>
<trkpt lat="58.782318333" lon="7.308100000">
<time>2014-01-11T12:55:56Z</time>
 <fix>2d</fix>
 <sat>8</sat>
</trkpt>
<trkpt lat="58.782331667" lon="7.308076667">
<time>2014-01-11T12:55:58Z</time>
 <fix>2d</fix>
 <sat>8</sat>
</trkpt>
<trkpt lat="58.782343333" lon="7.308055000">
<time>2014-01-11T12:56:00Z</time>
 <fix>2d</fix>
 <sat>8</sat>
</trkpt>
<trkpt lat="58.782356667" lon="7.308031667">
<time>2014-01-11T12:56:02Z</time>
 <fix>2d</fix>
 <sat>8</sat>
</trkpt>
<trkpt lat="58.782366667" lon="7.308013333">
<time>2014-01-11T12:56:04Z</time>
 <fix>2d</fix>
 <sat>8</sat>
</trkpt>
<trkpt lat="58.782378333" lon="7.307986667">
<time>2014-01-11T12:56:06Z</time>
 <fix>2d</fix>
 <sat>8</sat>
</trkpt>
<trkpt lat="58.782391667" lon="7.307953333">
<time>2014-01-11T12:56:08Z</time>
 <fix>2d</fix>
 <sat>8</sat>
</trkpt>
<trkpt lat="58.782406667" lon="7.307916667">
<time>2014-01-11T12:56:10Z</time>
 <fix>2d</fix>
 <sat>8</sat>
</trkpt>
<trkpt lat="58.782420000" lon="7.307878333">
<time>2014-01-11T12:56:12Z</time>
 <fix>2d</fix>
 <sat>8</sat>
</trkpt>
<trkpt lat="58.782430000" lon="7.307838333">
<time>2014-01-11T12:56:14Z</time>
 <fix>2d</fix>
 <sat>8</sat>
</trkpt>
<trkpt lat="58.782438333" lon="7.307801667">
<time>2014-01-11T12:56:16Z</time>
 <fix>2d</fix>
 <sat>8</sat>
</trkpt>
<trkpt lat="58.782446667" lon="7.307771667">
<time>2014-01-11T12:56:18Z</time>
 <fix>2d</fix>
 <sat>8</sat>
</trkpt>
<trkpt lat="58.782453333" lon="7.307743333">
<time>2014-01-11T12:56:20Z</time>
 <fix>2d</fix>
 <sat>8</sat>
</trkpt>
<trkpt lat="58.782458333" lon="7.307715000">
<time>2014-01-11T12:56:22Z</time>
 <fix>2d</fix>
 <sat>8</sat>
</trkpt>
<trkpt lat="58.782463333" lon="7.307685000">
<time>2014-01-11T12:56:24Z</time>
 <fix>2d</fix>
 <sat>8</sat>
</trkpt>
<trkpt lat="58.782466667" lon="7.307658333">
<time>2014-01-11T12:56:26Z</time>
 <fix>2d</fix>
 <sat>8</sat>
</trkpt>
<trkpt lat="58.782471667" lon="7.307630000">
<time>2014-01-11T12:56:28Z</time>
 <fix>2d</fix>
 <sat>8</sat>
</trkpt>
<trkpt lat="58.782475000" lon="7.307603333">
<time>2014-01-11T12:56:30Z</time>
 <fix>2d</fix>
 <sat>8</sat>
</trkpt>
<trkpt lat="58.782476667" lon="7.307575000">
<time>2014-01-11T12:56:32Z</time>
 <fix>2d</fix>
 <sat>8</sat>
</trkpt>
<trkpt lat="58.782478333" lon="7.307548333">
<time>2014-01-11T12:56:34Z</time>
 <fix>2d</fix>
 <sat>8</sat>
</trkpt>
<trkpt lat="58.782481667" lon="7.307520000">
<time>2014-01-11T12:56:36Z</time>
 <fix>2d</fix>
 <sat>8</sat>
</trkpt>
<trkpt lat="58.782481667" lon="7.307490000">
<time>2014-01-11T12:56:38Z</time>
 <fix>2d</fix>
 <sat>8</sat>
</trkpt>
<trkpt lat="58.782485000" lon="7.307463333">
<time>2014-01-11T12:56:40Z</time>
 <fix>2d</fix>
 <sat>8</sat>
</trkpt>
<trkpt lat="58.782488333" lon="7.307460000">
<time>2014-01-11T12:56:42Z</time>
 <fix>2d</fix>
 <sat>8</sat>
</trkpt>
<trkpt lat="58.782488333" lon="7.307460000">
<time>2014-01-11T12:56:44Z</time>
 <fix>2d</fix>
 <sat>8</sat>
</trkpt>
<trkpt lat="58.782488333" lon="7.307461667">
<time>2014-01-11T12:56:46Z</time>
 <fix>2d</fix>
 <sat>8</sat>
</trkpt>
<trkpt lat="58.782486667" lon="7.307460000">
<time>2014-01-11T12:56:48Z</time>
 <fix>2d</fix>
 <sat>8</sat>
</trkpt>
<trkpt lat="58.782486667" lon="7.307448333">
<time>2014-01-11T12:56:50Z</time>
 <fix>2d</fix>
 <sat>8</sat>
</trkpt>
<trkpt lat="58.782488333" lon="7.307438333">
<time>2014-01-11T12:56:52Z</time>
 <fix>2d</fix>
 <sat>8</sat>
</trkpt>
<trkpt lat="58.782488333" lon="7.307435000">
<time>2014-01-11T12:56:54Z</time>
 <fix>2d</fix>
 <sat>8</sat>
</trkpt>
<trkpt lat="58.782488333" lon="7.307435000">
<time>2014-01-11T12:56:56Z</time>
 <fix>2d</fix>
 <sat>8</sat>
</trkpt>
<trkpt lat="58.782486667" lon="7.307423333">
<time>2014-01-11T12:56:58Z</time>
 <fix>2d</fix>
 <sat>8</sat>
</trkpt>
<trkpt lat="58.782485000" lon="7.307403333">
<time>2014-01-11T12:57:00Z</time>
 <fix>2d</fix>
 <sat>8</sat>
</trkpt>
<trkpt lat="58.782485000" lon="7.307366667">
<time>2014-01-11T12:57:02Z</time>
 <fix>2d</fix>
 <sat>8</sat>
</trkpt>
<trkpt lat="58.782485000" lon="7.307320000">
<time>2014-01-11T12:57:04Z</time>
 <fix>2d</fix>
 <sat>8</sat>
</trkpt>
<trkpt lat="58.782481667" lon="7.307265000">
<time>2014-01-11T12:57:06Z</time>
 <fix>2d</fix>
 <sat>8</sat>
</trkpt>
<trkpt lat="58.782485000" lon="7.307203333">
<time>2014-01-11T12:57:08Z</time>
 <fix>2d</fix>
 <sat>8</sat>
</trkpt>
<trkpt lat="58.782485000" lon="7.307146667">
<time>2014-01-11T12:57:10Z</time>
 <fix>2d</fix>
 <sat>8</sat>
</trkpt>
<trkpt lat="58.782486667" lon="7.307100000">
<time>2014-01-11T12:57:12Z</time>
 <fix>2d</fix>
 <sat>8</sat>
</trkpt>
<trkpt lat="58.782486667" lon="7.307051667">
<time>2014-01-11T12:57:14Z</time>
 <fix>2d</fix>
 <sat>8</sat>
</trkpt>
<trkpt lat="58.782486667" lon="7.307005000">
<time>2014-01-11T12:57:16Z</time>
 <fix>2d</fix>
 <sat>8</sat>
</trkpt>
<trkpt lat="58.782486667" lon="7.306966667">
<time>2014-01-11T12:57:18Z</time>
 <fix>2d</fix>
 <sat>8</sat>
</trkpt>
<trkpt lat="58.782486667" lon="7.306930000">
<time>2014-01-11T12:57:20Z</time>
 <fix>2d</fix>
 <sat>8</sat>
</trkpt>
<trkpt lat="58.782486667" lon="7.306891667">
<time>2014-01-11T12:57:22Z</time>
 <fix>2d</fix>
 <sat>8</sat>
</trkpt>
<trkpt lat="58.782490000" lon="7.306850000">
<time>2014-01-11T12:57:24Z</time>
 <fix>2d</fix>
 <sat>8</sat>
</trkpt>
<trkpt lat="58.782491667" lon="7.306816667">
<time>2014-01-11T12:57:26Z</time>
 <fix>2d</fix>
 <sat>8</sat>
</trkpt>
<trkpt lat="58.782491667" lon="7.306788333">
<time>2014-01-11T12:57:28Z</time>
 <fix>2d</fix>
 <sat>8</sat>
</trkpt>
<trkpt lat="58.782495000" lon="7.306758333">
<time>2014-01-11T12:57:30Z</time>
 <fix>2d</fix>
 <sat>8</sat>
</trkpt>
<trkpt lat="58.782495000" lon="7.306730000">
<time>2014-01-11T12:57:32Z</time>
 <fix>2d</fix>
 <sat>8</sat>
</trkpt>
<trkpt lat="58.782495000" lon="7.306706667">
<time>2014-01-11T12:57:34Z</time>
 <fix>2d</fix>
 <sat>8</sat>
</trkpt>
<trkpt lat="58.782496667" lon="7.306705000">
<time>2014-01-11T12:57:36Z</time>
 <fix>2d</fix>
 <sat>8</sat>
</trkpt>
<trkpt lat="58.782496667" lon="7.306705000">
<time>2014-01-11T12:57:38Z</time>
 <fix>2d</fix>
 <sat>8</sat>
</trkpt>
<trkpt lat="58.782496667" lon="7.306703333">
<time>2014-01-11T12:57:40Z</time>
 <fix>2d</fix>
 <sat>8</sat>
</trkpt>
<trkpt lat="58.782498333" lon="7.306695000">
<time>2014-01-11T12:57:42Z</time>
 <fix>2d</fix>
 <sat>8</sat>
</trkpt>
<trkpt lat="58.782498333" lon="7.306681667">
<time>2014-01-11T12:57:44Z</time>
 <fix>2d</fix>
 <sat>8</sat>
</trkpt>
<trkpt lat="58.782496667" lon="7.306650000">
<time>2014-01-11T12:57:46Z</time>
 <fix>2d</fix>
 <sat>8</sat>
</trkpt>
<trkpt lat="58.782498333" lon="7.306616667">
<time>2014-01-11T12:57:48Z</time>
 <fix>2d</fix>
 <sat>8</sat>
</trkpt>
<trkpt lat="58.782503333" lon="7.306606667">
<time>2014-01-11T12:57:50Z</time>
 <fix>2d</fix>
 <sat>8</sat>
</trkpt>
<trkpt lat="58.782505000" lon="7.306605000">
<time>2014-01-11T12:57:52Z</time>
 <fix>2d</fix>
 <sat>8</sat>
</trkpt>
<trkpt lat="58.782506667" lon="7.306605000">
<time>2014-01-11T12:57:54Z</time>
 <fix>2d</fix>
 <sat>8</sat>
</trkpt>
<trkpt lat="58.782508333" lon="7.306603333">
<time>2014-01-11T12:57:56Z</time>
 <fix>2d</fix>
 <sat>8</sat>
</trkpt>
<trkpt lat="58.782508333" lon="7.306603333">
<time>2014-01-11T12:57:58Z</time>
 <fix>2d</fix>
 <sat>8</sat>
</trkpt>
<trkpt lat="58.782508333" lon="7.306605000">
<time>2014-01-11T12:58:00Z</time>
 <fix>2d</fix>
 <sat>8</sat>
</trkpt>
<trkpt lat="58.782508333" lon="7.306605000">
<time>2014-01-11T12:58:02Z</time>
 <fix>2d</fix>
 <sat>8</sat>
</trkpt>
<trkpt lat="58.782508333" lon="7.306605000">
<time>2014-01-11T12:58:04Z</time>
 <fix>2d</fix>
 <sat>8</sat>
</trkpt>
<trkpt lat="58.782508333" lon="7.306605000">
<time>2014-01-11T12:58:06Z</time>
 <fix>2d</fix>
 <sat>8</sat>
</trkpt>
<trkpt lat="58.782508333" lon="7.306606667">
<time>2014-01-11T12:58:08Z</time>
 <fix>2d</fix>
 <sat>8</sat>
</trkpt>
<trkpt lat="58.782506667" lon="7.306606667">
<time>2014-01-11T12:58:10Z</time>
 <fix>2d</fix>
 <sat>8</sat>
</trkpt>
<trkpt lat="58.782506667" lon="7.306606667">
<time>2014-01-11T12:58:12Z</time>
 <fix>2d</fix>
 <sat>8</sat>
</trkpt>
<trkpt lat="58.782506667" lon="7.306606667">
<time>2014-01-11T12:58:14Z</time>
 <fix>2d</fix>
 <sat>8</sat>
</trkpt>
<trkpt lat="58.782506667" lon="7.306600000">
<time>2014-01-11T12:58:16Z</time>
 <fix>2d</fix>
 <sat>8</sat>
</trkpt>
<trkpt lat="58.782505000" lon="7.306591667">
<time>2014-01-11T12:58:18Z</time>
 <fix>2d</fix>
 <sat>8</sat>
</trkpt>
<trkpt lat="58.782505000" lon="7.306575000">
<time>2014-01-11T12:58:20Z</time>
 <fix>2d</fix>
 <sat>8</sat>
</trkpt>
<trkpt lat="58.782501667" lon="7.306541667">
<time>2014-01-11T12:58:22Z</time>
 <fix>2d</fix>
 <sat>8</sat>
</trkpt>
<trkpt lat="58.782496667" lon="7.306495000">
<time>2014-01-11T12:58:24Z</time>
 <fix>2d</fix>
 <sat>8</sat>
</trkpt>
<trkpt lat="58.782490000" lon="7.306433333">
<time>2014-01-11T12:58:26Z</time>
 <fix>2d</fix>
 <sat>8</sat>
</trkpt>
<trkpt lat="58.782481667" lon="7.306363333">
<time>2014-01-11T12:58:28Z</time>
 <fix>2d</fix>
 <sat>8</sat>
</trkpt>
<trkpt lat="58.782473333" lon="7.306293333">
<time>2014-01-11T12:58:30Z</time>
 <fix>2d</fix>
 <sat>8</sat>
</trkpt>
<trkpt lat="58.782463333" lon="7.306245000">
<time>2014-01-11T12:58:32Z</time>
 <fix>2d</fix>
 <sat>8</sat>
</trkpt>
<trkpt lat="58.782451667" lon="7.306195000">
<time>2014-01-11T12:58:34Z</time>
 <fix>2d</fix>
 <sat>8</sat>
</trkpt>
<trkpt lat="58.782438333" lon="7.306150000">
<time>2014-01-11T12:58:36Z</time>
 <fix>2d</fix>
 <sat>8</sat>
</trkpt>
<trkpt lat="58.782426667" lon="7.306106667">
<time>2014-01-11T12:58:38Z</time>
 <fix>2d</fix>
 <sat>8</sat>
</trkpt>
<trkpt lat="58.782416667" lon="7.306065000">
<time>2014-01-11T12:58:40Z</time>
 <fix>2d</fix>
 <sat>8</sat>
</trkpt>
<trkpt lat="58.782405000" lon="7.306026667">
<time>2014-01-11T12:58:42Z</time>
 <fix>2d</fix>
 <sat>8</sat>
</trkpt>
<trkpt lat="58.782395000" lon="7.305990000">
<time>2014-01-11T12:58:44Z</time>
 <fix>2d</fix>
 <sat>8</sat>
</trkpt>
<trkpt lat="58.782385000" lon="7.305951667">
<time>2014-01-11T12:58:46Z</time>
 <fix>2d</fix>
 <sat>8</sat>
</trkpt>
<trkpt lat="58.782375000" lon="7.305918333">
<time>2014-01-11T12:58:48Z</time>
 <fix>2d</fix>
 <sat>8</sat>
</trkpt>
<trkpt lat="58.782366667" lon="7.305885000">
<time>2014-01-11T12:58:50Z</time>
 <fix>2d</fix>
 <sat>8</sat>
</trkpt>
<trkpt lat="58.782360000" lon="7.305851667">
<time>2014-01-11T12:58:52Z</time>
 <fix>2d</fix>
 <sat>8</sat>
</trkpt>
<trkpt lat="58.782353333" lon="7.305821667">
<time>2014-01-11T12:58:54Z</time>
 <fix>2d</fix>
 <sat>8</sat>
</trkpt>
<trkpt lat="58.782350000" lon="7.305793333">
<time>2014-01-11T12:58:56Z</time>
 <fix>2d</fix>
 <sat>8</sat>
</trkpt>
<trkpt lat="58.782343333" lon="7.305758333">
<time>2014-01-11T12:58:58Z</time>
 <fix>2d</fix>
 <sat>8</sat>
</trkpt>
<trkpt lat="58.782338333" lon="7.305713333">
<time>2014-01-11T12:59:00Z</time>
 <fix>2d</fix>
 <sat>8</sat>
</trkpt>
<trkpt lat="58.782331667" lon="7.305665000">
<time>2014-01-11T12:59:02Z</time>
 <fix>2d</fix>
 <sat>8</sat>
</trkpt>
<trkpt lat="58.782330000" lon="7.305616667">
<time>2014-01-11T12:59:04Z</time>
 <fix>2d</fix>
 <sat>8</sat>
</trkpt>
<trkpt lat="58.782328333" lon="7.305566667">
<time>2014-01-11T12:59:06Z</time>
 <fix>2d</fix>
 <sat>8</sat>
</trkpt>
<trkpt lat="58.782325000" lon="7.305516667">
<time>2014-01-11T12:59:08Z</time>
 <fix>2d</fix>
 <sat>8</sat>
</trkpt>
<trkpt lat="58.782325000" lon="7.305478333">
<time>2014-01-11T12:59:10Z</time>
 <fix>2d</fix>
 <sat>8</sat>
</trkpt>
<trkpt lat="58.782325000" lon="7.305446667">
<time>2014-01-11T12:59:12Z</time>
 <fix>2d</fix>
 <sat>8</sat>
</trkpt>
<trkpt lat="58.782326667" lon="7.305420000">
<time>2014-01-11T12:59:14Z</time>
 <fix>2d</fix>
 <sat>8</sat>
</trkpt>
<trkpt lat="58.782326667" lon="7.305395000">
<time>2014-01-11T12:59:16Z</time>
 <fix>2d</fix>
 <sat>8</sat>
</trkpt>
<trkpt lat="58.782323333" lon="7.305373333">
<time>2014-01-11T12:59:18Z</time>
 <fix>2d</fix>
 <sat>8</sat>
</trkpt>
<trkpt lat="58.782321667" lon="7.305356667">
<time>2014-01-11T12:59:20Z</time>
 <fix>2d</fix>
 <sat>8</sat>
</trkpt>
<trkpt lat="58.782318333" lon="7.305335000">
<time>2014-01-11T12:59:22Z</time>
 <fix>2d</fix>
 <sat>8</sat>
</trkpt>
<trkpt lat="58.782315000" lon="7.305316667">
<time>2014-01-11T12:59:24Z</time>
 <fix>2d</fix>
 <sat>8</sat>
</trkpt>
<trkpt lat="58.782315000" lon="7.305316667">
<time>2014-01-11T12:59:26Z</time>
 <fix>2d</fix>
 <sat>8</sat>
</trkpt>
<trkpt lat="58.782315000" lon="7.305320000">
<time>2014-01-11T12:59:28Z</time>
 <fix>2d</fix>
 <sat>8</sat>
</trkpt>
<trkpt lat="58.782315000" lon="7.305321667">
<time>2014-01-11T12:59:30Z</time>
 <fix>2d</fix>
 <sat>8</sat>
</trkpt>
<trkpt lat="58.782316667" lon="7.305323333">
<time>2014-01-11T12:59:32Z</time>
 <fix>2d</fix>
 <sat>8</sat>
</trkpt>
<trkpt lat="58.782316667" lon="7.305323333">
<time>2014-01-11T12:59:34Z</time>
 <fix>2d</fix>
 <sat>8</sat>
</trkpt>
<trkpt lat="58.782316667" lon="7.305323333">
<time>2014-01-11T12:59:36Z</time>
 <fix>2d</fix>
 <sat>8</sat>
</trkpt>
<trkpt lat="58.782315000" lon="7.305320000">
<time>2014-01-11T12:59:38Z</time>
 <fix>2d</fix>
 <sat>8</sat>
</trkpt>
<trkpt lat="58.782316667" lon="7.305303333">
<time>2014-01-11T12:59:40Z</time>
 <fix>2d</fix>
 <sat>8</sat>
</trkpt>
<trkpt lat="58.782315000" lon="7.305268333">
<time>2014-01-11T12:59:42Z</time>
 <fix>2d</fix>
 <sat>8</sat>
</trkpt>
<trkpt lat="58.782313333" lon="7.305215000">
<time>2014-01-11T12:59:44Z</time>
 <fix>2d</fix>
 <sat>8</sat>
</trkpt>
<trkpt lat="58.782311667" lon="7.305130000">
<time>2014-01-11T12:59:46Z</time>
 <fix>2d</fix>
 <sat>8</sat>
</trkpt>
<trkpt lat="58.782308333" lon="7.305050000">
<time>2014-01-11T12:59:48Z</time>
 <fix>2d</fix>
 <sat>8</sat>
</trkpt>
<trkpt lat="58.782306667" lon="7.304973333">
<time>2014-01-11T12:59:50Z</time>
 <fix>2d</fix>
 <sat>8</sat>
</trkpt>
<trkpt lat="58.782303333" lon="7.304895000">
<time>2014-01-11T12:59:52Z</time>
 <fix>2d</fix>
 <sat>8</sat>
</trkpt>
<trkpt lat="58.782301667" lon="7.304805000">
<time>2014-01-11T12:59:54Z</time>
 <fix>2d</fix>
 <sat>8</sat>
</trkpt>
<trkpt lat="58.782298333" lon="7.304703333">
<time>2014-01-11T12:59:56Z</time>
 <fix>2d</fix>
 <sat>8</sat>
</trkpt>
<trkpt lat="58.782296667" lon="7.304610000">
<time>2014-01-11T12:59:58Z</time>
 <fix>2d</fix>
 <sat>8</sat>
</trkpt>
<trkpt lat="58.782295000" lon="7.304536667">
<time>2014-01-11T13:00:00Z</time>
 <fix>2d</fix>
 <sat>8</sat>
</trkpt>
<trkpt lat="58.782295000" lon="7.304466667">
<time>2014-01-11T13:00:02Z</time>
 <fix>2d</fix>
 <sat>8</sat>
</trkpt>
<trkpt lat="58.782295000" lon="7.304383333">
<time>2014-01-11T13:00:04Z</time>
 <fix>2d</fix>
 <sat>8</sat>
</trkpt>
<trkpt lat="58.782295000" lon="7.304303333">
<time>2014-01-11T13:00:06Z</time>
 <fix>2d</fix>
 <sat>8</sat>
</trkpt>
<trkpt lat="58.782300000" lon="7.304208333">
<time>2014-01-11T13:00:08Z</time>
 <fix>2d</fix>
 <sat>8</sat>
</trkpt>
<trkpt lat="58.782321667" lon="7.304101667">
<time>2014-01-11T13:00:10Z</time>
 <fix>2d</fix>
 <sat>8</sat>
</trkpt>
<trkpt lat="58.782356667" lon="7.303990000">
<time>2014-01-11T13:00:12Z</time>
 <fix>2d</fix>
 <sat>8</sat>
</trkpt>
<trkpt lat="58.782411667" lon="7.303931667">
<time>2014-01-11T13:00:14Z</time>
 <fix>2d</fix>
 <sat>8</sat>
</trkpt>
<trkpt lat="58.782461667" lon="7.303921667">
<time>2014-01-11T13:00:16Z</time>
 <fix>2d</fix>
 <sat>8</sat>
</trkpt>
<trkpt lat="58.782510000" lon="7.303935000">
<time>2014-01-11T13:00:18Z</time>
 <fix>2d</fix>
 <sat>8</sat>
</trkpt>
<trkpt lat="58.782561667" lon="7.303968333">
<time>2014-01-11T13:00:20Z</time>
 <fix>2d</fix>
 <sat>8</sat>
</trkpt>
<trkpt lat="58.782611667" lon="7.304018333">
<time>2014-01-11T13:00:22Z</time>
 <fix>2d</fix>
 <sat>8</sat>
</trkpt>
<trkpt lat="58.782661667" lon="7.304076667">
<time>2014-01-11T13:00:24Z</time>
 <fix>2d</fix>
 <sat>8</sat>
</trkpt>
<trkpt lat="58.782711667" lon="7.304136667">
<time>2014-01-11T13:00:26Z</time>
 <fix>2d</fix>
 <sat>8</sat>
</trkpt>
<trkpt lat="58.782763333" lon="7.304196667">
<time>2014-01-11T13:00:28Z</time>
 <fix>2d</fix>
 <sat>8</sat>
</trkpt>
<trkpt lat="58.782813333" lon="7.304255000">
<time>2014-01-11T13:00:30Z</time>
 <fix>2d</fix>
 <sat>8</sat>
</trkpt>
<trkpt lat="58.782866667" lon="7.304311667">
<time>2014-01-11T13:00:32Z</time>
 <fix>2d</fix>
 <sat>8</sat>
</trkpt>
<trkpt lat="58.782920000" lon="7.304373333">
<time>2014-01-11T13:00:34Z</time>
 <fix>2d</fix>
 <sat>8</sat>
</trkpt>
<trkpt lat="58.782971667" lon="7.304435000">
<time>2014-01-11T13:00:36Z</time>
 <fix>2d</fix>
 <sat>8</sat>
</trkpt>
<trkpt lat="58.783025000" lon="7.304495000">
<time>2014-01-11T13:00:38Z</time>
 <fix>2d</fix>
 <sat>8</sat>
</trkpt>
<trkpt lat="58.783080000" lon="7.304553333">
<time>2014-01-11T13:00:40Z</time>
 <fix>2d</fix>
 <sat>8</sat>
</trkpt>
<trkpt lat="58.783138333" lon="7.304606667">
<time>2014-01-11T13:00:42Z</time>
 <fix>2d</fix>
 <sat>8</sat>
</trkpt>
<trkpt lat="58.783200000" lon="7.304651667">
<time>2014-01-11T13:00:44Z</time>
 <fix>2d</fix>
 <sat>8</sat>
</trkpt>
<trkpt lat="58.783253333" lon="7.304698333">
<time>2014-01-11T13:00:46Z</time>
 <fix>2d</fix>
 <sat>8</sat>
</trkpt>
<trkpt lat="58.783295000" lon="7.304770000">
<time>2014-01-11T13:00:48Z</time>
 <fix>2d</fix>
 <sat>8</sat>
</trkpt>
<trkpt lat="58.783335000" lon="7.304831667">
<time>2014-01-11T13:00:50Z</time>
 <fix>2d</fix>
 <sat>8</sat>
</trkpt>
<trkpt lat="58.783373333" lon="7.304875000">
<time>2014-01-11T13:00:52Z</time>
 <fix>2d</fix>
 <sat>8</sat>
</trkpt>
<trkpt lat="58.783416667" lon="7.304916667">
<time>2014-01-11T13:00:54Z</time>
 <fix>2d</fix>
 <sat>8</sat>
</trkpt>
<trkpt lat="58.783460000" lon="7.304961667">
<time>2014-01-11T13:00:56Z</time>
 <fix>2d</fix>
 <sat>8</sat>
</trkpt>
<trkpt lat="58.783505000" lon="7.304995000">
<time>2014-01-11T13:00:58Z</time>
 <fix>2d</fix>
 <sat>8</sat>
</trkpt>
<trkpt lat="58.783543333" lon="7.305016667">
<time>2014-01-11T13:01:00Z</time>
 <fix>2d</fix>
 <sat>8</sat>
</trkpt>
<trkpt lat="58.783570000" lon="7.305031667">
<time>2014-01-11T13:01:02Z</time>
 <fix>2d</fix>
 <sat>8</sat>
</trkpt>
<trkpt lat="58.783598333" lon="7.305041667">
<time>2014-01-11T13:01:04Z</time>
 <fix>2d</fix>
 <sat>8</sat>
</trkpt>
<trkpt lat="58.783626667" lon="7.305048333">
<time>2014-01-11T13:01:06Z</time>
 <fix>2d</fix>
 <sat>8</sat>
</trkpt>
<trkpt lat="58.783653333" lon="7.305055000">
<time>2014-01-11T13:01:08Z</time>
 <fix>2d</fix>
 <sat>8</sat>
</trkpt>
<trkpt lat="58.783676667" lon="7.305056667">
<time>2014-01-11T13:01:10Z</time>
 <fix>2d</fix>
 <sat>8</sat>
</trkpt>
<trkpt lat="58.783700000" lon="7.305053333">
<time>2014-01-11T13:01:12Z</time>
 <fix>2d</fix>
 <sat>8</sat>
</trkpt>
<trkpt lat="58.783723333" lon="7.305050000">
<time>2014-01-11T13:01:14Z</time>
 <fix>2d</fix>
 <sat>8</sat>
</trkpt>
<trkpt lat="58.783746667" lon="7.305038333">
<time>2014-01-11T13:01:16Z</time>
 <fix>2d</fix>
 <sat>8</sat>
</trkpt>
<trkpt lat="58.783768333" lon="7.305021667">
<time>2014-01-11T13:01:18Z</time>
 <fix>2d</fix>
 <sat>8</sat>
</trkpt>
<trkpt lat="58.783796667" lon="7.304991667">
<time>2014-01-11T13:01:20Z</time>
 <fix>2d</fix>
 <sat>8</sat>
</trkpt>
<trkpt lat="58.783816667" lon="7.304955000">
<time>2014-01-11T13:01:22Z</time>
 <fix>2d</fix>
 <sat>8</sat>
</trkpt>
<trkpt lat="58.783831667" lon="7.304926667">
<time>2014-01-11T13:01:24Z</time>
 <fix>2d</fix>
 <sat>8</sat>
</trkpt>
<trkpt lat="58.783845000" lon="7.304896667">
<time>2014-01-11T13:01:26Z</time>
 <fix>2d</fix>
 <sat>8</sat>
</trkpt>
<trkpt lat="58.783855000" lon="7.304868333">
<time>2014-01-11T13:01:28Z</time>
 <fix>2d</fix>
 <sat>8</sat>
</trkpt>
<trkpt lat="58.783866667" lon="7.304836667">
<time>2014-01-11T13:01:30Z</time>
 <fix>2d</fix>
 <sat>8</sat>
</trkpt>
<trkpt lat="58.783875000" lon="7.304805000">
<time>2014-01-11T13:01:32Z</time>
 <fix>2d</fix>
 <sat>8</sat>
</trkpt>
<trkpt lat="58.783886667" lon="7.304771667">
<time>2014-01-11T13:01:34Z</time>
 <fix>2d</fix>
 <sat>8</sat>
</trkpt>
<trkpt lat="58.783893333" lon="7.304740000">
<time>2014-01-11T13:01:36Z</time>
 <fix>2d</fix>
 <sat>8</sat>
</trkpt>
<trkpt lat="58.783901667" lon="7.304708333">
<time>2014-01-11T13:01:38Z</time>
 <fix>2d</fix>
 <sat>8</sat>
</trkpt>
<trkpt lat="58.783905000" lon="7.304678333">
<time>2014-01-11T13:01:40Z</time>
 <fix>2d</fix>
 <sat>8</sat>
</trkpt>
<trkpt lat="58.783910000" lon="7.304645000">
<time>2014-01-11T13:01:42Z</time>
 <fix>2d</fix>
 <sat>8</sat>
</trkpt>
<trkpt lat="58.783915000" lon="7.304613333">
<time>2014-01-11T13:01:44Z</time>
 <fix>2d</fix>
 <sat>8</sat>
</trkpt>
<trkpt lat="58.783920000" lon="7.304586667">
<time>2014-01-11T13:01:46Z</time>
 <fix>2d</fix>
 <sat>8</sat>
</trkpt>
<trkpt lat="58.783926667" lon="7.304561667">
<time>2014-01-11T13:01:48Z</time>
 <fix>2d</fix>
 <sat>8</sat>
</trkpt>
<trkpt lat="58.783933333" lon="7.304535000">
<time>2014-01-11T13:01:50Z</time>
 <fix>2d</fix>
 <sat>8</sat>
</trkpt>
<trkpt lat="58.783936667" lon="7.304506667">
<time>2014-01-11T13:01:52Z</time>
 <fix>2d</fix>
 <sat>8</sat>
</trkpt>
<trkpt lat="58.783941667" lon="7.304478333">
<time>2014-01-11T13:01:54Z</time>
 <fix>2d</fix>
 <sat>8</sat>
</trkpt>
<trkpt lat="58.783948333" lon="7.304455000">
<time>2014-01-11T13:01:56Z</time>
 <fix>2d</fix>
 <sat>8</sat>
</trkpt>
<trkpt lat="58.783953333" lon="7.304431667">
<time>2014-01-11T13:01:58Z</time>
 <fix>2d</fix>
 <sat>8</sat>
</trkpt>
<trkpt lat="58.783958333" lon="7.304401667">
<time>2014-01-11T13:02:00Z</time>
 <fix>2d</fix>
 <sat>8</sat>
</trkpt>
<trkpt lat="58.783961667" lon="7.304376667">
<time>2014-01-11T13:02:02Z</time>
 <fix>2d</fix>
 <sat>8</sat>
</trkpt>
<trkpt lat="58.783970000" lon="7.304346667">
<time>2014-01-11T13:02:04Z</time>
 <fix>2d</fix>
 <sat>8</sat>
</trkpt>
<trkpt lat="58.783978333" lon="7.304325000">
<time>2014-01-11T13:02:06Z</time>
 <fix>2d</fix>
 <sat>8</sat>
</trkpt>
<trkpt lat="58.783983333" lon="7.304296667">
<time>2014-01-11T13:02:08Z</time>
 <fix>2d</fix>
 <sat>8</sat>
</trkpt>
<trkpt lat="58.783990000" lon="7.304266667">
<time>2014-01-11T13:02:10Z</time>
 <fix>2d</fix>
 <sat>8</sat>
</trkpt>
<trkpt lat="58.783995000" lon="7.304236667">
<time>2014-01-11T13:02:12Z</time>
 <fix>2d</fix>
 <sat>8</sat>
</trkpt>
<trkpt lat="58.784001667" lon="7.304203333">
<time>2014-01-11T13:02:14Z</time>
 <fix>2d</fix>
 <sat>8</sat>
</trkpt>
<trkpt lat="58.784013333" lon="7.304171667">
<time>2014-01-11T13:02:16Z</time>
 <fix>2d</fix>
 <sat>8</sat>
</trkpt>
<trkpt lat="58.784023333" lon="7.304140000">
<time>2014-01-11T13:02:18Z</time>
 <fix>2d</fix>
 <sat>8</sat>
</trkpt>
<trkpt lat="58.784033333" lon="7.304111667">
<time>2014-01-11T13:02:20Z</time>
 <fix>2d</fix>
 <sat>8</sat>
</trkpt>
<trkpt lat="58.784045000" lon="7.304090000">
<time>2014-01-11T13:02:22Z</time>
 <fix>2d</fix>
 <sat>8</sat>
</trkpt>
<trkpt lat="58.784055000" lon="7.304065000">
<time>2014-01-11T13:02:24Z</time>
 <fix>2d</fix>
 <sat>8</sat>
</trkpt>
<trkpt lat="58.784066667" lon="7.304043333">
<time>2014-01-11T13:02:26Z</time>
 <fix>2d</fix>
 <sat>8</sat>
</trkpt>
<trkpt lat="58.784078333" lon="7.304021667">
<time>2014-01-11T13:02:28Z</time>
 <fix>2d</fix>
 <sat>8</sat>
</trkpt>
<trkpt lat="58.784088333" lon="7.303998333">
<time>2014-01-11T13:02:30Z</time>
 <fix>2d</fix>
 <sat>8</sat>
</trkpt>
<trkpt lat="58.784100000" lon="7.303971667">
<time>2014-01-11T13:02:32Z</time>
 <fix>2d</fix>
 <sat>8</sat>
</trkpt>
<trkpt lat="58.784108333" lon="7.303950000">
<time>2014-01-11T13:02:34Z</time>
 <fix>2d</fix>
 <sat>8</sat>
</trkpt>
<trkpt lat="58.784118333" lon="7.303930000">
<time>2014-01-11T13:02:36Z</time>
 <fix>2d</fix>
 <sat>8</sat>
</trkpt>
<trkpt lat="58.784128333" lon="7.303910000">
<time>2014-01-11T13:02:38Z</time>
 <fix>2d</fix>
 <sat>8</sat>
</trkpt>
<trkpt lat="58.784136667" lon="7.303883333">
<time>2014-01-11T13:02:40Z</time>
 <fix>2d</fix>
 <sat>8</sat>
</trkpt>
<trkpt lat="58.784146667" lon="7.303853333">
<time>2014-01-11T13:02:42Z</time>
 <fix>2d</fix>
 <sat>8</sat>
</trkpt>
<trkpt lat="58.784156667" lon="7.303825000">
<time>2014-01-11T13:02:44Z</time>
 <fix>2d</fix>
 <sat>8</sat>
</trkpt>
<trkpt lat="58.784165000" lon="7.303790000">
<time>2014-01-11T13:02:46Z</time>
 <fix>2d</fix>
 <sat>8</sat>
</trkpt>
<trkpt lat="58.784171667" lon="7.303758333">
<time>2014-01-11T13:02:48Z</time>
 <fix>2d</fix>
 <sat>8</sat>
</trkpt>
<trkpt lat="58.784178333" lon="7.303723333">
<time>2014-01-11T13:02:50Z</time>
 <fix>2d</fix>
 <sat>8</sat>
</trkpt>
<trkpt lat="58.784183333" lon="7.303691667">
<time>2014-01-11T13:02:52Z</time>
 <fix>2d</fix>
 <sat>8</sat>
</trkpt>
<trkpt lat="58.784186667" lon="7.303653333">
<time>2014-01-11T13:02:54Z</time>
 <fix>2d</fix>
 <sat>8</sat>
</trkpt>
<trkpt lat="58.784190000" lon="7.303616667">
<time>2014-01-11T13:02:56Z</time>
 <fix>2d</fix>
 <sat>8</sat>
</trkpt>
<trkpt lat="58.784191667" lon="7.303581667">
<time>2014-01-11T13:02:58Z</time>
 <fix>2d</fix>
 <sat>8</sat>
</trkpt>
<trkpt lat="58.784193333" lon="7.303545000">
<time>2014-01-11T13:03:00Z</time>
 <fix>2d</fix>
 <sat>8</sat>
</trkpt>
<trkpt lat="58.784195000" lon="7.303508333">
<time>2014-01-11T13:03:02Z</time>
 <fix>2d</fix>
 <sat>8</sat>
</trkpt>
<trkpt lat="58.784195000" lon="7.303468333">
<time>2014-01-11T13:03:04Z</time>
 <fix>2d</fix>
 <sat>8</sat>
</trkpt>
<trkpt lat="58.784195000" lon="7.303425000">
<time>2014-01-11T13:03:06Z</time>
 <fix>2d</fix>
 <sat>8</sat>
</trkpt>
<trkpt lat="58.784195000" lon="7.303371667">
<time>2014-01-11T13:03:08Z</time>
 <fix>2d</fix>
 <sat>8</sat>
</trkpt>
<trkpt lat="58.784193333" lon="7.303320000">
<time>2014-01-11T13:03:10Z</time>
 <fix>2d</fix>
 <sat>8</sat>
</trkpt>
<trkpt lat="58.784193333" lon="7.303263333">
<time>2014-01-11T13:03:12Z</time>
 <fix>2d</fix>
 <sat>8</sat>
</trkpt>
<trkpt lat="58.784191667" lon="7.303210000">
<time>2014-01-11T13:03:14Z</time>
 <fix>2d</fix>
 <sat>8</sat>
</trkpt>
<trkpt lat="58.784191667" lon="7.303160000">
<time>2014-01-11T13:03:16Z</time>
 <fix>2d</fix>
 <sat>8</sat>
</trkpt>
<trkpt lat="58.784191667" lon="7.303113333">
<time>2014-01-11T13:03:18Z</time>
 <fix>2d</fix>
 <sat>8</sat>
</trkpt>
<trkpt lat="58.784191667" lon="7.303070000">
<time>2014-01-11T13:03:20Z</time>
 <fix>2d</fix>
 <sat>8</sat>
</trkpt>
<trkpt lat="58.784191667" lon="7.303028333">
<time>2014-01-11T13:03:22Z</time>
 <fix>2d</fix>
 <sat>8</sat>
</trkpt>
<trkpt lat="58.784191667" lon="7.302988333">
<time>2014-01-11T13:03:24Z</time>
 <fix>2d</fix>
 <sat>8</sat>
</trkpt>
<trkpt lat="58.784191667" lon="7.302950000">
<time>2014-01-11T13:03:26Z</time>
 <fix>2d</fix>
 <sat>8</sat>
</trkpt>
<trkpt lat="58.784191667" lon="7.302913333">
<time>2014-01-11T13:03:28Z</time>
 <fix>2d</fix>
 <sat>8</sat>
</trkpt>
<trkpt lat="58.784191667" lon="7.302880000">
<time>2014-01-11T13:03:30Z</time>
 <fix>2d</fix>
 <sat>8</sat>
</trkpt>
<trkpt lat="58.784193333" lon="7.302853333">
<time>2014-01-11T13:03:32Z</time>
 <fix>2d</fix>
 <sat>8</sat>
</trkpt>
<trkpt lat="58.784195000" lon="7.302821667">
<time>2014-01-11T13:03:34Z</time>
 <fix>2d</fix>
 <sat>8</sat>
</trkpt>
<trkpt lat="58.784193333" lon="7.302785000">
<time>2014-01-11T13:03:36Z</time>
 <fix>2d</fix>
 <sat>8</sat>
</trkpt>
<trkpt lat="58.784191667" lon="7.302748333">
<time>2014-01-11T13:03:38Z</time>
 <fix>2d</fix>
 <sat>8</sat>
</trkpt>
<trkpt lat="58.784188333" lon="7.302708333">
<time>2014-01-11T13:03:40Z</time>
 <fix>2d</fix>
 <sat>8</sat>
</trkpt>
<trkpt lat="58.784186667" lon="7.302666667">
<time>2014-01-11T13:03:42Z</time>
 <fix>2d</fix>
 <sat>8</sat>
</trkpt>
<trkpt lat="58.784186667" lon="7.302623333">
<time>2014-01-11T13:03:44Z</time>
 <fix>2d</fix>
 <sat>8</sat>
</trkpt>
<trkpt lat="58.784188333" lon="7.302576667">
<time>2014-01-11T13:03:46Z</time>
 <fix>2d</fix>
 <sat>8</sat>
</trkpt>
<trkpt lat="58.784193333" lon="7.302528333">
<time>2014-01-11T13:03:48Z</time>
 <fix>2d</fix>
 <sat>8</sat>
</trkpt>
<trkpt lat="58.784196667" lon="7.302470000">
<time>2014-01-11T13:03:50Z</time>
 <fix>2d</fix>
 <sat>8</sat>
</trkpt>
<trkpt lat="58.784198333" lon="7.302420000">
<time>2014-01-11T13:03:52Z</time>
 <fix>2d</fix>
 <sat>8</sat>
</trkpt>
<trkpt lat="58.784206667" lon="7.302373333">
<time>2014-01-11T13:03:54Z</time>
 <fix>2d</fix>
 <sat>8</sat>
</trkpt>
<trkpt lat="58.784210000" lon="7.302333333">
<time>2014-01-11T13:03:56Z</time>
 <fix>2d</fix>
 <sat>8</sat>
</trkpt>
<trkpt lat="58.784216667" lon="7.302301667">
<time>2014-01-11T13:03:58Z</time>
 <fix>2d</fix>
 <sat>8</sat>
</trkpt>
<trkpt lat="58.784221667" lon="7.302271667">
<time>2014-01-11T13:04:00Z</time>
 <fix>2d</fix>
 <sat>8</sat>
</trkpt>
<trkpt lat="58.784230000" lon="7.302235000">
<time>2014-01-11T13:04:02Z</time>
 <fix>2d</fix>
 <sat>8</sat>
</trkpt>
<trkpt lat="58.784235000" lon="7.302196667">
<time>2014-01-11T13:04:04Z</time>
 <fix>2d</fix>
 <sat>8</sat>
</trkpt>
<trkpt lat="58.784245000" lon="7.302155000">
<time>2014-01-11T13:04:06Z</time>
 <fix>2d</fix>
 <sat>8</sat>
</trkpt>
<trkpt lat="58.784256667" lon="7.302113333">
<time>2014-01-11T13:04:08Z</time>
 <fix>2d</fix>
 <sat>8</sat>
</trkpt>
<trkpt lat="58.784266667" lon="7.302075000">
<time>2014-01-11T13:04:10Z</time>
 <fix>2d</fix>
 <sat>8</sat>
</trkpt>
<trkpt lat="58.784278333" lon="7.302035000">
<time>2014-01-11T13:04:12Z</time>
 <fix>2d</fix>
 <sat>8</sat>
</trkpt>
<trkpt lat="58.784285000" lon="7.301995000">
<time>2014-01-11T13:04:14Z</time>
 <fix>2d</fix>
 <sat>8</sat>
</trkpt>
<trkpt lat="58.784296667" lon="7.301948333">
<time>2014-01-11T13:04:16Z</time>
 <fix>2d</fix>
 <sat>8</sat>
</trkpt>
<trkpt lat="58.784305000" lon="7.301905000">
<time>2014-01-11T13:04:18Z</time>
 <fix>2d</fix>
 <sat>8</sat>
</trkpt>
<trkpt lat="58.784313333" lon="7.301858333">
<time>2014-01-11T13:04:20Z</time>
 <fix>2d</fix>
 <sat>8</sat>
</trkpt>
<trkpt lat="58.784321667" lon="7.301811667">
<time>2014-01-11T13:04:22Z</time>
 <fix>2d</fix>
 <sat>8</sat>
</trkpt>
<trkpt lat="58.784325000" lon="7.301771667">
<time>2014-01-11T13:04:24Z</time>
 <fix>2d</fix>
 <sat>8</sat>
</trkpt>
<trkpt lat="58.784331667" lon="7.301736667">
<time>2014-01-11T13:04:26Z</time>
 <fix>2d</fix>
 <sat>8</sat>
</trkpt>
<trkpt lat="58.784336667" lon="7.301698333">
<time>2014-01-11T13:04:28Z</time>
 <fix>2d</fix>
 <sat>8</sat>
</trkpt>
<trkpt lat="58.784341667" lon="7.301656667">
<time>2014-01-11T13:04:30Z</time>
 <fix>2d</fix>
 <sat>8</sat>
</trkpt>
<trkpt lat="58.784346667" lon="7.301615000">
<time>2014-01-11T13:04:32Z</time>
 <fix>2d</fix>
 <sat>8</sat>
</trkpt>
<trkpt lat="58.784350000" lon="7.301570000">
<time>2014-01-11T13:04:34Z</time>
 <fix>2d</fix>
 <sat>8</sat>
</trkpt>
<trkpt lat="58.784353333" lon="7.301526667">
<time>2014-01-11T13:04:36Z</time>
 <fix>2d</fix>
 <sat>8</sat>
</trkpt>
<trkpt lat="58.784355000" lon="7.301490000">
<time>2014-01-11T13:04:38Z</time>
 <fix>2d</fix>
 <sat>8</sat>
</trkpt>
<trkpt lat="58.784356667" lon="7.301451667">
<time>2014-01-11T13:04:40Z</time>
 <fix>2d</fix>
 <sat>8</sat>
</trkpt>
<trkpt lat="58.784360000" lon="7.301413333">
<time>2014-01-11T13:04:42Z</time>
 <fix>2d</fix>
 <sat>8</sat>
</trkpt>
<trkpt lat="58.784363333" lon="7.301376667">
<time>2014-01-11T13:04:44Z</time>
 <fix>2d</fix>
 <sat>8</sat>
</trkpt>
<trkpt lat="58.784365000" lon="7.301338333">
<time>2014-01-11T13:04:46Z</time>
 <fix>2d</fix>
 <sat>8</sat>
</trkpt>
<trkpt lat="58.784368333" lon="7.301298333">
<time>2014-01-11T13:04:48Z</time>
 <fix>2d</fix>
 <sat>8</sat>
</trkpt>
<trkpt lat="58.784370000" lon="7.301263333">
<time>2014-01-11T13:04:50Z</time>
 <fix>2d</fix>
 <sat>8</sat>
</trkpt>
<trkpt lat="58.784371667" lon="7.301233333">
<time>2014-01-11T13:04:52Z</time>
 <fix>2d</fix>
 <sat>8</sat>
</trkpt>
<trkpt lat="58.784373333" lon="7.301205000">
<time>2014-01-11T13:04:54Z</time>
 <fix>2d</fix>
 <sat>8</sat>
</trkpt>
<trkpt lat="58.784375000" lon="7.301178333">
<time>2014-01-11T13:04:56Z</time>
 <fix>2d</fix>
 <sat>8</sat>
</trkpt>
<trkpt lat="58.784376667" lon="7.301148333">
<time>2014-01-11T13:04:58Z</time>
 <fix>2d</fix>
 <sat>8</sat>
</trkpt>
<trkpt lat="58.784378333" lon="7.301120000">
<time>2014-01-11T13:05:00Z</time>
 <fix>2d</fix>
 <sat>8</sat>
</trkpt>
<trkpt lat="58.784380000" lon="7.301095000">
<time>2014-01-11T13:05:02Z</time>
 <fix>2d</fix>
 <sat>8</sat>
</trkpt>
<trkpt lat="58.784380000" lon="7.301068333">
<time>2014-01-11T13:05:04Z</time>
 <fix>2d</fix>
 <sat>8</sat>
</trkpt>
<trkpt lat="58.784381667" lon="7.301045000">
<time>2014-01-11T13:05:06Z</time>
 <fix>2d</fix>
 <sat>8</sat>
</trkpt>
<trkpt lat="58.784385000" lon="7.301021667">
<time>2014-01-11T13:05:08Z</time>
 <fix>2d</fix>
 <sat>8</sat>
</trkpt>
<trkpt lat="58.784386667" lon="7.300991667">
<time>2014-01-11T13:05:10Z</time>
 <fix>2d</fix>
 <sat>8</sat>
</trkpt>
<trkpt lat="58.784388333" lon="7.300968333">
<time>2014-01-11T13:05:12Z</time>
 <fix>2d</fix>
 <sat>8</sat>
</trkpt>
<trkpt lat="58.784390000" lon="7.300945000">
<time>2014-01-11T13:05:14Z</time>
 <fix>2d</fix>
 <sat>8</sat>
</trkpt>
<trkpt lat="58.784393333" lon="7.300921667">
<time>2014-01-11T13:05:16Z</time>
 <fix>2d</fix>
 <sat>8</sat>
</trkpt>
<trkpt lat="58.784395000" lon="7.300896667">
<time>2014-01-11T13:05:18Z</time>
 <fix>2d</fix>
 <sat>8</sat>
</trkpt>
<trkpt lat="58.784396667" lon="7.300873333">
<time>2014-01-11T13:05:20Z</time>
 <fix>2d</fix>
 <sat>8</sat>
</trkpt>
<trkpt lat="58.784400000" lon="7.300845000">
<time>2014-01-11T13:05:22Z</time>
 <fix>2d</fix>
 <sat>8</sat>
</trkpt>
<trkpt lat="58.784400000" lon="7.300820000">
<time>2014-01-11T13:05:24Z</time>
 <fix>2d</fix>
 <sat>8</sat>
</trkpt>
<trkpt lat="58.784403333" lon="7.300793333">
<time>2014-01-11T13:05:26Z</time>
 <fix>2d</fix>
 <sat>8</sat>
</trkpt>
<trkpt lat="58.784406667" lon="7.300768333">
<time>2014-01-11T13:05:28Z</time>
 <fix>2d</fix>
 <sat>8</sat>
</trkpt>
<trkpt lat="58.784405000" lon="7.300741667">
<time>2014-01-11T13:05:30Z</time>
 <fix>2d</fix>
 <sat>8</sat>
</trkpt>
<trkpt lat="58.784406667" lon="7.300713333">
<time>2014-01-11T13:05:32Z</time>
 <fix>2d</fix>
 <sat>8</sat>
</trkpt>
<trkpt lat="58.784408333" lon="7.300686667">
<time>2014-01-11T13:05:34Z</time>
 <fix>2d</fix>
 <sat>8</sat>
</trkpt>
<trkpt lat="58.784408333" lon="7.300656667">
<time>2014-01-11T13:05:36Z</time>
 <fix>2d</fix>
 <sat>8</sat>
</trkpt>
<trkpt lat="58.784410000" lon="7.300625000">
<time>2014-01-11T13:05:38Z</time>
 <fix>2d</fix>
 <sat>8</sat>
</trkpt>
<trkpt lat="58.784411667" lon="7.300593333">
<time>2014-01-11T13:05:40Z</time>
 <fix>2d</fix>
 <sat>8</sat>
</trkpt>
<trkpt lat="58.784411667" lon="7.300561667">
<time>2014-01-11T13:05:42Z</time>
 <fix>2d</fix>
 <sat>8</sat>
</trkpt>
<trkpt lat="58.784411667" lon="7.300528333">
<time>2014-01-11T13:05:44Z</time>
 <fix>2d</fix>
 <sat>8</sat>
</trkpt>
<trkpt lat="58.784415000" lon="7.300495000">
<time>2014-01-11T13:05:46Z</time>
 <fix>2d</fix>
 <sat>8</sat>
</trkpt>
<trkpt lat="58.784415000" lon="7.300465000">
<time>2014-01-11T13:05:48Z</time>
 <fix>2d</fix>
 <sat>8</sat>
</trkpt>
<trkpt lat="58.784415000" lon="7.300433333">
<time>2014-01-11T13:05:50Z</time>
 <fix>2d</fix>
 <sat>8</sat>
</trkpt>
<trkpt lat="58.784411667" lon="7.300396667">
<time>2014-01-11T13:05:52Z</time>
 <fix>2d</fix>
 <sat>8</sat>
</trkpt>
<trkpt lat="58.784415000" lon="7.300363333">
<time>2014-01-11T13:05:54Z</time>
 <fix>2d</fix>
 <sat>8</sat>
</trkpt>
<trkpt lat="58.784415000" lon="7.300330000">
<time>2014-01-11T13:05:56Z</time>
 <fix>2d</fix>
 <sat>8</sat>
</trkpt>
<trkpt lat="58.784415000" lon="7.300300000">
<time>2014-01-11T13:05:58Z</time>
 <fix>2d</fix>
 <sat>8</sat>
</trkpt>
<trkpt lat="58.784413333" lon="7.300268333">
<time>2014-01-11T13:06:00Z</time>
 <fix>2d</fix>
 <sat>8</sat>
</trkpt>
<trkpt lat="58.784411667" lon="7.300236667">
<time>2014-01-11T13:06:02Z</time>
 <fix>2d</fix>
 <sat>8</sat>
</trkpt>
<trkpt lat="58.784410000" lon="7.300208333">
<time>2014-01-11T13:06:04Z</time>
 <fix>2d</fix>
 <sat>8</sat>
</trkpt>
<trkpt lat="58.784408333" lon="7.300183333">
<time>2014-01-11T13:06:06Z</time>
 <fix>2d</fix>
 <sat>8</sat>
</trkpt>
<trkpt lat="58.784400000" lon="7.300155000">
<time>2014-01-11T13:06:08Z</time>
 <fix>2d</fix>
 <sat>8</sat>
</trkpt>
<trkpt lat="58.784396667" lon="7.300126667">
<time>2014-01-11T13:06:10Z</time>
 <fix>2d</fix>
 <sat>8</sat>
</trkpt>
<trkpt lat="58.784390000" lon="7.300096667">
<time>2014-01-11T13:06:12Z</time>
 <fix>2d</fix>
 <sat>8</sat>
</trkpt>
<trkpt lat="58.784386667" lon="7.300066667">
<time>2014-01-11T13:06:14Z</time>
 <fix>2d</fix>
 <sat>8</sat>
</trkpt>
<trkpt lat="58.784381667" lon="7.300038333">
<time>2014-01-11T13:06:16Z</time>
 <fix>2d</fix>
 <sat>8</sat>
</trkpt>
<trkpt lat="58.784378333" lon="7.300006667">
<time>2014-01-11T13:06:18Z</time>
 <fix>2d</fix>
 <sat>8</sat>
</trkpt>
<trkpt lat="58.784375000" lon="7.299975000">
<time>2014-01-11T13:06:20Z</time>
 <fix>2d</fix>
 <sat>8</sat>
</trkpt>
<trkpt lat="58.784370000" lon="7.299940000">
<time>2014-01-11T13:06:22Z</time>
 <fix>2d</fix>
 <sat>8</sat>
</trkpt>
<trkpt lat="58.784365000" lon="7.299903333">
<time>2014-01-11T13:06:24Z</time>
 <fix>2d</fix>
 <sat>8</sat>
</trkpt>
<trkpt lat="58.784360000" lon="7.299865000">
<time>2014-01-11T13:06:26Z</time>
 <fix>2d</fix>
 <sat>8</sat>
</trkpt>
<trkpt lat="58.784356667" lon="7.299838333">
<time>2014-01-11T13:06:28Z</time>
 <fix>2d</fix>
 <sat>8</sat>
</trkpt>
<trkpt lat="58.784351667" lon="7.299808333">
<time>2014-01-11T13:06:30Z</time>
 <fix>2d</fix>
 <sat>8</sat>
</trkpt>
<trkpt lat="58.784351667" lon="7.299781667">
<time>2014-01-11T13:06:32Z</time>
 <fix>2d</fix>
 <sat>8</sat>
</trkpt>
<trkpt lat="58.784348333" lon="7.299755000">
<time>2014-01-11T13:06:34Z</time>
 <fix>2d</fix>
 <sat>8</sat>
</trkpt>
<trkpt lat="58.784348333" lon="7.299731667">
<time>2014-01-11T13:06:36Z</time>
 <fix>2d</fix>
 <sat>8</sat>
</trkpt>
<trkpt lat="58.784345000" lon="7.299706667">
<time>2014-01-11T13:06:38Z</time>
 <fix>2d</fix>
 <sat>8</sat>
</trkpt>
<trkpt lat="58.784340000" lon="7.299685000">
<time>2014-01-11T13:06:40Z</time>
 <fix>2d</fix>
 <sat>8</sat>
</trkpt>
<trkpt lat="58.784338333" lon="7.299661667">
<time>2014-01-11T13:06:42Z</time>
 <fix>2d</fix>
 <sat>8</sat>
</trkpt>
<trkpt lat="58.784333333" lon="7.299638333">
<time>2014-01-11T13:06:44Z</time>
 <fix>2d</fix>
 <sat>8</sat>
</trkpt>
<trkpt lat="58.784328333" lon="7.299616667">
<time>2014-01-11T13:06:46Z</time>
 <fix>2d</fix>
 <sat>8</sat>
</trkpt>
<trkpt lat="58.784325000" lon="7.299595000">
<time>2014-01-11T13:06:48Z</time>
 <fix>2d</fix>
 <sat>8</sat>
</trkpt>
<trkpt lat="58.784321667" lon="7.299570000">
<time>2014-01-11T13:06:50Z</time>
 <fix>2d</fix>
 <sat>8</sat>
</trkpt>
<trkpt lat="58.784316667" lon="7.299546667">
<time>2014-01-11T13:06:52Z</time>
 <fix>2d</fix>
 <sat>8</sat>
</trkpt>
<trkpt lat="58.784310000" lon="7.299521667">
<time>2014-01-11T13:06:54Z</time>
 <fix>2d</fix>
 <sat>8</sat>
</trkpt>
<trkpt lat="58.784306667" lon="7.299495000">
<time>2014-01-11T13:06:56Z</time>
 <fix>2d</fix>
 <sat>8</sat>
</trkpt>
<trkpt lat="58.784300000" lon="7.299465000">
<time>2014-01-11T13:06:58Z</time>
 <fix>2d</fix>
 <sat>8</sat>
</trkpt>
<trkpt lat="58.784295000" lon="7.299436667">
<time>2014-01-11T13:07:00Z</time>
 <fix>2d</fix>
 <sat>8</sat>
</trkpt>
<trkpt lat="58.784288333" lon="7.299405000">
<time>2014-01-11T13:07:02Z</time>
 <fix>2d</fix>
 <sat>8</sat>
</trkpt>
<trkpt lat="58.784281667" lon="7.299373333">
<time>2014-01-11T13:07:04Z</time>
 <fix>2d</fix>
 <sat>8</sat>
</trkpt>
<trkpt lat="58.784276667" lon="7.299343333">
<time>2014-01-11T13:07:06Z</time>
 <fix>2d</fix>
 <sat>8</sat>
</trkpt>
<trkpt lat="58.784271667" lon="7.299315000">
<time>2014-01-11T13:07:08Z</time>
 <fix>2d</fix>
 <sat>8</sat>
</trkpt>
<trkpt lat="58.784268333" lon="7.299290000">
<time>2014-01-11T13:07:10Z</time>
 <fix>2d</fix>
 <sat>8</sat>
</trkpt>
<trkpt lat="58.784263333" lon="7.299261667">
<time>2014-01-11T13:07:12Z</time>
 <fix>2d</fix>
 <sat>8</sat>
</trkpt>
<trkpt lat="58.784256667" lon="7.299230000">
<time>2014-01-11T13:07:14Z</time>
 <fix>2d</fix>
 <sat>8</sat>
</trkpt>
<trkpt lat="58.784251667" lon="7.299195000">
<time>2014-01-11T13:07:16Z</time>
 <fix>2d</fix>
 <sat>8</sat>
</trkpt>
<trkpt lat="58.784246667" lon="7.299165000">
<time>2014-01-11T13:07:18Z</time>
 <fix>2d</fix>
 <sat>8</sat>
</trkpt>
<trkpt lat="58.784240000" lon="7.299131667">
<time>2014-01-11T13:07:20Z</time>
 <fix>2d</fix>
 <sat>8</sat>
</trkpt>
<trkpt lat="58.784236667" lon="7.299103333">
<time>2014-01-11T13:07:22Z</time>
 <fix>2d</fix>
 <sat>8</sat>
</trkpt>
<trkpt lat="58.784230000" lon="7.299071667">
<time>2014-01-11T13:07:24Z</time>
 <fix>2d</fix>
 <sat>8</sat>
</trkpt>
<trkpt lat="58.784225000" lon="7.299041667">
<time>2014-01-11T13:07:26Z</time>
 <fix>2d</fix>
 <sat>8</sat>
</trkpt>
<trkpt lat="58.784220000" lon="7.299008333">
<time>2014-01-11T13:07:28Z</time>
 <fix>2d</fix>
 <sat>8</sat>
</trkpt>
<trkpt lat="58.784215000" lon="7.298975000">
<time>2014-01-11T13:07:30Z</time>
 <fix>2d</fix>
 <sat>8</sat>
</trkpt>
<trkpt lat="58.784211667" lon="7.298943333">
<time>2014-01-11T13:07:32Z</time>
 <fix>2d</fix>
 <sat>8</sat>
</trkpt>
<trkpt lat="58.784206667" lon="7.298910000">
<time>2014-01-11T13:07:34Z</time>
 <fix>2d</fix>
 <sat>8</sat>
</trkpt>
<trkpt lat="58.784201667" lon="7.298878333">
<time>2014-01-11T13:07:36Z</time>
 <fix>2d</fix>
 <sat>8</sat>
</trkpt>
<trkpt lat="58.784196667" lon="7.298846667">
<time>2014-01-11T13:07:38Z</time>
 <fix>2d</fix>
 <sat>8</sat>
</trkpt>
<trkpt lat="58.784193333" lon="7.298816667">
<time>2014-01-11T13:07:40Z</time>
 <fix>2d</fix>
 <sat>8</sat>
</trkpt>
<trkpt lat="58.784186667" lon="7.298786667">
<time>2014-01-11T13:07:42Z</time>
 <fix>2d</fix>
 <sat>8</sat>
</trkpt>
<trkpt lat="58.784183333" lon="7.298755000">
<time>2014-01-11T13:07:44Z</time>
 <fix>2d</fix>
 <sat>8</sat>
</trkpt>
<trkpt lat="58.784180000" lon="7.298725000">
<time>2014-01-11T13:07:46Z</time>
 <fix>2d</fix>
 <sat>8</sat>
</trkpt>
<trkpt lat="58.784176667" lon="7.298693333">
<time>2014-01-11T13:07:48Z</time>
 <fix>2d</fix>
 <sat>8</sat>
</trkpt>
<trkpt lat="58.784171667" lon="7.298668333">
<time>2014-01-11T13:07:50Z</time>
 <fix>2d</fix>
 <sat>8</sat>
</trkpt>
<trkpt lat="58.784168333" lon="7.298641667">
<time>2014-01-11T13:07:52Z</time>
 <fix>2d</fix>
 <sat>8</sat>
</trkpt>
<trkpt lat="58.784165000" lon="7.298615000">
<time>2014-01-11T13:07:54Z</time>
 <fix>2d</fix>
 <sat>8</sat>
</trkpt>
<trkpt lat="58.784161667" lon="7.298591667">
<time>2014-01-11T13:07:56Z</time>
 <fix>2d</fix>
 <sat>8</sat>
</trkpt>
<trkpt lat="58.784156667" lon="7.298563333">
<time>2014-01-11T13:07:58Z</time>
 <fix>2d</fix>
 <sat>8</sat>
</trkpt>
<trkpt lat="58.784153333" lon="7.298536667">
<time>2014-01-11T13:08:00Z</time>
 <fix>2d</fix>
 <sat>8</sat>
</trkpt>
<trkpt lat="58.784146667" lon="7.298508333">
<time>2014-01-11T13:08:02Z</time>
 <fix>2d</fix>
 <sat>8</sat>
</trkpt>
<trkpt lat="58.784143333" lon="7.298478333">
<time>2014-01-11T13:08:04Z</time>
 <fix>2d</fix>
 <sat>8</sat>
</trkpt>
<trkpt lat="58.784138333" lon="7.298448333">
<time>2014-01-11T13:08:06Z</time>
 <fix>2d</fix>
 <sat>8</sat>
</trkpt>
<trkpt lat="58.784135000" lon="7.298416667">
<time>2014-01-11T13:08:08Z</time>
 <fix>2d</fix>
 <sat>8</sat>
</trkpt>
<trkpt lat="58.784128333" lon="7.298376667">
<time>2014-01-11T13:08:10Z</time>
 <fix>2d</fix>
 <sat>8</sat>
</trkpt>
<trkpt lat="58.784123333" lon="7.298330000">
<time>2014-01-11T13:08:12Z</time>
 <fix>2d</fix>
 <sat>8</sat>
</trkpt>
<trkpt lat="58.784118333" lon="7.298276667">
<time>2014-01-11T13:08:14Z</time>
 <fix>2d</fix>
 <sat>8</sat>
</trkpt>
<trkpt lat="58.784113333" lon="7.298228333">
<time>2014-01-11T13:08:16Z</time>
 <fix>2d</fix>
 <sat>8</sat>
</trkpt>
<trkpt lat="58.784108333" lon="7.298181667">
<time>2014-01-11T13:08:18Z</time>
 <fix>2d</fix>
 <sat>8</sat>
</trkpt>
<trkpt lat="58.784105000" lon="7.298135000">
<time>2014-01-11T13:08:20Z</time>
 <fix>2d</fix>
 <sat>8</sat>
</trkpt>
<trkpt lat="58.784100000" lon="7.298090000">
<time>2014-01-11T13:08:22Z</time>
 <fix>2d</fix>
 <sat>8</sat>
</trkpt>
<trkpt lat="58.784098333" lon="7.298045000">
<time>2014-01-11T13:08:24Z</time>
 <fix>2d</fix>
 <sat>8</sat>
</trkpt>
<trkpt lat="58.784098333" lon="7.298000000">
<time>2014-01-11T13:08:26Z</time>
 <fix>2d</fix>
 <sat>8</sat>
</trkpt>
<trkpt lat="58.784096667" lon="7.297960000">
<time>2014-01-11T13:08:28Z</time>
 <fix>2d</fix>
 <sat>8</sat>
</trkpt>
<trkpt lat="58.784095000" lon="7.297926667">
<time>2014-01-11T13:08:30Z</time>
 <fix>2d</fix>
 <sat>8</sat>
</trkpt>
<trkpt lat="58.784095000" lon="7.297886667">
<time>2014-01-11T13:08:32Z</time>
 <fix>2d</fix>
 <sat>8</sat>
</trkpt>
<trkpt lat="58.784091667" lon="7.297850000">
<time>2014-01-11T13:08:34Z</time>
 <fix>2d</fix>
 <sat>8</sat>
</trkpt>
<trkpt lat="58.784095000" lon="7.297815000">
<time>2014-01-11T13:08:36Z</time>
 <fix>2d</fix>
 <sat>8</sat>
</trkpt>
<trkpt lat="58.784096667" lon="7.297768333">
<time>2014-01-11T13:08:38Z</time>
 <fix>2d</fix>
 <sat>8</sat>
</trkpt>
<trkpt lat="58.784096667" lon="7.297720000">
<time>2014-01-11T13:08:40Z</time>
 <fix>2d</fix>
 <sat>8</sat>
</trkpt>
<trkpt lat="58.784098333" lon="7.297673333">
<time>2014-01-11T13:08:42Z</time>
 <fix>2d</fix>
 <sat>8</sat>
</trkpt>
<trkpt lat="58.784100000" lon="7.297630000">
<time>2014-01-11T13:08:44Z</time>
 <fix>2d</fix>
 <sat>8</sat>
</trkpt>
<trkpt lat="58.784100000" lon="7.297588333">
<time>2014-01-11T13:08:46Z</time>
 <fix>2d</fix>
 <sat>8</sat>
</trkpt>
<trkpt lat="58.784100000" lon="7.297551667">
<time>2014-01-11T13:08:48Z</time>
 <fix>2d</fix>
 <sat>8</sat>
</trkpt>
<trkpt lat="58.784096667" lon="7.297508333">
<time>2014-01-11T13:08:50Z</time>
 <fix>2d</fix>
 <sat>8</sat>
</trkpt>
<trkpt lat="58.784095000" lon="7.297466667">
<time>2014-01-11T13:08:52Z</time>
 <fix>2d</fix>
 <sat>8</sat>
</trkpt>
<trkpt lat="58.784088333" lon="7.297420000">
<time>2014-01-11T13:08:54Z</time>
 <fix>2d</fix>
 <sat>8</sat>
</trkpt>
<trkpt lat="58.784080000" lon="7.297368333">
<time>2014-01-11T13:08:56Z</time>
 <fix>2d</fix>
 <sat>8</sat>
</trkpt>
<trkpt lat="58.784065000" lon="7.297305000">
<time>2014-01-11T13:08:58Z</time>
 <fix>2d</fix>
 <sat>8</sat>
</trkpt>
<trkpt lat="58.784036667" lon="7.297231667">
<time>2014-01-11T13:09:00Z</time>
 <fix>2d</fix>
 <sat>8</sat>
</trkpt>
<trkpt lat="58.784001667" lon="7.297160000">
<time>2014-01-11T13:09:02Z</time>
 <fix>2d</fix>
 <sat>8</sat>
</trkpt>
<trkpt lat="58.783961667" lon="7.297081667">
<time>2014-01-11T13:09:04Z</time>
 <fix>2d</fix>
 <sat>8</sat>
</trkpt>
<trkpt lat="58.783918333" lon="7.297001667">
<time>2014-01-11T13:09:06Z</time>
 <fix>2d</fix>
 <sat>8</sat>
</trkpt>
<trkpt lat="58.783878333" lon="7.296928333">
<time>2014-01-11T13:09:08Z</time>
 <fix>2d</fix>
 <sat>8</sat>
</trkpt>
<trkpt lat="58.783851667" lon="7.296880000">
<time>2014-01-11T13:09:10Z</time>
 <fix>2d</fix>
 <sat>8</sat>
</trkpt>
<trkpt lat="58.783826667" lon="7.296833333">
<time>2014-01-11T13:09:12Z</time>
 <fix>2d</fix>
 <sat>8</sat>
</trkpt>
<trkpt lat="58.783803333" lon="7.296793333">
<time>2014-01-11T13:09:14Z</time>
 <fix>2d</fix>
 <sat>8</sat>
</trkpt>
<trkpt lat="58.783780000" lon="7.296746667">
<time>2014-01-11T13:09:16Z</time>
 <fix>2d</fix>
 <sat>8</sat>
</trkpt>
<trkpt lat="58.783758333" lon="7.296708333">
<time>2014-01-11T13:09:18Z</time>
 <fix>2d</fix>
 <sat>8</sat>
</trkpt>
<trkpt lat="58.783733333" lon="7.296666667">
<time>2014-01-11T13:09:20Z</time>
 <fix>2d</fix>
 <sat>8</sat>
</trkpt>
<trkpt lat="58.783713333" lon="7.296630000">
<time>2014-01-11T13:09:22Z</time>
 <fix>2d</fix>
 <sat>8</sat>
</trkpt>
<trkpt lat="58.783693333" lon="7.296591667">
<time>2014-01-11T13:09:24Z</time>
 <fix>2d</fix>
 <sat>8</sat>
</trkpt>
<trkpt lat="58.783670000" lon="7.296553333">
<time>2014-01-11T13:09:26Z</time>
 <fix>2d</fix>
 <sat>8</sat>
</trkpt>
<trkpt lat="58.783650000" lon="7.296516667">
<time>2014-01-11T13:09:28Z</time>
 <fix>2d</fix>
 <sat>8</sat>
</trkpt>
<trkpt lat="58.783628333" lon="7.296480000">
<time>2014-01-11T13:09:30Z</time>
 <fix>2d</fix>
 <sat>8</sat>
</trkpt>
<trkpt lat="58.783606667" lon="7.296445000">
<time>2014-01-11T13:09:32Z</time>
 <fix>2d</fix>
 <sat>8</sat>
</trkpt>
<trkpt lat="58.783591667" lon="7.296421667">
<time>2014-01-11T13:09:34Z</time>
 <fix>2d</fix>
 <sat>8</sat>
</trkpt>
<trkpt lat="58.783573333" lon="7.296396667">
<time>2014-01-11T13:09:36Z</time>
 <fix>2d</fix>
 <sat>8</sat>
</trkpt>
<trkpt lat="58.783558333" lon="7.296373333">
<time>2014-01-11T13:09:38Z</time>
 <fix>2d</fix>
 <sat>8</sat>
</trkpt>
<trkpt lat="58.783543333" lon="7.296346667">
<time>2014-01-11T13:09:40Z</time>
 <fix>2d</fix>
 <sat>8</sat>
</trkpt>
<trkpt lat="58.783526667" lon="7.296318333">
<time>2014-01-11T13:09:42Z</time>
 <fix>2d</fix>
 <sat>8</sat>
</trkpt>
<trkpt lat="58.783511667" lon="7.296291667">
<time>2014-01-11T13:09:44Z</time>
 <fix>2d</fix>
 <sat>8</sat>
</trkpt>
<trkpt lat="58.783496667" lon="7.296265000">
<time>2014-01-11T13:09:46Z</time>
 <fix>2d</fix>
 <sat>8</sat>
</trkpt>
<trkpt lat="58.783483333" lon="7.296238333">
<time>2014-01-11T13:09:48Z</time>
 <fix>2d</fix>
 <sat>8</sat>
</trkpt>
<trkpt lat="58.783471667" lon="7.296215000">
<time>2014-01-11T13:09:50Z</time>
 <fix>2d</fix>
 <sat>8</sat>
</trkpt>
<trkpt lat="58.783460000" lon="7.296195000">
<time>2014-01-11T13:09:52Z</time>
 <fix>2d</fix>
 <sat>9</sat>
</trkpt>
<trkpt lat="58.783450000" lon="7.296175000">
<time>2014-01-11T13:09:54Z</time>
 <fix>2d</fix>
 <sat>9</sat>
</trkpt>
<trkpt lat="58.783436667" lon="7.296160000">
<time>2014-01-11T13:09:56Z</time>
 <fix>2d</fix>
 <sat>9</sat>
</trkpt>
<trkpt lat="58.783428333" lon="7.296143333">
<time>2014-01-11T13:09:58Z</time>
 <fix>2d</fix>
 <sat>9</sat>
</trkpt>
<trkpt lat="58.783416667" lon="7.296128333">
<time>2014-01-11T13:10:00Z</time>
 <fix>2d</fix>
 <sat>9</sat>
</trkpt>
<trkpt lat="58.783410000" lon="7.296115000">
<time>2014-01-11T13:10:02Z</time>
 <fix>2d</fix>
 <sat>9</sat>
</trkpt>
<trkpt lat="58.783401667" lon="7.296100000">
<time>2014-01-11T13:10:04Z</time>
 <fix>2d</fix>
 <sat>9</sat>
</trkpt>
<trkpt lat="58.783391667" lon="7.296086667">
<time>2014-01-11T13:10:06Z</time>
 <fix>2d</fix>
 <sat>9</sat>
</trkpt>
<trkpt lat="58.783385000" lon="7.296070000">
<time>2014-01-11T13:10:08Z</time>
 <fix>2d</fix>
 <sat>9</sat>
</trkpt>
<trkpt lat="58.783380000" lon="7.296051667">
<time>2014-01-11T13:10:10Z</time>
 <fix>2d</fix>
 <sat>9</sat>
</trkpt>
<trkpt lat="58.783376667" lon="7.296035000">
<time>2014-01-11T13:10:12Z</time>
 <fix>2d</fix>
 <sat>9</sat>
</trkpt>
<trkpt lat="58.783371667" lon="7.296018333">
<time>2014-01-11T13:10:14Z</time>
 <fix>2d</fix>
 <sat>9</sat>
</trkpt>
<trkpt lat="58.783365000" lon="7.296005000">
<time>2014-01-11T13:10:16Z</time>
 <fix>2d</fix>
 <sat>9</sat>
</trkpt>
<trkpt lat="58.783360000" lon="7.295995000">
<time>2014-01-11T13:10:18Z</time>
 <fix>2d</fix>
 <sat>9</sat>
</trkpt>
<trkpt lat="58.783353333" lon="7.295981667">
<time>2014-01-11T13:10:20Z</time>
 <fix>2d</fix>
 <sat>9</sat>
</trkpt>
<trkpt lat="58.783345000" lon="7.295970000">
<time>2014-01-11T13:10:22Z</time>
 <fix>2d</fix>
 <sat>9</sat>
</trkpt>
<trkpt lat="58.783338333" lon="7.295956667">
<time>2014-01-11T13:10:24Z</time>
 <fix>2d</fix>
 <sat>9</sat>
</trkpt>
<trkpt lat="58.783321667" lon="7.295948333">
<time>2014-01-11T13:10:26Z</time>
 <fix>2d</fix>
 <sat>9</sat>
</trkpt>
<trkpt lat="58.783311667" lon="7.295938333">
<time>2014-01-11T13:10:28Z</time>
 <fix>2d</fix>
 <sat>9</sat>
</trkpt>
<trkpt lat="58.783290000" lon="7.295925000">
<time>2014-01-11T13:10:30Z</time>
 <fix>2d</fix>
 <sat>9</sat>
</trkpt>
<trkpt lat="58.783270000" lon="7.295888333">
<time>2014-01-11T13:10:32Z</time>
 <fix>2d</fix>
 <sat>9</sat>
</trkpt>
<trkpt lat="58.783248333" lon="7.295845000">
<time>2014-01-11T13:10:34Z</time>
 <fix>2d</fix>
 <sat>9</sat>
</trkpt>
<trkpt lat="58.783226667" lon="7.295798333">
<time>2014-01-11T13:10:36Z</time>
 <fix>2d</fix>
 <sat>9</sat>
</trkpt>
<trkpt lat="58.783200000" lon="7.295746667">
<time>2014-01-11T13:10:38Z</time>
 <fix>2d</fix>
 <sat>9</sat>
</trkpt>
<trkpt lat="58.783175000" lon="7.295696667">
<time>2014-01-11T13:10:40Z</time>
 <fix>2d</fix>
 <sat>9</sat>
</trkpt>
<trkpt lat="58.783155000" lon="7.295650000">
<time>2014-01-11T13:10:42Z</time>
 <fix>2d</fix>
 <sat>9</sat>
</trkpt>
<trkpt lat="58.783133333" lon="7.295603333">
<time>2014-01-11T13:10:44Z</time>
 <fix>2d</fix>
 <sat>9</sat>
</trkpt>
<trkpt lat="58.783110000" lon="7.295565000">
<time>2014-01-11T13:10:46Z</time>
 <fix>2d</fix>
 <sat>9</sat>
</trkpt>
<trkpt lat="58.783086667" lon="7.295516667">
<time>2014-01-11T13:10:48Z</time>
 <fix>2d</fix>
 <sat>9</sat>
</trkpt>
<trkpt lat="58.783058333" lon="7.295466667">
<time>2014-01-11T13:10:50Z</time>
 <fix>2d</fix>
 <sat>9</sat>
</trkpt>
<trkpt lat="58.783030000" lon="7.295410000">
<time>2014-01-11T13:10:52Z</time>
 <fix>2d</fix>
 <sat>9</sat>
</trkpt>
<trkpt lat="58.782990000" lon="7.295341667">
<time>2014-01-11T13:10:54Z</time>
 <fix>2d</fix>
 <sat>9</sat>
</trkpt>
<trkpt lat="58.782943333" lon="7.295258333">
<time>2014-01-11T13:10:56Z</time>
 <fix>2d</fix>
 <sat>9</sat>
</trkpt>
<trkpt lat="58.782891667" lon="7.295168333">
<time>2014-01-11T13:10:58Z</time>
 <fix>2d</fix>
 <sat>9</sat>
</trkpt>
<trkpt lat="58.782840000" lon="7.295078333">
<time>2014-01-11T13:11:00Z</time>
 <fix>2d</fix>
 <sat>9</sat>
</trkpt>
<trkpt lat="58.782781667" lon="7.294980000">
<time>2014-01-11T13:11:02Z</time>
 <fix>2d</fix>
 <sat>8</sat>
</trkpt>
<trkpt lat="58.782728333" lon="7.294890000">
<time>2014-01-11T13:11:04Z</time>
 <fix>2d</fix>
 <sat>8</sat>
</trkpt>
<trkpt lat="58.782663333" lon="7.294778333">
<time>2014-01-11T13:11:06Z</time>
 <fix>2d</fix>
 <sat>8</sat>
</trkpt>
<trkpt lat="58.782608333" lon="7.294651667">
<time>2014-01-11T13:11:08Z</time>
 <fix>2d</fix>
 <sat>8</sat>
</trkpt>
<trkpt lat="58.782568333" lon="7.294526667">
<time>2014-01-11T13:11:10Z</time>
 <fix>2d</fix>
 <sat>9</sat>
</trkpt>
<trkpt lat="58.782540000" lon="7.294426667">
<time>2014-01-11T13:11:12Z</time>
 <fix>2d</fix>
 <sat>9</sat>
</trkpt>
<trkpt lat="58.782520000" lon="7.294351667">
<time>2014-01-11T13:11:14Z</time>
 <fix>2d</fix>
 <sat>9</sat>
</trkpt>
<trkpt lat="58.782500000" lon="7.294291667">
<time>2014-01-11T13:11:16Z</time>
 <fix>2d</fix>
 <sat>9</sat>
</trkpt>
<trkpt lat="58.782481667" lon="7.294240000">
<time>2014-01-11T13:11:18Z</time>
 <fix>2d</fix>
 <sat>9</sat>
</trkpt>
<trkpt lat="58.782460000" lon="7.294193333">
<time>2014-01-11T13:11:20Z</time>
 <fix>2d</fix>
 <sat>9</sat>
</trkpt>
<trkpt lat="58.782438333" lon="7.294150000">
<time>2014-01-11T13:11:22Z</time>
 <fix>2d</fix>
 <sat>9</sat>
</trkpt>
<trkpt lat="58.782418333" lon="7.294113333">
<time>2014-01-11T13:11:24Z</time>
 <fix>2d</fix>
 <sat>9</sat>
</trkpt>
<trkpt lat="58.782396667" lon="7.294083333">
<time>2014-01-11T13:11:26Z</time>
 <fix>2d</fix>
 <sat>9</sat>
</trkpt>
<trkpt lat="58.782375000" lon="7.294061667">
<time>2014-01-11T13:11:28Z</time>
 <fix>2d</fix>
 <sat>9</sat>
</trkpt>
<trkpt lat="58.782355000" lon="7.294048333">
<time>2014-01-11T13:11:30Z</time>
 <fix>2d</fix>
 <sat>9</sat>
</trkpt>
<trkpt lat="58.782331667" lon="7.294038333">
<time>2014-01-11T13:11:32Z</time>
 <fix>2d</fix>
 <sat>9</sat>
</trkpt>
<trkpt lat="58.782308333" lon="7.294025000">
<time>2014-01-11T13:11:34Z</time>
 <fix>2d</fix>
 <sat>9</sat>
</trkpt>
<trkpt lat="58.782288333" lon="7.294013333">
<time>2014-01-11T13:11:36Z</time>
 <fix>2d</fix>
 <sat>9</sat>
</trkpt>
<trkpt lat="58.782268333" lon="7.294008333">
<time>2014-01-11T13:11:38Z</time>
 <fix>2d</fix>
 <sat>9</sat>
</trkpt>
<trkpt lat="58.782246667" lon="7.294006667">
<time>2014-01-11T13:11:40Z</time>
 <fix>2d</fix>
 <sat>9</sat>
</trkpt>
<trkpt lat="58.782223333" lon="7.294006667">
<time>2014-01-11T13:11:42Z</time>
 <fix>2d</fix>
 <sat>9</sat>
</trkpt>
<trkpt lat="58.782201667" lon="7.294008333">
<time>2014-01-11T13:11:44Z</time>
 <fix>2d</fix>
 <sat>9</sat>
</trkpt>
<trkpt lat="58.782180000" lon="7.294013333">
<time>2014-01-11T13:11:46Z</time>
 <fix>2d</fix>
 <sat>9</sat>
</trkpt>
<trkpt lat="58.782158333" lon="7.294016667">
<time>2014-01-11T13:11:48Z</time>
 <fix>2d</fix>
 <sat>9</sat>
</trkpt>
<trkpt lat="58.782133333" lon="7.294020000">
<time>2014-01-11T13:11:50Z</time>
 <fix>2d</fix>
 <sat>9</sat>
</trkpt>
<trkpt lat="58.782106667" lon="7.294026667">
<time>2014-01-11T13:11:52Z</time>
 <fix>2d</fix>
 <sat>9</sat>
</trkpt>
<trkpt lat="58.782078333" lon="7.294030000">
<time>2014-01-11T13:11:54Z</time>
 <fix>2d</fix>
 <sat>9</sat>
</trkpt>
<trkpt lat="58.782048333" lon="7.294036667">
<time>2014-01-11T13:11:56Z</time>
 <fix>2d</fix>
 <sat>9</sat>
</trkpt>
<trkpt lat="58.782010000" lon="7.294041667">
<time>2014-01-11T13:11:58Z</time>
 <fix>2d</fix>
 <sat>9</sat>
</trkpt>
<trkpt lat="58.781971667" lon="7.294046667">
<time>2014-01-11T13:12:00Z</time>
 <fix>2d</fix>
 <sat>9</sat>
</trkpt>
<trkpt lat="58.781931667" lon="7.294046667">
<time>2014-01-11T13:12:02Z</time>
 <fix>2d</fix>
 <sat>9</sat>
</trkpt>
<trkpt lat="58.781893333" lon="7.294045000">
<time>2014-01-11T13:12:04Z</time>
 <fix>2d</fix>
 <sat>9</sat>
</trkpt>
<trkpt lat="58.781856667" lon="7.294041667">
<time>2014-01-11T13:12:06Z</time>
 <fix>2d</fix>
 <sat>9</sat>
</trkpt>
<trkpt lat="58.781823333" lon="7.294036667">
<time>2014-01-11T13:12:08Z</time>
 <fix>2d</fix>
 <sat>9</sat>
</trkpt>
<trkpt lat="58.781791667" lon="7.294031667">
<time>2014-01-11T13:12:10Z</time>
 <fix>2d</fix>
 <sat>9</sat>
</trkpt>
<trkpt lat="58.781763333" lon="7.294020000">
<time>2014-01-11T13:12:12Z</time>
 <fix>2d</fix>
 <sat>9</sat>
</trkpt>
<trkpt lat="58.781738333" lon="7.294008333">
<time>2014-01-11T13:12:14Z</time>
 <fix>2d</fix>
 <sat>9</sat>
</trkpt>
<trkpt lat="58.781708333" lon="7.293996667">
<time>2014-01-11T13:12:16Z</time>
 <fix>2d</fix>
 <sat>9</sat>
</trkpt>
<trkpt lat="58.781681667" lon="7.293976667">
<time>2014-01-11T13:12:18Z</time>
 <fix>2d</fix>
 <sat>9</sat>
</trkpt>
<trkpt lat="58.781651667" lon="7.293951667">
<time>2014-01-11T13:12:20Z</time>
 <fix>2d</fix>
 <sat>9</sat>
</trkpt>
<trkpt lat="58.781620000" lon="7.293920000">
<time>2014-01-11T13:12:22Z</time>
 <fix>2d</fix>
 <sat>9</sat>
</trkpt>
<trkpt lat="58.781588333" lon="7.293885000">
<time>2014-01-11T13:12:24Z</time>
 <fix>2d</fix>
 <sat>9</sat>
</trkpt>
<trkpt lat="58.781560000" lon="7.293841667">
<time>2014-01-11T13:12:26Z</time>
 <fix>2d</fix>
 <sat>9</sat>
</trkpt>
<trkpt lat="58.781533333" lon="7.293795000">
<time>2014-01-11T13:12:28Z</time>
 <fix>2d</fix>
 <sat>9</sat>
</trkpt>
<trkpt lat="58.781508333" lon="7.293741667">
<time>2014-01-11T13:12:30Z</time>
 <fix>2d</fix>
 <sat>9</sat>
</trkpt>
<trkpt lat="58.781481667" lon="7.293686667">
<time>2014-01-11T13:12:32Z</time>
 <fix>2d</fix>
 <sat>9</sat>
</trkpt>
<trkpt lat="58.781458333" lon="7.293631667">
<time>2014-01-11T13:12:34Z</time>
 <fix>2d</fix>
 <sat>9</sat>
</trkpt>
<trkpt lat="58.781431667" lon="7.293576667">
<time>2014-01-11T13:12:36Z</time>
 <fix>2d</fix>
 <sat>9</sat>
</trkpt>
<trkpt lat="58.781410000" lon="7.293531667">
<time>2014-01-11T13:12:38Z</time>
 <fix>2d</fix>
 <sat>9</sat>
</trkpt>
<trkpt lat="58.781388333" lon="7.293483333">
<time>2014-01-11T13:12:40Z</time>
 <fix>2d</fix>
 <sat>9</sat>
</trkpt>
<trkpt lat="58.781363333" lon="7.293435000">
<time>2014-01-11T13:12:42Z</time>
 <fix>2d</fix>
 <sat>9</sat>
</trkpt>
<trkpt lat="58.781331667" lon="7.293388333">
<time>2014-01-11T13:12:44Z</time>
 <fix>2d</fix>
 <sat>9</sat>
</trkpt>
<trkpt lat="58.781298333" lon="7.293346667">
<time>2014-01-11T13:12:46Z</time>
 <fix>2d</fix>
 <sat>10</sat>
</trkpt>
<trkpt lat="58.781268333" lon="7.293315000">
<time>2014-01-11T13:12:48Z</time>
 <fix>2d</fix>
 <sat>10</sat>
</trkpt>
<trkpt lat="58.781240000" lon="7.293285000">
<time>2014-01-11T13:12:50Z</time>
 <fix>2d</fix>
 <sat>10</sat>
</trkpt>
<trkpt lat="58.781213333" lon="7.293258333">
<time>2014-01-11T13:12:52Z</time>
 <fix>2d</fix>
 <sat>10</sat>
</trkpt>
<trkpt lat="58.781188333" lon="7.293235000">
<time>2014-01-11T13:12:54Z</time>
 <fix>2d</fix>
 <sat>10</sat>
</trkpt>
<trkpt lat="58.781163333" lon="7.293215000">
<time>2014-01-11T13:12:56Z</time>
 <fix>2d</fix>
 <sat>10</sat>
</trkpt>
<trkpt lat="58.781140000" lon="7.293191667">
<time>2014-01-11T13:12:58Z</time>
 <fix>2d</fix>
 <sat>10</sat>
</trkpt>
<trkpt lat="58.781113333" lon="7.293168333">
<time>2014-01-11T13:13:00Z</time>
 <fix>2d</fix>
 <sat>10</sat>
</trkpt>
<trkpt lat="58.781088333" lon="7.293145000">
<time>2014-01-11T13:13:02Z</time>
 <fix>2d</fix>
 <sat>10</sat>
</trkpt>
<trkpt lat="58.781065000" lon="7.293126667">
<time>2014-01-11T13:13:04Z</time>
 <fix>2d</fix>
 <sat>10</sat>
</trkpt>
<trkpt lat="58.781045000" lon="7.293110000">
<time>2014-01-11T13:13:06Z</time>
 <fix>2d</fix>
 <sat>10</sat>
</trkpt>
<trkpt lat="58.781028333" lon="7.293083333">
<time>2014-01-11T13:13:08Z</time>
 <fix>2d</fix>
 <sat>10</sat>
</trkpt>
<trkpt lat="58.781010000" lon="7.293051667">
<time>2014-01-11T13:13:10Z</time>
 <fix>2d</fix>
 <sat>10</sat>
</trkpt>
<trkpt lat="58.780991667" lon="7.293020000">
<time>2014-01-11T13:13:12Z</time>
 <fix>2d</fix>
 <sat>10</sat>
</trkpt>
<trkpt lat="58.780973333" lon="7.292986667">
<time>2014-01-11T13:13:14Z</time>
 <fix>2d</fix>
 <sat>10</sat>
</trkpt>
<trkpt lat="58.780955000" lon="7.292955000">
<time>2014-01-11T13:13:16Z</time>
 <fix>2d</fix>
 <sat>10</sat>
</trkpt>
<trkpt lat="58.780941667" lon="7.292926667">
<time>2014-01-11T13:13:18Z</time>
 <fix>2d</fix>
 <sat>10</sat>
</trkpt>
<trkpt lat="58.780931667" lon="7.292898333">
<time>2014-01-11T13:13:20Z</time>
 <fix>2d</fix>
 <sat>10</sat>
</trkpt>
<trkpt lat="58.780921667" lon="7.292871667">
<time>2014-01-11T13:13:22Z</time>
 <fix>2d</fix>
 <sat>10</sat>
</trkpt>
<trkpt lat="58.780915000" lon="7.292840000">
<time>2014-01-11T13:13:24Z</time>
 <fix>2d</fix>
 <sat>10</sat>
</trkpt>
<trkpt lat="58.780905000" lon="7.292810000">
<time>2014-01-11T13:13:26Z</time>
 <fix>2d</fix>
 <sat>10</sat>
</trkpt>
<trkpt lat="58.780895000" lon="7.292783333">
<time>2014-01-11T13:13:28Z</time>
 <fix>2d</fix>
 <sat>10</sat>
</trkpt>
<trkpt lat="58.780888333" lon="7.292753333">
<time>2014-01-11T13:13:30Z</time>
 <fix>2d</fix>
 <sat>10</sat>
</trkpt>
<trkpt lat="58.780883333" lon="7.292723333">
<time>2014-01-11T13:13:32Z</time>
 <fix>2d</fix>
 <sat>10</sat>
</trkpt>
<trkpt lat="58.780876667" lon="7.292691667">
<time>2014-01-11T13:13:34Z</time>
 <fix>2d</fix>
 <sat>10</sat>
</trkpt>
<trkpt lat="58.780871667" lon="7.292658333">
<time>2014-01-11T13:13:36Z</time>
 <fix>2d</fix>
 <sat>10</sat>
</trkpt>
<trkpt lat="58.780868333" lon="7.292628333">
<time>2014-01-11T13:13:38Z</time>
 <fix>2d</fix>
 <sat>10</sat>
</trkpt>
<trkpt lat="58.780863333" lon="7.292596667">
<time>2014-01-11T13:13:40Z</time>
 <fix>2d</fix>
 <sat>10</sat>
</trkpt>
<trkpt lat="58.780861667" lon="7.292566667">
<time>2014-01-11T13:13:42Z</time>
 <fix>2d</fix>
 <sat>10</sat>
</trkpt>
<trkpt lat="58.780860000" lon="7.292526667">
<time>2014-01-11T13:13:44Z</time>
 <fix>2d</fix>
 <sat>10</sat>
</trkpt>
<trkpt lat="58.780858333" lon="7.292491667">
<time>2014-01-11T13:13:46Z</time>
 <fix>2d</fix>
 <sat>9</sat>
</trkpt>
<trkpt lat="58.780858333" lon="7.292451667">
<time>2014-01-11T13:13:48Z</time>
 <fix>2d</fix>
 <sat>9</sat>
</trkpt>
<trkpt lat="58.780858333" lon="7.292405000">
<time>2014-01-11T13:13:50Z</time>
 <fix>2d</fix>
 <sat>10</sat>
</trkpt>
<trkpt lat="58.780860000" lon="7.292360000">
<time>2014-01-11T13:13:52Z</time>
 <fix>2d</fix>
 <sat>10</sat>
</trkpt>
<trkpt lat="58.780860000" lon="7.292313333">
<time>2014-01-11T13:13:54Z</time>
 <fix>2d</fix>
 <sat>10</sat>
</trkpt>
<trkpt lat="58.780860000" lon="7.292271667">
<time>2014-01-11T13:13:56Z</time>
 <fix>2d</fix>
 <sat>10</sat>
</trkpt>
<trkpt lat="58.780861667" lon="7.292230000">
<time>2014-01-11T13:13:58Z</time>
 <fix>2d</fix>
 <sat>10</sat>
</trkpt>
<trkpt lat="58.780865000" lon="7.292180000">
<time>2014-01-11T13:14:00Z</time>
 <fix>2d</fix>
 <sat>10</sat>
</trkpt>
<trkpt lat="58.780868333" lon="7.292123333">
<time>2014-01-11T13:14:02Z</time>
 <fix>2d</fix>
 <sat>10</sat>
</trkpt>
<trkpt lat="58.780870000" lon="7.292061667">
<time>2014-01-11T13:14:04Z</time>
 <fix>2d</fix>
 <sat>10</sat>
</trkpt>
<trkpt lat="58.780870000" lon="7.292001667">
<time>2014-01-11T13:14:06Z</time>
 <fix>2d</fix>
 <sat>10</sat>
</trkpt>
<trkpt lat="58.780866667" lon="7.291948333">
<time>2014-01-11T13:14:08Z</time>
 <fix>2d</fix>
 <sat>9</sat>
</trkpt>
<trkpt lat="58.780861667" lon="7.291900000">
<time>2014-01-11T13:14:10Z</time>
 <fix>2d</fix>
 <sat>9</sat>
</trkpt>
<trkpt lat="58.780856667" lon="7.291848333">
<time>2014-01-11T13:14:12Z</time>
 <fix>2d</fix>
 <sat>9</sat>
</trkpt>
<trkpt lat="58.780846667" lon="7.291800000">
<time>2014-01-11T13:14:14Z</time>
 <fix>2d</fix>
 <sat>10</sat>
</trkpt>
<trkpt lat="58.780836667" lon="7.291756667">
<time>2014-01-11T13:14:16Z</time>
 <fix>2d</fix>
 <sat>10</sat>
</trkpt>
<trkpt lat="58.780820000" lon="7.291708333">
<time>2014-01-11T13:14:18Z</time>
 <fix>2d</fix>
 <sat>10</sat>
</trkpt>
<trkpt lat="58.780793333" lon="7.291646667">
<time>2014-01-11T13:14:20Z</time>
 <fix>2d</fix>
 <sat>10</sat>
</trkpt>
<trkpt lat="58.780756667" lon="7.291561667">
<time>2014-01-11T13:14:22Z</time>
 <fix>2d</fix>
 <sat>10</sat>
</trkpt>
<trkpt lat="58.780700000" lon="7.291445000">
<time>2014-01-11T13:14:24Z</time>
 <fix>2d</fix>
 <sat>10</sat>
</trkpt>
<trkpt lat="58.780633333" lon="7.291313333">
<time>2014-01-11T13:14:26Z</time>
 <fix>2d</fix>
 <sat>10</sat>
</trkpt>
<trkpt lat="58.780598333" lon="7.291243333">
<time>2014-01-11T13:14:28Z</time>
 <fix>2d</fix>
 <sat>10</sat>
</trkpt>
<trkpt lat="58.780580000" lon="7.291206667">
<time>2014-01-11T13:14:30Z</time>
 <fix>2d</fix>
 <sat>10</sat>
</trkpt>
<trkpt lat="58.780561667" lon="7.291170000">
<time>2014-01-11T13:14:32Z</time>
 <fix>2d</fix>
 <sat>10</sat>
</trkpt>
<trkpt lat="58.780543333" lon="7.291131667">
<time>2014-01-11T13:14:34Z</time>
 <fix>2d</fix>
 <sat>10</sat>
</trkpt>
<trkpt lat="58.780525000" lon="7.291095000">
<time>2014-01-11T13:14:36Z</time>
 <fix>2d</fix>
 <sat>10</sat>
</trkpt>
<trkpt lat="58.780508333" lon="7.291060000">
<time>2014-01-11T13:14:38Z</time>
 <fix>2d</fix>
 <sat>10</sat>
</trkpt>
<trkpt lat="58.780496667" lon="7.291028333">
<time>2014-01-11T13:14:40Z</time>
 <fix>2d</fix>
 <sat>10</sat>
</trkpt>
<trkpt lat="58.780488333" lon="7.291000000">
<time>2014-01-11T13:14:42Z</time>
 <fix>2d</fix>
 <sat>10</sat>
</trkpt>
<trkpt lat="58.780478333" lon="7.290975000">
<time>2014-01-11T13:14:44Z</time>
 <fix>2d</fix>
 <sat>10</sat>
</trkpt>
<trkpt lat="58.780468333" lon="7.290946667">
<time>2014-01-11T13:14:46Z</time>
 <fix>2d</fix>
 <sat>10</sat>
</trkpt>
<trkpt lat="58.780458333" lon="7.290920000">
<time>2014-01-11T13:14:48Z</time>
 <fix>2d</fix>
 <sat>10</sat>
</trkpt>
<trkpt lat="58.780451667" lon="7.290893333">
<time>2014-01-11T13:14:50Z</time>
 <fix>2d</fix>
 <sat>10</sat>
</trkpt>
<trkpt lat="58.780441667" lon="7.290868333">
<time>2014-01-11T13:14:52Z</time>
 <fix>2d</fix>
 <sat>10</sat>
</trkpt>
<trkpt lat="58.780435000" lon="7.290845000">
<time>2014-01-11T13:14:54Z</time>
 <fix>2d</fix>
 <sat>10</sat>
</trkpt>
<trkpt lat="58.780426667" lon="7.290818333">
<time>2014-01-11T13:14:56Z</time>
 <fix>2d</fix>
 <sat>10</sat>
</trkpt>
<trkpt lat="58.780421667" lon="7.290781667">
<time>2014-01-11T13:14:58Z</time>
 <fix>2d</fix>
 <sat>10</sat>
</trkpt>
<trkpt lat="58.780418333" lon="7.290738333">
<time>2014-01-11T13:15:00Z</time>
 <fix>2d</fix>
 <sat>10</sat>
</trkpt>
<trkpt lat="58.780411667" lon="7.290695000">
<time>2014-01-11T13:15:02Z</time>
 <fix>2d</fix>
 <sat>10</sat>
</trkpt>
<trkpt lat="58.780405000" lon="7.290640000">
<time>2014-01-11T13:15:04Z</time>
 <fix>2d</fix>
 <sat>10</sat>
</trkpt>
<trkpt lat="58.780398333" lon="7.290583333">
<time>2014-01-11T13:15:06Z</time>
 <fix>2d</fix>
 <sat>10</sat>
</trkpt>
<trkpt lat="58.780391667" lon="7.290530000">
<time>2014-01-11T13:15:08Z</time>
 <fix>2d</fix>
 <sat>10</sat>
</trkpt>
<trkpt lat="58.780386667" lon="7.290476667">
<time>2014-01-11T13:15:10Z</time>
 <fix>2d</fix>
 <sat>10</sat>
</trkpt>
<trkpt lat="58.780381667" lon="7.290425000">
<time>2014-01-11T13:15:12Z</time>
 <fix>2d</fix>
 <sat>10</sat>
</trkpt>
<trkpt lat="58.780376667" lon="7.290390000">
<time>2014-01-11T13:15:14Z</time>
 <fix>2d</fix>
 <sat>10</sat>
</trkpt>
<trkpt lat="58.780373333" lon="7.290351667">
<time>2014-01-11T13:15:16Z</time>
 <fix>2d</fix>
 <sat>10</sat>
</trkpt>
<trkpt lat="58.780370000" lon="7.290311667">
<time>2014-01-11T13:15:18Z</time>
 <fix>2d</fix>
 <sat>10</sat>
</trkpt>
<trkpt lat="58.780366667" lon="7.290280000">
<time>2014-01-11T13:15:20Z</time>
 <fix>2d</fix>
 <sat>10</sat>
</trkpt>
<trkpt lat="58.780361667" lon="7.290245000">
<time>2014-01-11T13:15:22Z</time>
 <fix>2d</fix>
 <sat>10</sat>
</trkpt>
<trkpt lat="58.780355000" lon="7.290205000">
<time>2014-01-11T13:15:24Z</time>
 <fix>2d</fix>
 <sat>10</sat>
</trkpt>
<trkpt lat="58.780348333" lon="7.290165000">
<time>2014-01-11T13:15:26Z</time>
 <fix>2d</fix>
 <sat>10</sat>
</trkpt>
<trkpt lat="58.780340000" lon="7.290118333">
<time>2014-01-11T13:15:28Z</time>
 <fix>2d</fix>
 <sat>10</sat>
</trkpt>
<trkpt lat="58.780333333" lon="7.290071667">
<time>2014-01-11T13:15:30Z</time>
 <fix>2d</fix>
 <sat>10</sat>
</trkpt>
<trkpt lat="58.780328333" lon="7.290020000">
<time>2014-01-11T13:15:32Z</time>
 <fix>2d</fix>
 <sat>10</sat>
</trkpt>
<trkpt lat="58.780323333" lon="7.289971667">
<time>2014-01-11T13:15:34Z</time>
 <fix>2d</fix>
 <sat>10</sat>
</trkpt>
<trkpt lat="58.780315000" lon="7.289926667">
<time>2014-01-11T13:15:36Z</time>
 <fix>2d</fix>
 <sat>10</sat>
</trkpt>
<trkpt lat="58.780313333" lon="7.289883333">
<time>2014-01-11T13:15:38Z</time>
 <fix>2d</fix>
 <sat>10</sat>
</trkpt>
<trkpt lat="58.780306667" lon="7.289840000">
<time>2014-01-11T13:15:40Z</time>
 <fix>2d</fix>
 <sat>10</sat>
</trkpt>
<trkpt lat="58.780301667" lon="7.289798333">
<time>2014-01-11T13:15:42Z</time>
 <fix>2d</fix>
 <sat>10</sat>
</trkpt>
<trkpt lat="58.780298333" lon="7.289756667">
<time>2014-01-11T13:15:44Z</time>
 <fix>2d</fix>
 <sat>10</sat>
</trkpt>
<trkpt lat="58.780293333" lon="7.289708333">
<time>2014-01-11T13:15:46Z</time>
 <fix>2d</fix>
 <sat>10</sat>
</trkpt>
<trkpt lat="58.780290000" lon="7.289661667">
<time>2014-01-11T13:15:48Z</time>
 <fix>2d</fix>
 <sat>10</sat>
</trkpt>
<trkpt lat="58.780283333" lon="7.289601667">
<time>2014-01-11T13:15:50Z</time>
 <fix>2d</fix>
 <sat>10</sat>
</trkpt>
<trkpt lat="58.780275000" lon="7.289530000">
<time>2014-01-11T13:15:52Z</time>
 <fix>2d</fix>
 <sat>10</sat>
</trkpt>
<trkpt lat="58.780268333" lon="7.289441667">
<time>2014-01-11T13:15:54Z</time>
 <fix>2d</fix>
 <sat>10</sat>
</trkpt>
<trkpt lat="58.780258333" lon="7.289350000">
<time>2014-01-11T13:15:56Z</time>
 <fix>2d</fix>
 <sat>10</sat>
</trkpt>
<trkpt lat="58.780250000" lon="7.289263333">
<time>2014-01-11T13:15:58Z</time>
 <fix>2d</fix>
 <sat>10</sat>
</trkpt>
<trkpt lat="58.780245000" lon="7.289185000">
<time>2014-01-11T13:16:00Z</time>
 <fix>2d</fix>
 <sat>10</sat>
</trkpt>
<trkpt lat="58.780236667" lon="7.289133333">
<time>2014-01-11T13:16:02Z</time>
 <fix>2d</fix>
 <sat>10</sat>
</trkpt>
<trkpt lat="58.780228333" lon="7.289090000">
<time>2014-01-11T13:16:04Z</time>
 <fix>2d</fix>
 <sat>10</sat>
</trkpt>
<trkpt lat="58.780220000" lon="7.289050000">
<time>2014-01-11T13:16:06Z</time>
 <fix>2d</fix>
 <sat>10</sat>
</trkpt>
<trkpt lat="58.780206667" lon="7.289016667">
<time>2014-01-11T13:16:08Z</time>
 <fix>2d</fix>
 <sat>10</sat>
</trkpt>
<trkpt lat="58.780188333" lon="7.288981667">
<time>2014-01-11T13:16:10Z</time>
 <fix>2d</fix>
 <sat>10</sat>
</trkpt>
<trkpt lat="58.780170000" lon="7.288955000">
<time>2014-01-11T13:16:12Z</time>
 <fix>2d</fix>
 <sat>10</sat>
</trkpt>
<trkpt lat="58.780141667" lon="7.288935000">
<time>2014-01-11T13:16:14Z</time>
 <fix>2d</fix>
 <sat>10</sat>
</trkpt>
<trkpt lat="58.780098333" lon="7.288921667">
<time>2014-01-11T13:16:16Z</time>
 <fix>2d</fix>
 <sat>10</sat>
</trkpt>
<trkpt lat="58.780046667" lon="7.288915000">
<time>2014-01-11T13:16:18Z</time>
 <fix>2d</fix>
 <sat>10</sat>
</trkpt>
<trkpt lat="58.779985000" lon="7.288915000">
<time>2014-01-11T13:16:20Z</time>
 <fix>2d</fix>
 <sat>10</sat>
</trkpt>
<trkpt lat="58.779936667" lon="7.288920000">
<time>2014-01-11T13:16:22Z</time>
 <fix>2d</fix>
 <sat>10</sat>
</trkpt>
<trkpt lat="58.779901667" lon="7.288930000">
<time>2014-01-11T13:16:24Z</time>
 <fix>2d</fix>
 <sat>10</sat>
</trkpt>
<trkpt lat="58.779863333" lon="7.288943333">
<time>2014-01-11T13:16:26Z</time>
 <fix>2d</fix>
 <sat>10</sat>
</trkpt>
<trkpt lat="58.779805000" lon="7.288961667">
<time>2014-01-11T13:16:28Z</time>
 <fix>2d</fix>
 <sat>10</sat>
</trkpt>
<trkpt lat="58.779695000" lon="7.288991667">
<time>2014-01-11T13:16:30Z</time>
 <fix>2d</fix>
 <sat>10</sat>
</trkpt>
<trkpt lat="58.779593333" lon="7.289011667">
<time>2014-01-11T13:16:32Z</time>
 <fix>2d</fix>
 <sat>10</sat>
</trkpt>
<trkpt lat="58.779551667" lon="7.289010000">
<time>2014-01-11T13:16:34Z</time>
 <fix>2d</fix>
 <sat>10</sat>
</trkpt>
<trkpt lat="58.779533333" lon="7.289000000">
<time>2014-01-11T13:16:36Z</time>
 <fix>2d</fix>
 <sat>10</sat>
</trkpt>
<trkpt lat="58.779518333" lon="7.288986667">
<time>2014-01-11T13:16:38Z</time>
 <fix>2d</fix>
 <sat>10</sat>
</trkpt>
<trkpt lat="58.779505000" lon="7.288971667">
<time>2014-01-11T13:16:40Z</time>
 <fix>2d</fix>
 <sat>10</sat>
</trkpt>
<trkpt lat="58.779496667" lon="7.288956667">
<time>2014-01-11T13:16:42Z</time>
 <fix>2d</fix>
 <sat>10</sat>
</trkpt>
<trkpt lat="58.779493333" lon="7.288946667">
<time>2014-01-11T13:16:44Z</time>
 <fix>2d</fix>
 <sat>10</sat>
</trkpt>
<trkpt lat="58.779495000" lon="7.288946667">
<time>2014-01-11T13:16:46Z</time>
 <fix>2d</fix>
 <sat>10</sat>
</trkpt>
<trkpt lat="58.779495000" lon="7.288946667">
<time>2014-01-11T13:16:48Z</time>
 <fix>2d</fix>
 <sat>10</sat>
</trkpt>
<trkpt lat="58.779495000" lon="7.288948333">
<time>2014-01-11T13:16:50Z</time>
 <fix>2d</fix>
 <sat>10</sat>
</trkpt>
<trkpt lat="58.779495000" lon="7.288951667">
<time>2014-01-11T13:16:52Z</time>
 <fix>2d</fix>
 <sat>10</sat>
</trkpt>
<trkpt lat="58.779506667" lon="7.288950000">
<time>2014-01-11T13:16:54Z</time>
 <fix>2d</fix>
 <sat>10</sat>
</trkpt>
<trkpt lat="58.779560000" lon="7.288973333">
<time>2014-01-11T13:16:56Z</time>
 <fix>2d</fix>
 <sat>10</sat>
</trkpt>
<trkpt lat="58.779661667" lon="7.288991667">
<time>2014-01-11T13:16:58Z</time>
 <fix>2d</fix>
 <sat>10</sat>
</trkpt>
<trkpt lat="58.779751667" lon="7.288990000">
<time>2014-01-11T13:17:00Z</time>
 <fix>2d</fix>
 <sat>10</sat>
</trkpt>
<trkpt lat="58.779796667" lon="7.288985000">
<time>2014-01-11T13:17:02Z</time>
 <fix>2d</fix>
 <sat>10</sat>
</trkpt>
<trkpt lat="58.779815000" lon="7.288980000">
<time>2014-01-11T13:17:04Z</time>
 <fix>2d</fix>
 <sat>10</sat>
</trkpt>
<trkpt lat="58.779831667" lon="7.288976667">
<time>2014-01-11T13:17:06Z</time>
 <fix>2d</fix>
 <sat>10</sat>
</trkpt>
<trkpt lat="58.779848333" lon="7.288973333">
<time>2014-01-11T13:17:08Z</time>
 <fix>2d</fix>
 <sat>10</sat>
</trkpt>
<trkpt lat="58.779868333" lon="7.288966667">
<time>2014-01-11T13:17:10Z</time>
 <fix>2d</fix>
 <sat>10</sat>
</trkpt>
<trkpt lat="58.779893333" lon="7.288961667">
<time>2014-01-11T13:17:12Z</time>
 <fix>2d</fix>
 <sat>10</sat>
</trkpt>
<trkpt lat="58.779931667" lon="7.288955000">
<time>2014-01-11T13:17:14Z</time>
 <fix>2d</fix>
 <sat>10</sat>
</trkpt>
<trkpt lat="58.779976667" lon="7.288946667">
<time>2014-01-11T13:17:16Z</time>
 <fix>2d</fix>
 <sat>10</sat>
</trkpt>
<trkpt lat="58.780025000" lon="7.288940000">
<time>2014-01-11T13:17:18Z</time>
 <fix>2d</fix>
 <sat>10</sat>
</trkpt>
<trkpt lat="58.780066667" lon="7.288941667">
<time>2014-01-11T13:17:20Z</time>
 <fix>2d</fix>
 <sat>10</sat>
</trkpt>
<trkpt lat="58.780100000" lon="7.288950000">
<time>2014-01-11T13:17:22Z</time>
 <fix>2d</fix>
 <sat>10</sat>
</trkpt>
<trkpt lat="58.780130000" lon="7.288963333">
<time>2014-01-11T13:17:24Z</time>
 <fix>2d</fix>
 <sat>10</sat>
</trkpt>
<trkpt lat="58.780158333" lon="7.288986667">
<time>2014-01-11T13:17:26Z</time>
 <fix>2d</fix>
 <sat>10</sat>
</trkpt>
<trkpt lat="58.780186667" lon="7.289036667">
<time>2014-01-11T13:17:28Z</time>
 <fix>2d</fix>
 <sat>10</sat>
</trkpt>
<trkpt lat="58.780216667" lon="7.289108333">
<time>2014-01-11T13:17:30Z</time>
 <fix>2d</fix>
 <sat>10</sat>
</trkpt>
<trkpt lat="58.780238333" lon="7.289218333">
<time>2014-01-11T13:17:32Z</time>
 <fix>2d</fix>
 <sat>10</sat>
</trkpt>
<trkpt lat="58.780260000" lon="7.289348333">
<time>2014-01-11T13:17:34Z</time>
 <fix>2d</fix>
 <sat>10</sat>
</trkpt>
<trkpt lat="58.780271667" lon="7.289461667">
<time>2014-01-11T13:17:36Z</time>
 <fix>2d</fix>
 <sat>10</sat>
</trkpt>
<trkpt lat="58.780278333" lon="7.289543333">
<time>2014-01-11T13:17:38Z</time>
 <fix>2d</fix>
 <sat>10</sat>
</trkpt>
<trkpt lat="58.780283333" lon="7.289611667">
<time>2014-01-11T13:17:40Z</time>
 <fix>2d</fix>
 <sat>10</sat>
</trkpt>
<trkpt lat="58.780288333" lon="7.289681667">
<time>2014-01-11T13:17:42Z</time>
 <fix>2d</fix>
 <sat>10</sat>
</trkpt>
<trkpt lat="58.780295000" lon="7.289751667">
<time>2014-01-11T13:17:44Z</time>
 <fix>2d</fix>
 <sat>10</sat>
</trkpt>
<trkpt lat="58.780306667" lon="7.289836667">
<time>2014-01-11T13:17:46Z</time>
 <fix>2d</fix>
 <sat>10</sat>
</trkpt>
<trkpt lat="58.780321667" lon="7.289956667">
<time>2014-01-11T13:17:48Z</time>
 <fix>2d</fix>
 <sat>10</sat>
</trkpt>
<trkpt lat="58.780340000" lon="7.290108333">
<time>2014-01-11T13:17:50Z</time>
 <fix>2d</fix>
 <sat>10</sat>
</trkpt>
<trkpt lat="58.780361667" lon="7.290271667">
<time>2014-01-11T13:17:52Z</time>
 <fix>2d</fix>
 <sat>10</sat>
</trkpt>
<trkpt lat="58.780386667" lon="7.290473333">
<time>2014-01-11T13:17:54Z</time>
 <fix>2d</fix>
 <sat>10</sat>
</trkpt>
<trkpt lat="58.780418333" lon="7.290703333">
<time>2014-01-11T13:17:56Z</time>
 <fix>2d</fix>
 <sat>10</sat>
</trkpt>
<trkpt lat="58.780473333" lon="7.290928333">
<time>2014-01-11T13:17:58Z</time>
 <fix>2d</fix>
 <sat>10</sat>
</trkpt>
<trkpt lat="58.780561667" lon="7.291170000">
<time>2014-01-11T13:18:00Z</time>
 <fix>2d</fix>
 <sat>10</sat>
</trkpt>
<trkpt lat="58.780670000" lon="7.291418333">
<time>2014-01-11T13:18:02Z</time>
 <fix>2d</fix>
 <sat>10</sat>
</trkpt>
<trkpt lat="58.780756667" lon="7.291616667">
<time>2014-01-11T13:18:04Z</time>
 <fix>2d</fix>
 <sat>10</sat>
</trkpt>
<trkpt lat="58.780800000" lon="7.291726667">
<time>2014-01-11T13:18:06Z</time>
 <fix>2d</fix>
 <sat>10</sat>
</trkpt>
<trkpt lat="58.780825000" lon="7.291790000">
<time>2014-01-11T13:18:08Z</time>
 <fix>2d</fix>
 <sat>10</sat>
</trkpt>
<trkpt lat="58.780841667" lon="7.291853333">
<time>2014-01-11T13:18:10Z</time>
 <fix>2d</fix>
 <sat>10</sat>
</trkpt>
<trkpt lat="58.780858333" lon="7.291923333">
<time>2014-01-11T13:18:12Z</time>
 <fix>2d</fix>
 <sat>10</sat>
</trkpt>
<trkpt lat="58.780868333" lon="7.292021667">
<time>2014-01-11T13:18:14Z</time>
 <fix>2d</fix>
 <sat>11</sat>
</trkpt>
<trkpt lat="58.780873333" lon="7.292130000">
<time>2014-01-11T13:18:16Z</time>
 <fix>2d</fix>
 <sat>11</sat>
</trkpt>
<trkpt lat="58.780873333" lon="7.292228333">
<time>2014-01-11T13:18:18Z</time>
 <fix>2d</fix>
 <sat>11</sat>
</trkpt>
<trkpt lat="58.780870000" lon="7.292320000">
<time>2014-01-11T13:18:20Z</time>
 <fix>2d</fix>
 <sat>11</sat>
</trkpt>
<trkpt lat="58.780866667" lon="7.292433333">
<time>2014-01-11T13:18:22Z</time>
 <fix>2d</fix>
 <sat>11</sat>
</trkpt>
<trkpt lat="58.780868333" lon="7.292568333">
<time>2014-01-11T13:18:24Z</time>
 <fix>2d</fix>
 <sat>11</sat>
</trkpt>
<trkpt lat="58.780885000" lon="7.292713333">
<time>2014-01-11T13:18:26Z</time>
 <fix>2d</fix>
 <sat>11</sat>
</trkpt>
<trkpt lat="58.780928333" lon="7.292885000">
<time>2014-01-11T13:18:28Z</time>
 <fix>2d</fix>
 <sat>11</sat>
</trkpt>
<trkpt lat="58.781011667" lon="7.293063333">
<time>2014-01-11T13:18:30Z</time>
 <fix>2d</fix>
 <sat>11</sat>
</trkpt>
<trkpt lat="58.781125000" lon="7.293223333">
<time>2014-01-11T13:18:32Z</time>
 <fix>2d</fix>
 <sat>11</sat>
</trkpt>
<trkpt lat="58.781250000" lon="7.293368333">
<time>2014-01-11T13:18:34Z</time>
 <fix>2d</fix>
 <sat>11</sat>
</trkpt>
<trkpt lat="58.781375000" lon="7.293510000">
<time>2014-01-11T13:18:36Z</time>
 <fix>2d</fix>
 <sat>11</sat>
</trkpt>
<trkpt lat="58.781461667" lon="7.293673333">
<time>2014-01-11T13:18:38Z</time>
 <fix>2d</fix>
 <sat>11</sat>
</trkpt>
<trkpt lat="58.781538333" lon="7.293823333">
<time>2014-01-11T13:18:40Z</time>
 <fix>2d</fix>
 <sat>10</sat>
</trkpt>
<trkpt lat="58.781608333" lon="7.293936667">
<time>2014-01-11T13:18:42Z</time>
 <fix>2d</fix>
 <sat>10</sat>
</trkpt>
<trkpt lat="58.781678333" lon="7.294006667">
<time>2014-01-11T13:18:44Z</time>
 <fix>2d</fix>
 <sat>11</sat>
</trkpt>
<trkpt lat="58.781746667" lon="7.294048333">
<time>2014-01-11T13:18:46Z</time>
 <fix>2d</fix>
 <sat>11</sat>
</trkpt>
<trkpt lat="58.781821667" lon="7.294073333">
<time>2014-01-11T13:18:48Z</time>
 <fix>2d</fix>
 <sat>11</sat>
</trkpt>
<trkpt lat="58.781908333" lon="7.294083333">
<time>2014-01-11T13:18:50Z</time>
 <fix>2d</fix>
 <sat>11</sat>
</trkpt>
<trkpt lat="58.781991667" lon="7.294083333">
<time>2014-01-11T13:18:52Z</time>
 <fix>2d</fix>
 <sat>11</sat>
</trkpt>
<trkpt lat="58.782063333" lon="7.294075000">
<time>2014-01-11T13:18:54Z</time>
 <fix>2d</fix>
 <sat>11</sat>
</trkpt>
<trkpt lat="58.782126667" lon="7.294065000">
<time>2014-01-11T13:18:56Z</time>
 <fix>2d</fix>
 <sat>10</sat>
</trkpt>
<trkpt lat="58.782188333" lon="7.294053333">
<time>2014-01-11T13:18:58Z</time>
 <fix>2d</fix>
 <sat>10</sat>
</trkpt>
<trkpt lat="58.782281667" lon="7.294081667">
<time>2014-01-11T13:19:00Z</time>
 <fix>2d</fix>
 <sat>10</sat>
</trkpt>
<trkpt lat="58.782388333" lon="7.294138333">
<time>2014-01-11T13:19:02Z</time>
 <fix>2d</fix>
 <sat>10</sat>
</trkpt>
<trkpt lat="58.782486667" lon="7.294291667">
<time>2014-01-11T13:19:04Z</time>
 <fix>2d</fix>
 <sat>10</sat>
</trkpt>
<trkpt lat="58.782555000" lon="7.294493333">
<time>2014-01-11T13:19:06Z</time>
 <fix>2d</fix>
 <sat>10</sat>
</trkpt>
<trkpt lat="58.782608333" lon="7.294681667">
<time>2014-01-11T13:19:08Z</time>
 <fix>2d</fix>
 <sat>10</sat>
</trkpt>
<trkpt lat="58.782658333" lon="7.294815000">
<time>2014-01-11T13:19:10Z</time>
 <fix>2d</fix>
 <sat>10</sat>
</trkpt>
<trkpt lat="58.782698333" lon="7.294896667">
<time>2014-01-11T13:19:12Z</time>
 <fix>2d</fix>
 <sat>10</sat>
</trkpt>
<trkpt lat="58.782726667" lon="7.294950000">
<time>2014-01-11T13:19:14Z</time>
 <fix>2d</fix>
 <sat>10</sat>
</trkpt>
<trkpt lat="58.782755000" lon="7.294995000">
<time>2014-01-11T13:19:16Z</time>
 <fix>2d</fix>
 <sat>10</sat>
</trkpt>
<trkpt lat="58.782786667" lon="7.295041667">
<time>2014-01-11T13:19:18Z</time>
 <fix>2d</fix>
 <sat>10</sat>
</trkpt>
<trkpt lat="58.782818333" lon="7.295091667">
<time>2014-01-11T13:19:20Z</time>
 <fix>2d</fix>
 <sat>10</sat>
</trkpt>
<trkpt lat="58.782845000" lon="7.295141667">
<time>2014-01-11T13:19:22Z</time>
 <fix>2d</fix>
 <sat>10</sat>
</trkpt>
<trkpt lat="58.782871667" lon="7.295191667">
<time>2014-01-11T13:19:24Z</time>
 <fix>2d</fix>
 <sat>10</sat>
</trkpt>
<trkpt lat="58.782896667" lon="7.295241667">
<time>2014-01-11T13:19:26Z</time>
 <fix>2d</fix>
 <sat>10</sat>
</trkpt>
<trkpt lat="58.782923333" lon="7.295291667">
<time>2014-01-11T13:19:28Z</time>
 <fix>2d</fix>
 <sat>10</sat>
</trkpt>
<trkpt lat="58.782950000" lon="7.295338333">
<time>2014-01-11T13:19:30Z</time>
 <fix>2d</fix>
 <sat>10</sat>
</trkpt>
<trkpt lat="58.782973333" lon="7.295383333">
<time>2014-01-11T13:19:32Z</time>
 <fix>2d</fix>
 <sat>10</sat>
</trkpt>
<trkpt lat="58.782995000" lon="7.295425000">
<time>2014-01-11T13:19:34Z</time>
 <fix>2d</fix>
 <sat>10</sat>
</trkpt>
<trkpt lat="58.783015000" lon="7.295466667">
<time>2014-01-11T13:19:36Z</time>
 <fix>2d</fix>
 <sat>10</sat>
</trkpt>
<trkpt lat="58.783038333" lon="7.295510000">
<time>2014-01-11T13:19:38Z</time>
 <fix>2d</fix>
 <sat>10</sat>
</trkpt>
<trkpt lat="58.783061667" lon="7.295555000">
<time>2014-01-11T13:19:40Z</time>
 <fix>2d</fix>
 <sat>10</sat>
</trkpt>
<trkpt lat="58.783085000" lon="7.295600000">
<time>2014-01-11T13:19:42Z</time>
 <fix>2d</fix>
 <sat>10</sat>
</trkpt>
<trkpt lat="58.783113333" lon="7.295651667">
<time>2014-01-11T13:19:44Z</time>
 <fix>2d</fix>
 <sat>10</sat>
</trkpt>
<trkpt lat="58.783145000" lon="7.295711667">
<time>2014-01-11T13:19:46Z</time>
 <fix>2d</fix>
 <sat>10</sat>
</trkpt>
<trkpt lat="58.783183333" lon="7.295775000">
<time>2014-01-11T13:19:48Z</time>
 <fix>2d</fix>
 <sat>10</sat>
</trkpt>
<trkpt lat="58.783215000" lon="7.295828333">
<time>2014-01-11T13:19:50Z</time>
 <fix>2d</fix>
 <sat>10</sat>
</trkpt>
<trkpt lat="58.783243333" lon="7.295878333">
<time>2014-01-11T13:19:52Z</time>
 <fix>2d</fix>
 <sat>10</sat>
</trkpt>
<trkpt lat="58.783271667" lon="7.295921667">
<time>2014-01-11T13:19:54Z</time>
 <fix>2d</fix>
 <sat>10</sat>
</trkpt>
<trkpt lat="58.783301667" lon="7.295971667">
<time>2014-01-11T13:19:56Z</time>
 <fix>2d</fix>
 <sat>10</sat>
</trkpt>
<trkpt lat="58.783348333" lon="7.296053333">
<time>2014-01-11T13:19:58Z</time>
 <fix>2d</fix>
 <sat>10</sat>
</trkpt>
<trkpt lat="58.783438333" lon="7.296223333">
<time>2014-01-11T13:20:00Z</time>
 <fix>2d</fix>
 <sat>10</sat>
</trkpt>
<trkpt lat="58.783566667" lon="7.296455000">
<time>2014-01-11T13:20:02Z</time>
 <fix>2d</fix>
 <sat>10</sat>
</trkpt>
<trkpt lat="58.783698333" lon="7.296695000">
<time>2014-01-11T13:20:04Z</time>
 <fix>2d</fix>
 <sat>9</sat>
</trkpt>
<trkpt lat="58.783828333" lon="7.296928333">
<time>2014-01-11T13:20:06Z</time>
 <fix>2d</fix>
 <sat>9</sat>
</trkpt>
<trkpt lat="58.783943333" lon="7.297133333">
<time>2014-01-11T13:20:08Z</time>
 <fix>2d</fix>
 <sat>9</sat>
</trkpt>
<trkpt lat="58.784026667" lon="7.297298333">
<time>2014-01-11T13:20:10Z</time>
 <fix>2d</fix>
 <sat>9</sat>
</trkpt>
<trkpt lat="58.784071667" lon="7.297428333">
<time>2014-01-11T13:20:12Z</time>
 <fix>2d</fix>
 <sat>9</sat>
</trkpt>
<trkpt lat="58.784086667" lon="7.297535000">
<time>2014-01-11T13:20:14Z</time>
 <fix>2d</fix>
 <sat>9</sat>
</trkpt>
<trkpt lat="58.784091667" lon="7.297648333">
<time>2014-01-11T13:20:16Z</time>
 <fix>2d</fix>
 <sat>9</sat>
</trkpt>
<trkpt lat="58.784095000" lon="7.297801667">
<time>2014-01-11T13:20:18Z</time>
 <fix>2d</fix>
 <sat>9</sat>
</trkpt>
<trkpt lat="58.784095000" lon="7.297986667">
<time>2014-01-11T13:20:20Z</time>
 <fix>2d</fix>
 <sat>9</sat>
</trkpt>
<trkpt lat="58.784105000" lon="7.298195000">
<time>2014-01-11T13:20:22Z</time>
 <fix>2d</fix>
 <sat>9</sat>
</trkpt>
<trkpt lat="58.784123333" lon="7.298376667">
<time>2014-01-11T13:20:24Z</time>
 <fix>2d</fix>
 <sat>9</sat>
</trkpt>
<trkpt lat="58.784148333" lon="7.298523333">
<time>2014-01-11T13:20:26Z</time>
 <fix>2d</fix>
 <sat>9</sat>
</trkpt>
<trkpt lat="58.784171667" lon="7.298660000">
<time>2014-01-11T13:20:28Z</time>
 <fix>2d</fix>
 <sat>9</sat>
</trkpt>
<trkpt lat="58.784190000" lon="7.298803333">
<time>2014-01-11T13:20:30Z</time>
 <fix>2d</fix>
 <sat>9</sat>
</trkpt>
<trkpt lat="58.784208333" lon="7.298948333">
<time>2014-01-11T13:20:32Z</time>
 <fix>2d</fix>
 <sat>9</sat>
</trkpt>
<trkpt lat="58.784223333" lon="7.299075000">
<time>2014-01-11T13:20:34Z</time>
 <fix>2d</fix>
 <sat>9</sat>
</trkpt>
<trkpt lat="58.784206667" lon="7.299133333">
<time>2014-01-11T13:20:36Z</time>
 <fix>2d</fix>
 <sat>9</sat>
</trkpt>
<trkpt lat="58.784193333" lon="7.299151667">
<time>2014-01-11T13:20:38Z</time>
 <fix>2d</fix>
 <sat>9</sat>
</trkpt>
<trkpt lat="58.784193333" lon="7.299146667">
<time>2014-01-11T13:20:40Z</time>
 <fix>2d</fix>
 <sat>8</sat>
</trkpt>
<trkpt lat="58.784195000" lon="7.299143333">
<time>2014-01-11T13:20:42Z</time>
 <fix>2d</fix>
 <sat>9</sat>
</trkpt>
<trkpt lat="58.784198333" lon="7.299138333">
<time>2014-01-11T13:20:44Z</time>
 <fix>2d</fix>
 <sat>9</sat>
</trkpt>
<trkpt lat="58.784198333" lon="7.299138333">
<time>2014-01-11T13:20:46Z</time>
 <fix>2d</fix>
 <sat>8</sat>
</trkpt>
<trkpt lat="58.784196667" lon="7.299136667">
<time>2014-01-11T13:20:48Z</time>
 <fix>2d</fix>
 <sat>8</sat>
</trkpt>
<trkpt lat="58.784195000" lon="7.299135000">
<time>2014-01-11T13:20:50Z</time>
 <fix>2d</fix>
 <sat>8</sat>
</trkpt>
<trkpt lat="58.784195000" lon="7.299133333">
<time>2014-01-11T13:20:52Z</time>
 <fix>2d</fix>
 <sat>8</sat>
</trkpt>
<trkpt lat="58.784193333" lon="7.299133333">
<time>2014-01-11T13:20:54Z</time>
 <fix>2d</fix>
 <sat>8</sat>
</trkpt>
<trkpt lat="58.784193333" lon="7.299131667">
<time>2014-01-11T13:20:56Z</time>
 <fix>2d</fix>
 <sat>9</sat>
</trkpt>
<trkpt lat="58.784191667" lon="7.299130000">
<time>2014-01-11T13:20:58Z</time>
 <fix>2d</fix>
 <sat>9</sat>
</trkpt>
<trkpt lat="58.784190000" lon="7.299125000">
<time>2014-01-11T13:21:00Z</time>
 <fix>2d</fix>
 <sat>9</sat>
</trkpt>
<trkpt lat="58.784191667" lon="7.299120000">
<time>2014-01-11T13:21:02Z</time>
 <fix>2d</fix>
 <sat>9</sat>
</trkpt>
<trkpt lat="58.784193333" lon="7.299120000">
<time>2014-01-11T13:21:04Z</time>
 <fix>2d</fix>
 <sat>9</sat>
</trkpt>
<trkpt lat="58.784198333" lon="7.299123333">
<time>2014-01-11T13:21:06Z</time>
 <fix>2d</fix>
 <sat>9</sat>
</trkpt>
<trkpt lat="58.784198333" lon="7.299125000">
<time>2014-01-11T13:21:08Z</time>
 <fix>2d</fix>
 <sat>9</sat>
</trkpt>
<trkpt lat="58.784198333" lon="7.299121667">
<time>2014-01-11T13:21:10Z</time>
 <fix>2d</fix>
 <sat>9</sat>
</trkpt>
<trkpt lat="58.784198333" lon="7.299120000">
<time>2014-01-11T13:21:12Z</time>
 <fix>2d</fix>
 <sat>9</sat>
</trkpt>
<trkpt lat="58.784198333" lon="7.299120000">
<time>2014-01-11T13:21:14Z</time>
 <fix>2d</fix>
 <sat>9</sat>
</trkpt>
<trkpt lat="58.784198333" lon="7.299120000">
<time>2014-01-11T13:21:16Z</time>
 <fix>2d</fix>
 <sat>9</sat>
</trkpt>
<trkpt lat="58.784198333" lon="7.299118333">
<time>2014-01-11T13:21:18Z</time>
 <fix>2d</fix>
 <sat>9</sat>
</trkpt>
<trkpt lat="58.784198333" lon="7.299115000">
<time>2014-01-11T13:21:20Z</time>
 <fix>2d</fix>
 <sat>9</sat>
</trkpt>
<trkpt lat="58.784198333" lon="7.299110000">
<time>2014-01-11T13:21:22Z</time>
 <fix>2d</fix>
 <sat>9</sat>
</trkpt>
<trkpt lat="58.784198333" lon="7.299111667">
<time>2014-01-11T13:21:24Z</time>
 <fix>2d</fix>
 <sat>9</sat>
</trkpt>
<trkpt lat="58.784196667" lon="7.299113333">
<time>2014-01-11T13:21:26Z</time>
 <fix>2d</fix>
 <sat>9</sat>
</trkpt>
<trkpt lat="58.784196667" lon="7.299113333">
<time>2014-01-11T13:21:28Z</time>
 <fix>2d</fix>
 <sat>9</sat>
</trkpt>
<trkpt lat="58.784196667" lon="7.299113333">
<time>2014-01-11T13:21:30Z</time>
 <fix>2d</fix>
 <sat>9</sat>
</trkpt>
<trkpt lat="58.784195000" lon="7.299113333">
<time>2014-01-11T13:21:32Z</time>
 <fix>2d</fix>
 <sat>9</sat>
</trkpt>
<trkpt lat="58.784195000" lon="7.299115000">
<time>2014-01-11T13:21:34Z</time>
 <fix>2d</fix>
 <sat>9</sat>
</trkpt>
<trkpt lat="58.784196667" lon="7.299120000">
<time>2014-01-11T13:21:36Z</time>
 <fix>2d</fix>
 <sat>9</sat>
</trkpt>
<trkpt lat="58.784205000" lon="7.299133333">
<time>2014-01-11T13:21:38Z</time>
 <fix>2d</fix>
 <sat>9</sat>
</trkpt>
<trkpt lat="58.784221667" lon="7.299158333">
<time>2014-01-11T13:21:40Z</time>
 <fix>2d</fix>
 <sat>9</sat>
</trkpt>
<trkpt lat="58.784245000" lon="7.299195000">
<time>2014-01-11T13:21:42Z</time>
 <fix>2d</fix>
 <sat>9</sat>
</trkpt>
<trkpt lat="58.784273333" lon="7.299231667">
<time>2014-01-11T13:21:44Z</time>
 <fix>2d</fix>
 <sat>9</sat>
</trkpt>
<trkpt lat="58.784293333" lon="7.299260000">
<time>2014-01-11T13:21:46Z</time>
 <fix>2d</fix>
 <sat>9</sat>
</trkpt>
<trkpt lat="58.784310000" lon="7.299283333">
<time>2014-01-11T13:21:48Z</time>
 <fix>2d</fix>
 <sat>9</sat>
</trkpt>
<trkpt lat="58.784321667" lon="7.299300000">
<time>2014-01-11T13:21:50Z</time>
 <fix>2d</fix>
 <sat>9</sat>
</trkpt>
<trkpt lat="58.784325000" lon="7.299303333">
<time>2014-01-11T13:21:52Z</time>
 <fix>2d</fix>
 <sat>9</sat>
</trkpt>
<trkpt lat="58.784325000" lon="7.299300000">
<time>2014-01-11T13:21:54Z</time>
 <fix>2d</fix>
 <sat>9</sat>
</trkpt>
<trkpt lat="58.784325000" lon="7.299300000">
<time>2014-01-11T13:21:56Z</time>
 <fix>2d</fix>
 <sat>9</sat>
</trkpt>
<trkpt lat="58.784323333" lon="7.299301667">
<time>2014-01-11T13:21:58Z</time>
 <fix>2d</fix>
 <sat>9</sat>
</trkpt>
<trkpt lat="58.784323333" lon="7.299301667">
<time>2014-01-11T13:22:00Z</time>
 <fix>2d</fix>
 <sat>9</sat>
</trkpt>
<trkpt lat="58.784323333" lon="7.299301667">
<time>2014-01-11T13:22:02Z</time>
 <fix>2d</fix>
 <sat>9</sat>
</trkpt>
<trkpt lat="58.784323333" lon="7.299306667">
<time>2014-01-11T13:22:04Z</time>
 <fix>2d</fix>
 <sat>9</sat>
</trkpt>
<trkpt lat="58.784303333" lon="7.299361667">
<time>2014-01-11T13:22:06Z</time>
 <fix>2d</fix>
 <sat>9</sat>
</trkpt>
<trkpt lat="58.784255000" lon="7.299436667">
<time>2014-01-11T13:22:08Z</time>
 <fix>2d</fix>
 <sat>9</sat>
</trkpt>
<trkpt lat="58.784205000" lon="7.299495000">
<time>2014-01-11T13:22:10Z</time>
 <fix>2d</fix>
 <sat>9</sat>
</trkpt>
<trkpt lat="58.784155000" lon="7.299555000">
<time>2014-01-11T13:22:12Z</time>
 <fix>2d</fix>
 <sat>9</sat>
</trkpt>
<trkpt lat="58.784108333" lon="7.299613333">
<time>2014-01-11T13:22:14Z</time>
 <fix>2d</fix>
 <sat>9</sat>
</trkpt>
<trkpt lat="58.784060000" lon="7.299670000">
<time>2014-01-11T13:22:16Z</time>
 <fix>2d</fix>
 <sat>9</sat>
</trkpt>
<trkpt lat="58.784000000" lon="7.299748333">
<time>2014-01-11T13:22:18Z</time>
 <fix>2d</fix>
 <sat>9</sat>
</trkpt>
<trkpt lat="58.783940000" lon="7.299826667">
<time>2014-01-11T13:22:20Z</time>
 <fix>2d</fix>
 <sat>9</sat>
</trkpt>
<trkpt lat="58.783898333" lon="7.299880000">
<time>2014-01-11T13:22:22Z</time>
 <fix>2d</fix>
 <sat>9</sat>
</trkpt>
<trkpt lat="58.783880000" lon="7.299896667">
<time>2014-01-11T13:22:24Z</time>
 <fix>2d</fix>
 <sat>9</sat>
</trkpt>
<trkpt lat="58.783873333" lon="7.299900000">
<time>2014-01-11T13:22:26Z</time>
 <fix>2d</fix>
 <sat>9</sat>
</trkpt>
<trkpt lat="58.783871667" lon="7.299900000">
<time>2014-01-11T13:22:28Z</time>
 <fix>2d</fix>
 <sat>9</sat>
</trkpt>
<trkpt lat="58.783866667" lon="7.299900000">
<time>2014-01-11T13:22:30Z</time>
 <fix>2d</fix>
 <sat>9</sat>
</trkpt>
<trkpt lat="58.783866667" lon="7.299900000">
<time>2014-01-11T13:22:32Z</time>
 <fix>2d</fix>
 <sat>9</sat>
</trkpt>
<trkpt lat="58.783885000" lon="7.299906667">
<time>2014-01-11T13:22:34Z</time>
 <fix>2d</fix>
 <sat>9</sat>
</trkpt>
<trkpt lat="58.783915000" lon="7.299913333">
<time>2014-01-11T13:22:36Z</time>
 <fix>2d</fix>
 <sat>9</sat>
</trkpt>
<trkpt lat="58.783961667" lon="7.299905000">
<time>2014-01-11T13:22:38Z</time>
 <fix>2d</fix>
 <sat>9</sat>
</trkpt>
<trkpt lat="58.784018333" lon="7.299888333">
<time>2014-01-11T13:22:40Z</time>
 <fix>2d</fix>
 <sat>9</sat>
</trkpt>
<trkpt lat="58.784075000" lon="7.299876667">
<time>2014-01-11T13:22:42Z</time>
 <fix>2d</fix>
 <sat>9</sat>
</trkpt>
<trkpt lat="58.784111667" lon="7.299873333">
<time>2014-01-11T13:22:44Z</time>
 <fix>2d</fix>
 <sat>9</sat>
</trkpt>
<trkpt lat="58.784143333" lon="7.299876667">
<time>2014-01-11T13:22:46Z</time>
 <fix>2d</fix>
 <sat>9</sat>
</trkpt>
<trkpt lat="58.784168333" lon="7.299888333">
<time>2014-01-11T13:22:48Z</time>
 <fix>2d</fix>
 <sat>9</sat>
</trkpt>
<trkpt lat="58.784198333" lon="7.299905000">
<time>2014-01-11T13:22:50Z</time>
 <fix>2d</fix>
 <sat>9</sat>
</trkpt>
<trkpt lat="58.784241667" lon="7.299926667">
<time>2014-01-11T13:22:52Z</time>
 <fix>2d</fix>
 <sat>9</sat>
</trkpt>
<trkpt lat="58.784278333" lon="7.299938333">
<time>2014-01-11T13:22:54Z</time>
 <fix>2d</fix>
 <sat>9</sat>
</trkpt>
<trkpt lat="58.784306667" lon="7.299948333">
<time>2014-01-11T13:22:56Z</time>
 <fix>2d</fix>
 <sat>9</sat>
</trkpt>
<trkpt lat="58.784330000" lon="7.299963333">
<time>2014-01-11T13:22:58Z</time>
 <fix>2d</fix>
 <sat>9</sat>
</trkpt>
<trkpt lat="58.784351667" lon="7.300011667">
<time>2014-01-11T13:23:00Z</time>
 <fix>2d</fix>
 <sat>9</sat>
</trkpt>
<trkpt lat="58.784355000" lon="7.300063333">
<time>2014-01-11T13:23:02Z</time>
 <fix>2d</fix>
 <sat>9</sat>
</trkpt>
<trkpt lat="58.784353333" lon="7.300075000">
<time>2014-01-11T13:23:04Z</time>
 <fix>2d</fix>
 <sat>9</sat>
</trkpt>
<trkpt lat="58.784353333" lon="7.300075000">
<time>2014-01-11T13:23:06Z</time>
 <fix>2d</fix>
 <sat>9</sat>
</trkpt>
<trkpt lat="58.784353333" lon="7.300075000">
<time>2014-01-11T13:23:08Z</time>
 <fix>2d</fix>
 <sat>9</sat>
</trkpt>
<trkpt lat="58.784353333" lon="7.300075000">
<time>2014-01-11T13:23:10Z</time>
 <fix>2d</fix>
 <sat>9</sat>
</trkpt>
<trkpt lat="58.784353333" lon="7.300075000">
<time>2014-01-11T13:23:12Z</time>
 <fix>2d</fix>
 <sat>9</sat>
</trkpt>
<trkpt lat="58.784355000" lon="7.300101667">
<time>2014-01-11T13:23:14Z</time>
 <fix>2d</fix>
 <sat>9</sat>
</trkpt>
<trkpt lat="58.784365000" lon="7.300178333">
<time>2014-01-11T13:23:16Z</time>
 <fix>2d</fix>
 <sat>9</sat>
</trkpt>
<trkpt lat="58.784378333" lon="7.300301667">
<time>2014-01-11T13:23:18Z</time>
 <fix>2d</fix>
 <sat>9</sat>
</trkpt>
<trkpt lat="58.784388333" lon="7.300445000">
<time>2014-01-11T13:23:20Z</time>
 <fix>2d</fix>
 <sat>9</sat>
</trkpt>
<trkpt lat="58.784386667" lon="7.300596667">
<time>2014-01-11T13:23:22Z</time>
 <fix>2d</fix>
 <sat>9</sat>
</trkpt>
<trkpt lat="58.784386667" lon="7.300780000">
<time>2014-01-11T13:23:24Z</time>
 <fix>2d</fix>
 <sat>9</sat>
</trkpt>
<trkpt lat="58.784378333" lon="7.300998333">
<time>2014-01-11T13:23:26Z</time>
 <fix>2d</fix>
 <sat>9</sat>
</trkpt>
<trkpt lat="58.784365000" lon="7.301245000">
<time>2014-01-11T13:23:28Z</time>
 <fix>2d</fix>
 <sat>9</sat>
</trkpt>
<trkpt lat="58.784346667" lon="7.301498333">
<time>2014-01-11T13:23:30Z</time>
 <fix>2d</fix>
 <sat>9</sat>
</trkpt>
<trkpt lat="58.784325000" lon="7.301716667">
<time>2014-01-11T13:23:32Z</time>
 <fix>2d</fix>
 <sat>9</sat>
</trkpt>
<trkpt lat="58.784301667" lon="7.301901667">
<time>2014-01-11T13:23:34Z</time>
 <fix>2d</fix>
 <sat>9</sat>
</trkpt>
<trkpt lat="58.784273333" lon="7.301988333">
<time>2014-01-11T13:23:36Z</time>
 <fix>2d</fix>
 <sat>9</sat>
</trkpt>
<trkpt lat="58.784270000" lon="7.301996667">
<time>2014-01-11T13:23:38Z</time>
 <fix>2d</fix>
 <sat>9</sat>
</trkpt>
<trkpt lat="58.784273333" lon="7.301988333">
<time>2014-01-11T13:23:40Z</time>
 <fix>2d</fix>
 <sat>9</sat>
</trkpt>
<trkpt lat="58.784273333" lon="7.301983333">
<time>2014-01-11T13:23:42Z</time>
 <fix>2d</fix>
 <sat>9</sat>
</trkpt>
<trkpt lat="58.784280000" lon="7.301978333">
<time>2014-01-11T13:23:44Z</time>
 <fix>2d</fix>
 <sat>8</sat>
</trkpt>
<trkpt lat="58.784280000" lon="7.301973333">
<time>2014-01-11T13:23:46Z</time>
 <fix>2d</fix>
 <sat>8</sat>
</trkpt>
<trkpt lat="58.784281667" lon="7.301970000">
<time>2014-01-11T13:23:48Z</time>
 <fix>2d</fix>
 <sat>8</sat>
</trkpt>
<trkpt lat="58.784280000" lon="7.301966667">
<time>2014-01-11T13:23:50Z</time>
 <fix>2d</fix>
 <sat>8</sat>
</trkpt>
<trkpt lat="58.784281667" lon="7.301963333">
<time>2014-01-11T13:23:52Z</time>
 <fix>2d</fix>
 <sat>8</sat>
</trkpt>
<trkpt lat="58.784281667" lon="7.301961667">
<time>2014-01-11T13:23:54Z</time>
 <fix>2d</fix>
 <sat>9</sat>
</trkpt>
<trkpt lat="58.784285000" lon="7.301958333">
<time>2014-01-11T13:23:56Z</time>
 <fix>2d</fix>
 <sat>8</sat>
</trkpt>
<trkpt lat="58.784285000" lon="7.301958333">
<time>2014-01-11T13:23:58Z</time>
 <fix>2d</fix>
 <sat>9</sat>
</trkpt>
<trkpt lat="58.784285000" lon="7.301955000">
<time>2014-01-11T13:24:00Z</time>
 <fix>2d</fix>
 <sat>9</sat>
</trkpt>
<trkpt lat="58.784288333" lon="7.301953333">
<time>2014-01-11T13:24:02Z</time>
 <fix>2d</fix>
 <sat>9</sat>
</trkpt>
<trkpt lat="58.784288333" lon="7.301953333">
<time>2014-01-11T13:24:04Z</time>
 <fix>2d</fix>
 <sat>9</sat>
</trkpt>
<trkpt lat="58.784285000" lon="7.301953333">
<time>2014-01-11T13:24:06Z</time>
 <fix>2d</fix>
 <sat>9</sat>
</trkpt>
<trkpt lat="58.784285000" lon="7.301953333">
<time>2014-01-11T13:24:08Z</time>
 <fix>2d</fix>
 <sat>9</sat>
</trkpt>
<trkpt lat="58.784285000" lon="7.301951667">
<time>2014-01-11T13:24:10Z</time>
 <fix>2d</fix>
 <sat>9</sat>
</trkpt>
<trkpt lat="58.784285000" lon="7.301951667">
<time>2014-01-11T13:24:12Z</time>
 <fix>2d</fix>
 <sat>9</sat>
</trkpt>
<trkpt lat="58.784285000" lon="7.301951667">
<time>2014-01-11T13:24:14Z</time>
 <fix>2d</fix>
 <sat>9</sat>
</trkpt>
<trkpt lat="58.784290000" lon="7.301953333">
<time>2014-01-11T13:24:16Z</time>
 <fix>2d</fix>
 <sat>9</sat>
</trkpt>
<trkpt lat="58.784296667" lon="7.301955000">
<time>2014-01-11T13:24:18Z</time>
 <fix>2d</fix>
 <sat>9</sat>
</trkpt>
<trkpt lat="58.784305000" lon="7.301958333">
<time>2014-01-11T13:24:20Z</time>
 <fix>2d</fix>
 <sat>9</sat>
</trkpt>
<trkpt lat="58.784310000" lon="7.301955000">
<time>2014-01-11T13:24:22Z</time>
 <fix>2d</fix>
 <sat>9</sat>
</trkpt>
<trkpt lat="58.784310000" lon="7.301955000">
<time>2014-01-11T13:24:24Z</time>
 <fix>2d</fix>
 <sat>9</sat>
</trkpt>
<trkpt lat="58.784300000" lon="7.301978333">
<time>2014-01-11T13:24:26Z</time>
 <fix>2d</fix>
 <sat>9</sat>
</trkpt>
<trkpt lat="58.784281667" lon="7.302023333">
<time>2014-01-11T13:24:28Z</time>
 <fix>2d</fix>
 <sat>9</sat>
</trkpt>
<trkpt lat="58.784261667" lon="7.302081667">
<time>2014-01-11T13:24:30Z</time>
 <fix>2d</fix>
 <sat>9</sat>
</trkpt>
<trkpt lat="58.784241667" lon="7.302153333">
<time>2014-01-11T13:24:32Z</time>
 <fix>2d</fix>
 <sat>9</sat>
</trkpt>
<trkpt lat="58.784220000" lon="7.302231667">
<time>2014-01-11T13:24:34Z</time>
 <fix>2d</fix>
 <sat>9</sat>
</trkpt>
<trkpt lat="58.784203333" lon="7.302323333">
<time>2014-01-11T13:24:36Z</time>
 <fix>2d</fix>
 <sat>9</sat>
</trkpt>
<trkpt lat="58.784191667" lon="7.302445000">
<time>2014-01-11T13:24:38Z</time>
 <fix>2d</fix>
 <sat>9</sat>
</trkpt>
<trkpt lat="58.784183333" lon="7.302585000">
<time>2014-01-11T13:24:40Z</time>
 <fix>2d</fix>
 <sat>9</sat>
</trkpt>
<trkpt lat="58.784183333" lon="7.302721667">
<time>2014-01-11T13:24:42Z</time>
 <fix>2d</fix>
 <sat>9</sat>
</trkpt>
<trkpt lat="58.784183333" lon="7.302861667">
<time>2014-01-11T13:24:44Z</time>
 <fix>2d</fix>
 <sat>9</sat>
</trkpt>
<trkpt lat="58.784180000" lon="7.303020000">
<time>2014-01-11T13:24:46Z</time>
 <fix>2d</fix>
 <sat>9</sat>
</trkpt>
<trkpt lat="58.784180000" lon="7.303191667">
<time>2014-01-11T13:24:48Z</time>
 <fix>2d</fix>
 <sat>9</sat>
</trkpt>
<trkpt lat="58.784178333" lon="7.303345000">
<time>2014-01-11T13:24:50Z</time>
 <fix>2d</fix>
 <sat>9</sat>
</trkpt>
<trkpt lat="58.784176667" lon="7.303443333">
<time>2014-01-11T13:24:52Z</time>
 <fix>2d</fix>
 <sat>9</sat>
</trkpt>
<trkpt lat="58.784176667" lon="7.303521667">
<time>2014-01-11T13:24:54Z</time>
 <fix>2d</fix>
 <sat>9</sat>
</trkpt>
<trkpt lat="58.784173333" lon="7.303616667">
<time>2014-01-11T13:24:56Z</time>
 <fix>2d</fix>
 <sat>9</sat>
</trkpt>
<trkpt lat="58.784168333" lon="7.303735000">
<time>2014-01-11T13:24:58Z</time>
 <fix>2d</fix>
 <sat>9</sat>
</trkpt>
<trkpt lat="58.784155000" lon="7.303851667">
<time>2014-01-11T13:25:00Z</time>
 <fix>2d</fix>
 <sat>9</sat>
</trkpt>
<trkpt lat="58.784128333" lon="7.303953333">
<time>2014-01-11T13:25:02Z</time>
 <fix>2d</fix>
 <sat>9</sat>
</trkpt>
<trkpt lat="58.784088333" lon="7.304045000">
<time>2014-01-11T13:25:04Z</time>
 <fix>2d</fix>
 <sat>9</sat>
</trkpt>
<trkpt lat="58.784045000" lon="7.304140000">
<time>2014-01-11T13:25:06Z</time>
 <fix>2d</fix>
 <sat>9</sat>
</trkpt>
<trkpt lat="58.784001667" lon="7.304253333">
<time>2014-01-11T13:25:08Z</time>
 <fix>2d</fix>
 <sat>9</sat>
</trkpt>
<trkpt lat="58.783971667" lon="7.304371667">
<time>2014-01-11T13:25:10Z</time>
 <fix>2d</fix>
 <sat>9</sat>
</trkpt>
<trkpt lat="58.783936667" lon="7.304490000">
<time>2014-01-11T13:25:12Z</time>
 <fix>2d</fix>
 <sat>9</sat>
</trkpt>
<trkpt lat="58.783901667" lon="7.304628333">
<time>2014-01-11T13:25:14Z</time>
 <fix>2d</fix>
 <sat>9</sat>
</trkpt>
<trkpt lat="58.783863333" lon="7.304791667">
<time>2014-01-11T13:25:16Z</time>
 <fix>2d</fix>
 <sat>9</sat>
</trkpt>
<trkpt lat="58.783808333" lon="7.304938333">
<time>2014-01-11T13:25:18Z</time>
 <fix>2d</fix>
 <sat>8</sat>
</trkpt>
<trkpt lat="58.783735000" lon="7.305021667">
<time>2014-01-11T13:25:20Z</time>
 <fix>2d</fix>
 <sat>8</sat>
</trkpt>
<trkpt lat="58.783655000" lon="7.305046667">
<time>2014-01-11T13:25:22Z</time>
 <fix>2d</fix>
 <sat>8</sat>
</trkpt>
<trkpt lat="58.783571667" lon="7.305025000">
<time>2014-01-11T13:25:24Z</time>
 <fix>2d</fix>
 <sat>9</sat>
</trkpt>
<trkpt lat="58.783490000" lon="7.304985000">
<time>2014-01-11T13:25:26Z</time>
 <fix>2d</fix>
 <sat>9</sat>
</trkpt>
<trkpt lat="58.783416667" lon="7.304930000">
<time>2014-01-11T13:25:28Z</time>
 <fix>2d</fix>
 <sat>9</sat>
</trkpt>
<trkpt lat="58.783373333" lon="7.304880000">
<time>2014-01-11T13:25:30Z</time>
 <fix>2d</fix>
 <sat>9</sat>
</trkpt>
<trkpt lat="58.783348333" lon="7.304850000">
<time>2014-01-11T13:25:32Z</time>
 <fix>2d</fix>
 <sat>9</sat>
</trkpt>
<trkpt lat="58.783336667" lon="7.304836667">
<time>2014-01-11T13:25:34Z</time>
 <fix>2d</fix>
 <sat>8</sat>
</trkpt>
<trkpt lat="58.783335000" lon="7.304835000">
<time>2014-01-11T13:25:36Z</time>
 <fix>2d</fix>
 <sat>8</sat>
</trkpt>
<trkpt lat="58.783323333" lon="7.304818333">
<time>2014-01-11T13:25:38Z</time>
 <fix>2d</fix>
 <sat>9</sat>
</trkpt>
<trkpt lat="58.783305000" lon="7.304796667">
<time>2014-01-11T13:25:40Z</time>
 <fix>2d</fix>
 <sat>8</sat>
</trkpt>
<trkpt lat="58.783286667" lon="7.304776667">
<time>2014-01-11T13:25:42Z</time>
 <fix>2d</fix>
 <sat>8</sat>
</trkpt>
<trkpt lat="58.783270000" lon="7.304755000">
<time>2014-01-11T13:25:44Z</time>
 <fix>2d</fix>
 <sat>9</sat>
</trkpt>
<trkpt lat="58.783251667" lon="7.304728333">
<time>2014-01-11T13:25:46Z</time>
 <fix>2d</fix>
 <sat>9</sat>
</trkpt>
<trkpt lat="58.783230000" lon="7.304701667">
<time>2014-01-11T13:25:48Z</time>
 <fix>2d</fix>
 <sat>9</sat>
</trkpt>
<trkpt lat="58.783205000" lon="7.304673333">
<time>2014-01-11T13:25:50Z</time>
 <fix>2d</fix>
 <sat>9</sat>
</trkpt>
<trkpt lat="58.783181667" lon="7.304643333">
<time>2014-01-11T13:25:52Z</time>
 <fix>2d</fix>
 <sat>9</sat>
</trkpt>
<trkpt lat="58.783156667" lon="7.304610000">
<time>2014-01-11T13:25:54Z</time>
 <fix>2d</fix>
 <sat>9</sat>
</trkpt>
<trkpt lat="58.783136667" lon="7.304588333">
<time>2014-01-11T13:25:56Z</time>
 <fix>2d</fix>
 <sat>9</sat>
</trkpt>
<trkpt lat="58.783120000" lon="7.304571667">
<time>2014-01-11T13:25:58Z</time>
 <fix>2d</fix>
 <sat>9</sat>
</trkpt>
<trkpt lat="58.783101667" lon="7.304556667">
<time>2014-01-11T13:26:00Z</time>
 <fix>2d</fix>
 <sat>9</sat>
</trkpt>
<trkpt lat="58.783088333" lon="7.304536667">
<time>2014-01-11T13:26:02Z</time>
 <fix>2d</fix>
 <sat>9</sat>
</trkpt>
<trkpt lat="58.783073333" lon="7.304516667">
<time>2014-01-11T13:26:04Z</time>
 <fix>2d</fix>
 <sat>9</sat>
</trkpt>
<trkpt lat="58.783058333" lon="7.304503333">
<time>2014-01-11T13:26:06Z</time>
 <fix>2d</fix>
 <sat>9</sat>
</trkpt>
<trkpt lat="58.783041667" lon="7.304486667">
<time>2014-01-11T13:26:08Z</time>
 <fix>2d</fix>
 <sat>9</sat>
</trkpt>
<trkpt lat="58.783025000" lon="7.304466667">
<time>2014-01-11T13:26:10Z</time>
 <fix>2d</fix>
 <sat>9</sat>
</trkpt>
<trkpt lat="58.783006667" lon="7.304445000">
<time>2014-01-11T13:26:12Z</time>
 <fix>2d</fix>
 <sat>9</sat>
</trkpt>
<trkpt lat="58.782991667" lon="7.304426667">
<time>2014-01-11T13:26:14Z</time>
 <fix>2d</fix>
 <sat>9</sat>
</trkpt>
<trkpt lat="58.782975000" lon="7.304408333">
<time>2014-01-11T13:26:16Z</time>
 <fix>2d</fix>
 <sat>9</sat>
</trkpt>
<trkpt lat="58.782958333" lon="7.304385000">
<time>2014-01-11T13:26:18Z</time>
 <fix>2d</fix>
 <sat>9</sat>
</trkpt>
<trkpt lat="58.782940000" lon="7.304365000">
<time>2014-01-11T13:26:20Z</time>
 <fix>2d</fix>
 <sat>9</sat>
</trkpt>
<trkpt lat="58.782923333" lon="7.304341667">
<time>2014-01-11T13:26:22Z</time>
 <fix>2d</fix>
 <sat>9</sat>
</trkpt>
<trkpt lat="58.782905000" lon="7.304320000">
<time>2014-01-11T13:26:24Z</time>
 <fix>2d</fix>
 <sat>9</sat>
</trkpt>
<trkpt lat="58.782886667" lon="7.304298333">
<time>2014-01-11T13:26:26Z</time>
 <fix>2d</fix>
 <sat>9</sat>
</trkpt>
<trkpt lat="58.782871667" lon="7.304283333">
<time>2014-01-11T13:26:28Z</time>
 <fix>2d</fix>
 <sat>9</sat>
</trkpt>
<trkpt lat="58.782856667" lon="7.304266667">
<time>2014-01-11T13:26:30Z</time>
 <fix>2d</fix>
 <sat>9</sat>
</trkpt>
<trkpt lat="58.782840000" lon="7.304250000">
<time>2014-01-11T13:26:32Z</time>
 <fix>2d</fix>
 <sat>9</sat>
</trkpt>
<trkpt lat="58.782820000" lon="7.304230000">
<time>2014-01-11T13:26:34Z</time>
 <fix>2d</fix>
 <sat>9</sat>
</trkpt>
<trkpt lat="58.782800000" lon="7.304206667">
<time>2014-01-11T13:26:36Z</time>
 <fix>2d</fix>
 <sat>9</sat>
</trkpt>
<trkpt lat="58.782781667" lon="7.304183333">
<time>2014-01-11T13:26:38Z</time>
 <fix>2d</fix>
 <sat>9</sat>
</trkpt>
<trkpt lat="58.782765000" lon="7.304163333">
<time>2014-01-11T13:26:40Z</time>
 <fix>2d</fix>
 <sat>9</sat>
</trkpt>
<trkpt lat="58.782748333" lon="7.304148333">
<time>2014-01-11T13:26:42Z</time>
 <fix>2d</fix>
 <sat>9</sat>
</trkpt>
<trkpt lat="58.782731667" lon="7.304130000">
<time>2014-01-11T13:26:44Z</time>
 <fix>2d</fix>
 <sat>9</sat>
</trkpt>
<trkpt lat="58.782715000" lon="7.304113333">
<time>2014-01-11T13:26:46Z</time>
 <fix>2d</fix>
 <sat>9</sat>
</trkpt>
<trkpt lat="58.782698333" lon="7.304098333">
<time>2014-01-11T13:26:48Z</time>
 <fix>2d</fix>
 <sat>9</sat>
</trkpt>
<trkpt lat="58.782685000" lon="7.304081667">
<time>2014-01-11T13:26:50Z</time>
 <fix>2d</fix>
 <sat>9</sat>
</trkpt>
<trkpt lat="58.782670000" lon="7.304065000">
<time>2014-01-11T13:26:52Z</time>
 <fix>2d</fix>
 <sat>9</sat>
</trkpt>
<trkpt lat="58.782651667" lon="7.304046667">
<time>2014-01-11T13:26:54Z</time>
 <fix>2d</fix>
 <sat>9</sat>
</trkpt>
<trkpt lat="58.782633333" lon="7.304025000">
<time>2014-01-11T13:26:56Z</time>
 <fix>2d</fix>
 <sat>9</sat>
</trkpt>
<trkpt lat="58.782613333" lon="7.304003333">
<time>2014-01-11T13:26:58Z</time>
 <fix>2d</fix>
 <sat>9</sat>
</trkpt>
<trkpt lat="58.782596667" lon="7.303983333">
<time>2014-01-11T13:27:00Z</time>
 <fix>2d</fix>
 <sat>9</sat>
</trkpt>
<trkpt lat="58.782581667" lon="7.303968333">
<time>2014-01-11T13:27:02Z</time>
 <fix>2d</fix>
 <sat>9</sat>
</trkpt>
<trkpt lat="58.782568333" lon="7.303963333">
<time>2014-01-11T13:27:04Z</time>
 <fix>2d</fix>
 <sat>9</sat>
</trkpt>
<trkpt lat="58.782555000" lon="7.303955000">
<time>2014-01-11T13:27:06Z</time>
 <fix>2d</fix>
 <sat>9</sat>
</trkpt>
<trkpt lat="58.782545000" lon="7.303950000">
<time>2014-01-11T13:27:08Z</time>
 <fix>2d</fix>
 <sat>9</sat>
</trkpt>
<trkpt lat="58.782531667" lon="7.303946667">
<time>2014-01-11T13:27:10Z</time>
 <fix>2d</fix>
 <sat>9</sat>
</trkpt>
<trkpt lat="58.782513333" lon="7.303940000">
<time>2014-01-11T13:27:12Z</time>
 <fix>2d</fix>
 <sat>9</sat>
</trkpt>
<trkpt lat="58.782490000" lon="7.303933333">
<time>2014-01-11T13:27:14Z</time>
 <fix>2d</fix>
 <sat>9</sat>
</trkpt>
<trkpt lat="58.782468333" lon="7.303931667">
<time>2014-01-11T13:27:16Z</time>
 <fix>2d</fix>
 <sat>9</sat>
</trkpt>
<trkpt lat="58.782448333" lon="7.303931667">
<time>2014-01-11T13:27:18Z</time>
 <fix>2d</fix>
 <sat>9</sat>
</trkpt>
<trkpt lat="58.782431667" lon="7.303933333">
<time>2014-01-11T13:27:20Z</time>
 <fix>2d</fix>
 <sat>9</sat>
</trkpt>
<trkpt lat="58.782415000" lon="7.303941667">
<time>2014-01-11T13:27:22Z</time>
 <fix>2d</fix>
 <sat>9</sat>
</trkpt>
<trkpt lat="58.782396667" lon="7.303955000">
<time>2014-01-11T13:27:24Z</time>
 <fix>2d</fix>
 <sat>9</sat>
</trkpt>
<trkpt lat="58.782375000" lon="7.303973333">
<time>2014-01-11T13:27:26Z</time>
 <fix>2d</fix>
 <sat>9</sat>
</trkpt>
<trkpt lat="58.782355000" lon="7.304001667">
<time>2014-01-11T13:27:28Z</time>
 <fix>2d</fix>
 <sat>9</sat>
</trkpt>
<trkpt lat="58.782340000" lon="7.304035000">
<time>2014-01-11T13:27:30Z</time>
 <fix>2d</fix>
 <sat>9</sat>
</trkpt>
<trkpt lat="58.782330000" lon="7.304066667">
<time>2014-01-11T13:27:32Z</time>
 <fix>2d</fix>
 <sat>9</sat>
</trkpt>
<trkpt lat="58.782321667" lon="7.304095000">
<time>2014-01-11T13:27:34Z</time>
 <fix>2d</fix>
 <sat>9</sat>
</trkpt>
<trkpt lat="58.782311667" lon="7.304123333">
<time>2014-01-11T13:27:36Z</time>
 <fix>2d</fix>
 <sat>9</sat>
</trkpt>
<trkpt lat="58.782305000" lon="7.304145000">
<time>2014-01-11T13:27:38Z</time>
 <fix>2d</fix>
 <sat>9</sat>
</trkpt>
<trkpt lat="58.782298333" lon="7.304168333">
<time>2014-01-11T13:27:40Z</time>
 <fix>2d</fix>
 <sat>9</sat>
</trkpt>
<trkpt lat="58.782293333" lon="7.304195000">
<time>2014-01-11T13:27:42Z</time>
 <fix>2d</fix>
 <sat>9</sat>
</trkpt>
<trkpt lat="58.782288333" lon="7.304225000">
<time>2014-01-11T13:27:44Z</time>
 <fix>2d</fix>
 <sat>9</sat>
</trkpt>
<trkpt lat="58.782288333" lon="7.304251667">
<time>2014-01-11T13:27:46Z</time>
 <fix>2d</fix>
 <sat>9</sat>
</trkpt>
<trkpt lat="58.782285000" lon="7.304285000">
<time>2014-01-11T13:27:48Z</time>
 <fix>2d</fix>
 <sat>9</sat>
</trkpt>
<trkpt lat="58.782283333" lon="7.304316667">
<time>2014-01-11T13:27:50Z</time>
 <fix>2d</fix>
 <sat>9</sat>
</trkpt>
<trkpt lat="58.782283333" lon="7.304356667">
<time>2014-01-11T13:27:52Z</time>
 <fix>2d</fix>
 <sat>9</sat>
</trkpt>
<trkpt lat="58.782283333" lon="7.304398333">
<time>2014-01-11T13:27:54Z</time>
 <fix>2d</fix>
 <sat>9</sat>
</trkpt>
<trkpt lat="58.782283333" lon="7.304455000">
<time>2014-01-11T13:27:56Z</time>
 <fix>2d</fix>
 <sat>9</sat>
</trkpt>
<trkpt lat="58.782285000" lon="7.304513333">
<time>2014-01-11T13:27:58Z</time>
 <fix>2d</fix>
 <sat>9</sat>
</trkpt>
<trkpt lat="58.782285000" lon="7.304556667">
<time>2014-01-11T13:28:00Z</time>
 <fix>2d</fix>
 <sat>9</sat>
</trkpt>
<trkpt lat="58.782286667" lon="7.304603333">
<time>2014-01-11T13:28:02Z</time>
 <fix>2d</fix>
 <sat>9</sat>
</trkpt>
<trkpt lat="58.782288333" lon="7.304666667">
<time>2014-01-11T13:28:04Z</time>
 <fix>2d</fix>
 <sat>9</sat>
</trkpt>
<trkpt lat="58.782288333" lon="7.304738333">
<time>2014-01-11T13:28:06Z</time>
 <fix>2d</fix>
 <sat>9</sat>
</trkpt>
<trkpt lat="58.782288333" lon="7.304808333">
<time>2014-01-11T13:28:08Z</time>
 <fix>2d</fix>
 <sat>9</sat>
</trkpt>
<trkpt lat="58.782288333" lon="7.304835000">
<time>2014-01-11T13:28:10Z</time>
 <fix>2d</fix>
 <sat>9</sat>
</trkpt>
<trkpt lat="58.782288333" lon="7.304866667">
<time>2014-01-11T13:28:12Z</time>
 <fix>2d</fix>
 <sat>9</sat>
</trkpt>
<trkpt lat="58.782286667" lon="7.304903333">
<time>2014-01-11T13:28:14Z</time>
 <fix>2d</fix>
 <sat>9</sat>
</trkpt>
<trkpt lat="58.782286667" lon="7.304960000">
<time>2014-01-11T13:28:16Z</time>
 <fix>2d</fix>
 <sat>9</sat>
</trkpt>
<trkpt lat="58.782286667" lon="7.305016667">
<time>2014-01-11T13:28:18Z</time>
 <fix>2d</fix>
 <sat>9</sat>
</trkpt>
<trkpt lat="58.782288333" lon="7.305080000">
<time>2014-01-11T13:28:20Z</time>
 <fix>2d</fix>
 <sat>9</sat>
</trkpt>
<trkpt lat="58.782288333" lon="7.305163333">
<time>2014-01-11T13:28:22Z</time>
 <fix>2d</fix>
 <sat>9</sat>
</trkpt>
<trkpt lat="58.782291667" lon="7.305238333">
<time>2014-01-11T13:28:24Z</time>
 <fix>2d</fix>
 <sat>9</sat>
</trkpt>
<trkpt lat="58.782293333" lon="7.305311667">
<time>2014-01-11T13:28:26Z</time>
 <fix>2d</fix>
 <sat>9</sat>
</trkpt>
<trkpt lat="58.782296667" lon="7.305403333">
<time>2014-01-11T13:28:28Z</time>
 <fix>2d</fix>
 <sat>9</sat>
</trkpt>
<trkpt lat="58.782301667" lon="7.305546667">
<time>2014-01-11T13:28:30Z</time>
 <fix>2d</fix>
 <sat>9</sat>
</trkpt>
<trkpt lat="58.782310000" lon="7.305723333">
<time>2014-01-11T13:28:32Z</time>
 <fix>2d</fix>
 <sat>9</sat>
</trkpt>
<trkpt lat="58.782331667" lon="7.305873333">
<time>2014-01-11T13:28:34Z</time>
 <fix>2d</fix>
 <sat>9</sat>
</trkpt>
<trkpt lat="58.782356667" lon="7.305981667">
<time>2014-01-11T13:28:36Z</time>
 <fix>2d</fix>
 <sat>9</sat>
</trkpt>
<trkpt lat="58.782388333" lon="7.306098333">
<time>2014-01-11T13:28:38Z</time>
 <fix>2d</fix>
 <sat>9</sat>
</trkpt>
<trkpt lat="58.782421667" lon="7.306215000">
<time>2014-01-11T13:28:40Z</time>
 <fix>2d</fix>
 <sat>9</sat>
</trkpt>
<trkpt lat="58.782446667" lon="7.306338333">
<time>2014-01-11T13:28:42Z</time>
 <fix>2d</fix>
 <sat>9</sat>
</trkpt>
<trkpt lat="58.782460000" lon="7.306453333">
<time>2014-01-11T13:28:44Z</time>
 <fix>2d</fix>
 <sat>9</sat>
</trkpt>
<trkpt lat="58.782466667" lon="7.306523333">
<time>2014-01-11T13:28:46Z</time>
 <fix>2d</fix>
 <sat>9</sat>
</trkpt>
<trkpt lat="58.782471667" lon="7.306588333">
<time>2014-01-11T13:28:48Z</time>
 <fix>2d</fix>
 <sat>9</sat>
</trkpt>
<trkpt lat="58.782475000" lon="7.306661667">
<time>2014-01-11T13:28:50Z</time>
 <fix>2d</fix>
 <sat>9</sat>
</trkpt>
<trkpt lat="58.782476667" lon="7.306738333">
<time>2014-01-11T13:28:52Z</time>
 <fix>2d</fix>
 <sat>9</sat>
</trkpt>
<trkpt lat="58.782476667" lon="7.306815000">
<time>2014-01-11T13:28:54Z</time>
 <fix>2d</fix>
 <sat>9</sat>
</trkpt>
<trkpt lat="58.782476667" lon="7.306905000">
<time>2014-01-11T13:28:56Z</time>
 <fix>2d</fix>
 <sat>9</sat>
</trkpt>
<trkpt lat="58.782476667" lon="7.307000000">
<time>2014-01-11T13:28:58Z</time>
 <fix>2d</fix>
 <sat>9</sat>
</trkpt>
<trkpt lat="58.782476667" lon="7.307116667">
<time>2014-01-11T13:29:00Z</time>
 <fix>2d</fix>
 <sat>9</sat>
</trkpt>
<trkpt lat="58.782473333" lon="7.307228333">
<time>2014-01-11T13:29:02Z</time>
 <fix>2d</fix>
 <sat>9</sat>
</trkpt>
<trkpt lat="58.782470000" lon="7.307321667">
<time>2014-01-11T13:29:04Z</time>
 <fix>2d</fix>
 <sat>9</sat>
</trkpt>
<trkpt lat="58.782470000" lon="7.307391667">
<time>2014-01-11T13:29:06Z</time>
 <fix>2d</fix>
 <sat>9</sat>
</trkpt>
<trkpt lat="58.782466667" lon="7.307463333">
<time>2014-01-11T13:29:08Z</time>
 <fix>2d</fix>
 <sat>9</sat>
</trkpt>
<trkpt lat="58.782461667" lon="7.307543333">
<time>2014-01-11T13:29:10Z</time>
 <fix>2d</fix>
 <sat>9</sat>
</trkpt>
<trkpt lat="58.782448333" lon="7.307650000">
<time>2014-01-11T13:29:12Z</time>
 <fix>2d</fix>
 <sat>9</sat>
</trkpt>
<trkpt lat="58.782430000" lon="7.307771667">
<time>2014-01-11T13:29:14Z</time>
 <fix>2d</fix>
 <sat>9</sat>
</trkpt>
<trkpt lat="58.782388333" lon="7.307921667">
<time>2014-01-11T13:29:16Z</time>
 <fix>2d</fix>
 <sat>9</sat>
</trkpt>
<trkpt lat="58.782336667" lon="7.308048333">
<time>2014-01-11T13:29:18Z</time>
 <fix>2d</fix>
 <sat>9</sat>
</trkpt>
<trkpt lat="58.782271667" lon="7.308151667">
<time>2014-01-11T13:29:20Z</time>
 <fix>2d</fix>
 <sat>9</sat>
</trkpt>
<trkpt lat="58.782195000" lon="7.308261667">
<time>2014-01-11T13:29:22Z</time>
 <fix>2d</fix>
 <sat>9</sat>
</trkpt>
<trkpt lat="58.782121667" lon="7.308408333">
<time>2014-01-11T13:29:24Z</time>
 <fix>2d</fix>
 <sat>9</sat>
</trkpt>
<trkpt lat="58.782080000" lon="7.308626667">
<time>2014-01-11T13:29:26Z</time>
 <fix>2d</fix>
 <sat>9</sat>
</trkpt>
<trkpt lat="58.782105000" lon="7.308835000">
<time>2014-01-11T13:29:28Z</time>
 <fix>2d</fix>
 <sat>9</sat>
</trkpt>
<trkpt lat="58.782156667" lon="7.308953333">
<time>2014-01-11T13:29:30Z</time>
 <fix>2d</fix>
 <sat>10</sat>
</trkpt>
<trkpt lat="58.782203333" lon="7.309056667">
<time>2014-01-11T13:29:32Z</time>
 <fix>2d</fix>
 <sat>10</sat>
</trkpt>
<trkpt lat="58.782238333" lon="7.309171667">
<time>2014-01-11T13:29:34Z</time>
 <fix>2d</fix>
 <sat>10</sat>
</trkpt>
<trkpt lat="58.782271667" lon="7.309310000">
<time>2014-01-11T13:29:36Z</time>
 <fix>2d</fix>
 <sat>10</sat>
</trkpt>
<trkpt lat="58.782321667" lon="7.309468333">
<time>2014-01-11T13:29:38Z</time>
 <fix>2d</fix>
 <sat>10</sat>
</trkpt>
<trkpt lat="58.782383333" lon="7.309631667">
<time>2014-01-11T13:29:40Z</time>
 <fix>2d</fix>
 <sat>10</sat>
</trkpt>
<trkpt lat="58.782418333" lon="7.309798333">
<time>2014-01-11T13:29:42Z</time>
 <fix>2d</fix>
 <sat>10</sat>
</trkpt>
<trkpt lat="58.782411667" lon="7.310008333">
<time>2014-01-11T13:29:44Z</time>
 <fix>2d</fix>
 <sat>10</sat>
</trkpt>
<trkpt lat="58.782373333" lon="7.310208333">
<time>2014-01-11T13:29:46Z</time>
 <fix>2d</fix>
 <sat>10</sat>
</trkpt>
<trkpt lat="58.782323333" lon="7.310340000">
<time>2014-01-11T13:29:48Z</time>
 <fix>2d</fix>
 <sat>9</sat>
</trkpt>
<trkpt lat="58.782283333" lon="7.310421667">
<time>2014-01-11T13:29:50Z</time>
 <fix>2d</fix>
 <sat>9</sat>
</trkpt>
<trkpt lat="58.782248333" lon="7.310500000">
<time>2014-01-11T13:29:52Z</time>
 <fix>2d</fix>
 <sat>9</sat>
</trkpt>
<trkpt lat="58.782225000" lon="7.310565000">
<time>2014-01-11T13:29:54Z</time>
 <fix>2d</fix>
 <sat>9</sat>
</trkpt>
<trkpt lat="58.782206667" lon="7.310635000">
<time>2014-01-11T13:29:56Z</time>
 <fix>2d</fix>
 <sat>9</sat>
</trkpt>
<trkpt lat="58.782190000" lon="7.310726667">
<time>2014-01-11T13:29:58Z</time>
 <fix>2d</fix>
 <sat>9</sat>
</trkpt>
<trkpt lat="58.782181667" lon="7.310836667">
<time>2014-01-11T13:30:00Z</time>
 <fix>2d</fix>
 <sat>9</sat>
</trkpt>
<trkpt lat="58.782178333" lon="7.310951667">
<time>2014-01-11T13:30:02Z</time>
 <fix>2d</fix>
 <sat>10</sat>
</trkpt>
<trkpt lat="58.782168333" lon="7.311075000">
<time>2014-01-11T13:30:04Z</time>
 <fix>2d</fix>
 <sat>10</sat>
</trkpt>
<trkpt lat="58.782140000" lon="7.311205000">
<time>2014-01-11T13:30:06Z</time>
 <fix>2d</fix>
 <sat>10</sat>
</trkpt>
<trkpt lat="58.782096667" lon="7.311283333">
<time>2014-01-11T13:30:08Z</time>
 <fix>2d</fix>
 <sat>10</sat>
</trkpt>
<trkpt lat="58.782043333" lon="7.311328333">
<time>2014-01-11T13:30:10Z</time>
 <fix>2d</fix>
 <sat>9</sat>
</trkpt>
<trkpt lat="58.781980000" lon="7.311340000">
<time>2014-01-11T13:30:12Z</time>
 <fix>2d</fix>
 <sat>9</sat>
</trkpt>
<trkpt lat="58.781918333" lon="7.311328333">
<time>2014-01-11T13:30:14Z</time>
 <fix>2d</fix>
 <sat>9</sat>
</trkpt>
<trkpt lat="58.781880000" lon="7.311306667">
<time>2014-01-11T13:30:16Z</time>
 <fix>2d</fix>
 <sat>9</sat>
</trkpt>
<trkpt lat="58.781846667" lon="7.311286667">
<time>2014-01-11T13:30:18Z</time>
 <fix>2d</fix>
 <sat>9</sat>
</trkpt>
<trkpt lat="58.781810000" lon="7.311265000">
<time>2014-01-11T13:30:20Z</time>
 <fix>2d</fix>
 <sat>9</sat>
</trkpt>
<trkpt lat="58.781770000" lon="7.311240000">
<time>2014-01-11T13:30:22Z</time>
 <fix>2d</fix>
 <sat>9</sat>
</trkpt>
<trkpt lat="58.781720000" lon="7.311223333">
<time>2014-01-11T13:30:24Z</time>
 <fix>2d</fix>
 <sat>10</sat>
</trkpt>
<trkpt lat="58.781670000" lon="7.311231667">
<time>2014-01-11T13:30:26Z</time>
 <fix>2d</fix>
 <sat>10</sat>
</trkpt>
<trkpt lat="58.781628333" lon="7.311278333">
<time>2014-01-11T13:30:28Z</time>
 <fix>2d</fix>
 <sat>10</sat>
</trkpt>
<trkpt lat="58.781600000" lon="7.311335000">
<time>2014-01-11T13:30:30Z</time>
 <fix>2d</fix>
 <sat>10</sat>
</trkpt>
<trkpt lat="58.781586667" lon="7.311393333">
<time>2014-01-11T13:30:32Z</time>
 <fix>2d</fix>
 <sat>10</sat>
</trkpt>
<trkpt lat="58.781578333" lon="7.311445000">
<time>2014-01-11T13:30:34Z</time>
 <fix>2d</fix>
 <sat>10</sat>
</trkpt>
<trkpt lat="58.781576667" lon="7.311508333">
<time>2014-01-11T13:30:36Z</time>
 <fix>2d</fix>
 <sat>10</sat>
</trkpt>
<trkpt lat="58.781570000" lon="7.311581667">
<time>2014-01-11T13:30:38Z</time>
 <fix>2d</fix>
 <sat>10</sat>
</trkpt>
<trkpt lat="58.781565000" lon="7.311671667">
<time>2014-01-11T13:30:40Z</time>
 <fix>2d</fix>
 <sat>10</sat>
</trkpt>
<trkpt lat="58.781555000" lon="7.311781667">
<time>2014-01-11T13:30:42Z</time>
 <fix>2d</fix>
 <sat>10</sat>
</trkpt>
<trkpt lat="58.781540000" lon="7.311876667">
<time>2014-01-11T13:30:44Z</time>
 <fix>2d</fix>
 <sat>10</sat>
</trkpt>
<trkpt lat="58.781525000" lon="7.311931667">
<time>2014-01-11T13:30:46Z</time>
 <fix>2d</fix>
 <sat>10</sat>
</trkpt>
<trkpt lat="58.781515000" lon="7.311965000">
<time>2014-01-11T13:30:48Z</time>
 <fix>2d</fix>
 <sat>10</sat>
</trkpt>
<trkpt lat="58.781510000" lon="7.312001667">
<time>2014-01-11T13:30:50Z</time>
 <fix>2d</fix>
 <sat>10</sat>
</trkpt>
<trkpt lat="58.781505000" lon="7.312028333">
<time>2014-01-11T13:30:52Z</time>
 <fix>2d</fix>
 <sat>10</sat>
</trkpt>
<trkpt lat="58.781495000" lon="7.312053333">
<time>2014-01-11T13:30:54Z</time>
 <fix>2d</fix>
 <sat>10</sat>
</trkpt>
<trkpt lat="58.781488333" lon="7.312078333">
<time>2014-01-11T13:30:56Z</time>
 <fix>2d</fix>
 <sat>10</sat>
</trkpt>
<trkpt lat="58.781483333" lon="7.312091667">
<time>2014-01-11T13:30:58Z</time>
 <fix>2d</fix>
 <sat>10</sat>
</trkpt>
<trkpt lat="58.781481667" lon="7.312110000">
<time>2014-01-11T13:31:00Z</time>
 <fix>2d</fix>
 <sat>10</sat>
</trkpt>
<trkpt lat="58.781481667" lon="7.312133333">
<time>2014-01-11T13:31:02Z</time>
 <fix>2d</fix>
 <sat>10</sat>
</trkpt>
<trkpt lat="58.781483333" lon="7.312160000">
<time>2014-01-11T13:31:04Z</time>
 <fix>2d</fix>
 <sat>10</sat>
</trkpt>
<trkpt lat="58.781488333" lon="7.312193333">
<time>2014-01-11T13:31:06Z</time>
 <fix>2d</fix>
 <sat>10</sat>
</trkpt>
<trkpt lat="58.781493333" lon="7.312233333">
<time>2014-01-11T13:31:08Z</time>
 <fix>2d</fix>
 <sat>10</sat>
</trkpt>
<trkpt lat="58.781495000" lon="7.312285000">
<time>2014-01-11T13:31:10Z</time>
 <fix>2d</fix>
 <sat>10</sat>
</trkpt>
<trkpt lat="58.781506667" lon="7.312358333">
<time>2014-01-11T13:31:12Z</time>
 <fix>2d</fix>
 <sat>10</sat>
</trkpt>
<trkpt lat="58.781520000" lon="7.312443333">
<time>2014-01-11T13:31:14Z</time>
 <fix>2d</fix>
 <sat>9</sat>
</trkpt>
<trkpt lat="58.781533333" lon="7.312508333">
<time>2014-01-11T13:31:16Z</time>
 <fix>2d</fix>
 <sat>9</sat>
</trkpt>
<trkpt lat="58.781541667" lon="7.312558333">
<time>2014-01-11T13:31:18Z</time>
 <fix>2d</fix>
 <sat>10</sat>
</trkpt>
<trkpt lat="58.781545000" lon="7.312585000">
<time>2014-01-11T13:31:20Z</time>
 <fix>2d</fix>
 <sat>10</sat>
</trkpt>
<trkpt lat="58.781548333" lon="7.312606667">
<time>2014-01-11T13:31:22Z</time>
 <fix>2d</fix>
 <sat>10</sat>
</trkpt>
<trkpt lat="58.781555000" lon="7.312628333">
<time>2014-01-11T13:31:24Z</time>
 <fix>2d</fix>
 <sat>10</sat>
</trkpt>
<trkpt lat="58.781560000" lon="7.312651667">
<time>2014-01-11T13:31:26Z</time>
 <fix>2d</fix>
 <sat>10</sat>
</trkpt>
<trkpt lat="58.781568333" lon="7.312675000">
<time>2014-01-11T13:31:28Z</time>
 <fix>2d</fix>
 <sat>10</sat>
</trkpt>
<trkpt lat="58.781576667" lon="7.312708333">
<time>2014-01-11T13:31:30Z</time>
 <fix>2d</fix>
 <sat>10</sat>
</trkpt>
<trkpt lat="58.781586667" lon="7.312751667">
<time>2014-01-11T13:31:32Z</time>
 <fix>2d</fix>
 <sat>10</sat>
</trkpt>
<trkpt lat="58.781590000" lon="7.312821667">
<time>2014-01-11T13:31:34Z</time>
 <fix>2d</fix>
 <sat>10</sat>
</trkpt>
<trkpt lat="58.781585000" lon="7.312908333">
<time>2014-01-11T13:31:36Z</time>
 <fix>2d</fix>
 <sat>10</sat>
</trkpt>
<trkpt lat="58.781566667" lon="7.312996667">
<time>2014-01-11T13:31:38Z</time>
 <fix>2d</fix>
 <sat>10</sat>
</trkpt>
<trkpt lat="58.781526667" lon="7.313071667">
<time>2014-01-11T13:31:40Z</time>
 <fix>2d</fix>
 <sat>10</sat>
</trkpt>
<trkpt lat="58.781481667" lon="7.313135000">
<time>2014-01-11T13:31:42Z</time>
 <fix>2d</fix>
 <sat>10</sat>
</trkpt>
<trkpt lat="58.781431667" lon="7.313205000">
<time>2014-01-11T13:31:44Z</time>
 <fix>2d</fix>
 <sat>10</sat>
</trkpt>
<trkpt lat="58.781396667" lon="7.313266667">
<time>2014-01-11T13:31:46Z</time>
 <fix>2d</fix>
 <sat>10</sat>
</trkpt>
<trkpt lat="58.781353333" lon="7.313346667">
<time>2014-01-11T13:31:48Z</time>
 <fix>2d</fix>
 <sat>10</sat>
</trkpt>
<trkpt lat="58.781290000" lon="7.313473333">
<time>2014-01-11T13:31:50Z</time>
 <fix>2d</fix>
 <sat>10</sat>
</trkpt>
<trkpt lat="58.781210000" lon="7.313636667">
<time>2014-01-11T13:31:52Z</time>
 <fix>2d</fix>
 <sat>10</sat>
</trkpt>
<trkpt lat="58.781130000" lon="7.313816667">
<time>2014-01-11T13:31:54Z</time>
 <fix>2d</fix>
 <sat>10</sat>
</trkpt>
<trkpt lat="58.781053333" lon="7.314008333">
<time>2014-01-11T13:31:56Z</time>
 <fix>2d</fix>
 <sat>9</sat>
</trkpt>
<trkpt lat="58.781005000" lon="7.314201667">
<time>2014-01-11T13:31:58Z</time>
 <fix>2d</fix>
 <sat>9</sat>
</trkpt>
<trkpt lat="58.780995000" lon="7.314363333">
<time>2014-01-11T13:32:00Z</time>
 <fix>2d</fix>
 <sat>9</sat>
</trkpt>
<trkpt lat="58.780995000" lon="7.314575000">
<time>2014-01-11T13:32:02Z</time>
 <fix>2d</fix>
 <sat>9</sat>
</trkpt>
<trkpt lat="58.780998333" lon="7.314815000">
<time>2014-01-11T13:32:04Z</time>
 <fix>2d</fix>
 <sat>9</sat>
</trkpt>
<trkpt lat="58.781015000" lon="7.315038333">
<time>2014-01-11T13:32:06Z</time>
 <fix>2d</fix>
 <sat>9</sat>
</trkpt>
<trkpt lat="58.781040000" lon="7.315253333">
<time>2014-01-11T13:32:08Z</time>
 <fix>2d</fix>
 <sat>9</sat>
</trkpt>
<trkpt lat="58.781063333" lon="7.315443333">
<time>2014-01-11T13:32:10Z</time>
 <fix>2d</fix>
 <sat>9</sat>
</trkpt>
<trkpt lat="58.781080000" lon="7.315593333">
<time>2014-01-11T13:32:12Z</time>
 <fix>2d</fix>
 <sat>9</sat>
</trkpt>
<trkpt lat="58.781095000" lon="7.315725000">
<time>2014-01-11T13:32:14Z</time>
 <fix>2d</fix>
 <sat>9</sat>
</trkpt>
<trkpt lat="58.781108333" lon="7.315865000">
<time>2014-01-11T13:32:16Z</time>
 <fix>2d</fix>
 <sat>9</sat>
</trkpt>
<trkpt lat="58.781121667" lon="7.316001667">
<time>2014-01-11T13:32:18Z</time>
 <fix>2d</fix>
 <sat>9</sat>
</trkpt>
<trkpt lat="58.781136667" lon="7.316131667">
<time>2014-01-11T13:32:20Z</time>
 <fix>2d</fix>
 <sat>9</sat>
</trkpt>
<trkpt lat="58.781141667" lon="7.316238333">
<time>2014-01-11T13:32:22Z</time>
 <fix>2d</fix>
 <sat>9</sat>
</trkpt>
<trkpt lat="58.781146667" lon="7.316331667">
<time>2014-01-11T13:32:24Z</time>
 <fix>2d</fix>
 <sat>9</sat>
</trkpt>
<trkpt lat="58.781156667" lon="7.316425000">
<time>2014-01-11T13:32:26Z</time>
 <fix>2d</fix>
 <sat>9</sat>
</trkpt>
<trkpt lat="58.781163333" lon="7.316523333">
<time>2014-01-11T13:32:28Z</time>
 <fix>2d</fix>
 <sat>9</sat>
</trkpt>
<trkpt lat="58.781175000" lon="7.316620000">
<time>2014-01-11T13:32:30Z</time>
 <fix>2d</fix>
 <sat>9</sat>
</trkpt>
<trkpt lat="58.781190000" lon="7.316710000">
<time>2014-01-11T13:32:32Z</time>
 <fix>2d</fix>
 <sat>9</sat>
</trkpt>
<trkpt lat="58.781211667" lon="7.316808333">
<time>2014-01-11T13:32:34Z</time>
 <fix>2d</fix>
 <sat>9</sat>
</trkpt>
<trkpt lat="58.781233333" lon="7.316896667">
<time>2014-01-11T13:32:36Z</time>
 <fix>2d</fix>
 <sat>9</sat>
</trkpt>
<trkpt lat="58.781248333" lon="7.316968333">
<time>2014-01-11T13:32:38Z</time>
 <fix>2d</fix>
 <sat>9</sat>
</trkpt>
<trkpt lat="58.781263333" lon="7.317038333">
<time>2014-01-11T13:32:40Z</time>
 <fix>2d</fix>
 <sat>9</sat>
</trkpt>
<trkpt lat="58.781281667" lon="7.317113333">
<time>2014-01-11T13:32:42Z</time>
 <fix>2d</fix>
 <sat>9</sat>
</trkpt>
<trkpt lat="58.781301667" lon="7.317185000">
<time>2014-01-11T13:32:44Z</time>
 <fix>2d</fix>
 <sat>9</sat>
</trkpt>
<trkpt lat="58.781313333" lon="7.317241667">
<time>2014-01-11T13:32:46Z</time>
 <fix>2d</fix>
 <sat>9</sat>
</trkpt>
<trkpt lat="58.781328333" lon="7.317295000">
<time>2014-01-11T13:32:48Z</time>
 <fix>2d</fix>
 <sat>9</sat>
</trkpt>
<trkpt lat="58.781341667" lon="7.317346667">
<time>2014-01-11T13:32:50Z</time>
 <fix>2d</fix>
 <sat>9</sat>
</trkpt>
<trkpt lat="58.781353333" lon="7.317401667">
<time>2014-01-11T13:32:52Z</time>
 <fix>2d</fix>
 <sat>9</sat>
</trkpt>
<trkpt lat="58.781368333" lon="7.317461667">
<time>2014-01-11T13:32:54Z</time>
 <fix>2d</fix>
 <sat>9</sat>
</trkpt>
<trkpt lat="58.781385000" lon="7.317520000">
<time>2014-01-11T13:32:56Z</time>
 <fix>2d</fix>
 <sat>9</sat>
</trkpt>
<trkpt lat="58.781406667" lon="7.317590000">
<time>2014-01-11T13:32:58Z</time>
 <fix>2d</fix>
 <sat>9</sat>
</trkpt>
<trkpt lat="58.781435000" lon="7.317678333">
<time>2014-01-11T13:33:00Z</time>
 <fix>2d</fix>
 <sat>9</sat>
</trkpt>
<trkpt lat="58.781470000" lon="7.317783333">
<time>2014-01-11T13:33:02Z</time>
 <fix>2d</fix>
 <sat>9</sat>
</trkpt>
<trkpt lat="58.781503333" lon="7.317880000">
<time>2014-01-11T13:33:04Z</time>
 <fix>2d</fix>
 <sat>9</sat>
</trkpt>
<trkpt lat="58.781526667" lon="7.317950000">
<time>2014-01-11T13:33:06Z</time>
 <fix>2d</fix>
 <sat>9</sat>
</trkpt>
<trkpt lat="58.781551667" lon="7.318021667">
<time>2014-01-11T13:33:08Z</time>
 <fix>2d</fix>
 <sat>9</sat>
</trkpt>
<trkpt lat="58.781576667" lon="7.318108333">
<time>2014-01-11T13:33:10Z</time>
 <fix>2d</fix>
 <sat>9</sat>
</trkpt>
<trkpt lat="58.781605000" lon="7.318208333">
<time>2014-01-11T13:33:12Z</time>
 <fix>2d</fix>
 <sat>9</sat>
</trkpt>
<trkpt lat="58.781636667" lon="7.318323333">
<time>2014-01-11T13:33:14Z</time>
 <fix>2d</fix>
 <sat>9</sat>
</trkpt>
<trkpt lat="58.781670000" lon="7.318448333">
<time>2014-01-11T13:33:16Z</time>
 <fix>2d</fix>
 <sat>9</sat>
</trkpt>
<trkpt lat="58.781693333" lon="7.318541667">
<time>2014-01-11T13:33:18Z</time>
 <fix>2d</fix>
 <sat>9</sat>
</trkpt>
<trkpt lat="58.781716667" lon="7.318621667">
<time>2014-01-11T13:33:20Z</time>
 <fix>2d</fix>
 <sat>9</sat>
</trkpt>
<trkpt lat="58.781741667" lon="7.318710000">
<time>2014-01-11T13:33:22Z</time>
 <fix>2d</fix>
 <sat>9</sat>
</trkpt>
<trkpt lat="58.781766667" lon="7.318803333">
<time>2014-01-11T13:33:24Z</time>
 <fix>2d</fix>
 <sat>9</sat>
</trkpt>
<trkpt lat="58.781788333" lon="7.318928333">
<time>2014-01-11T13:33:26Z</time>
 <fix>2d</fix>
 <sat>9</sat>
</trkpt>
<trkpt lat="58.781806667" lon="7.319073333">
<time>2014-01-11T13:33:28Z</time>
 <fix>2d</fix>
 <sat>9</sat>
</trkpt>
<trkpt lat="58.781815000" lon="7.319228333">
<time>2014-01-11T13:33:30Z</time>
 <fix>2d</fix>
 <sat>9</sat>
</trkpt>
<trkpt lat="58.781818333" lon="7.319380000">
<time>2014-01-11T13:33:32Z</time>
 <fix>2d</fix>
 <sat>9</sat>
</trkpt>
<trkpt lat="58.781820000" lon="7.319516667">
<time>2014-01-11T13:33:34Z</time>
 <fix>2d</fix>
 <sat>9</sat>
</trkpt>
<trkpt lat="58.781821667" lon="7.319613333">
<time>2014-01-11T13:33:36Z</time>
 <fix>2d</fix>
 <sat>9</sat>
</trkpt>
<trkpt lat="58.781825000" lon="7.319688333">
<time>2014-01-11T13:33:38Z</time>
 <fix>2d</fix>
 <sat>9</sat>
</trkpt>
<trkpt lat="58.781830000" lon="7.319788333">
<time>2014-01-11T13:33:40Z</time>
 <fix>2d</fix>
 <sat>9</sat>
</trkpt>
<trkpt lat="58.781836667" lon="7.319926667">
<time>2014-01-11T13:33:42Z</time>
 <fix>2d</fix>
 <sat>9</sat>
</trkpt>
<trkpt lat="58.781841667" lon="7.320075000">
<time>2014-01-11T13:33:44Z</time>
 <fix>2d</fix>
 <sat>9</sat>
</trkpt>
<trkpt lat="58.781838333" lon="7.320198333">
<time>2014-01-11T13:33:46Z</time>
 <fix>2d</fix>
 <sat>9</sat>
</trkpt>
<trkpt lat="58.781833333" lon="7.320275000">
<time>2014-01-11T13:33:48Z</time>
 <fix>2d</fix>
 <sat>9</sat>
</trkpt>
<trkpt lat="58.781830000" lon="7.320331667">
<time>2014-01-11T13:33:50Z</time>
 <fix>2d</fix>
 <sat>9</sat>
</trkpt>
<trkpt lat="58.781821667" lon="7.320390000">
<time>2014-01-11T13:33:52Z</time>
 <fix>2d</fix>
 <sat>9</sat>
</trkpt>
<trkpt lat="58.781806667" lon="7.320498333">
<time>2014-01-11T13:33:54Z</time>
 <fix>2d</fix>
 <sat>9</sat>
</trkpt>
<trkpt lat="58.781776667" lon="7.320668333">
<time>2014-01-11T13:33:56Z</time>
 <fix>2d</fix>
 <sat>9</sat>
</trkpt>
<trkpt lat="58.781746667" lon="7.320825000">
<time>2014-01-11T13:33:58Z</time>
 <fix>2d</fix>
 <sat>9</sat>
</trkpt>
<trkpt lat="58.781726667" lon="7.320926667">
<time>2014-01-11T13:34:00Z</time>
 <fix>2d</fix>
 <sat>9</sat>
</trkpt>
<trkpt lat="58.781716667" lon="7.320980000">
<time>2014-01-11T13:34:02Z</time>
 <fix>2d</fix>
 <sat>9</sat>
</trkpt>
<trkpt lat="58.781706667" lon="7.321013333">
<time>2014-01-11T13:34:04Z</time>
 <fix>2d</fix>
 <sat>9</sat>
</trkpt>
<trkpt lat="58.781700000" lon="7.321041667">
<time>2014-01-11T13:34:06Z</time>
 <fix>2d</fix>
 <sat>9</sat>
</trkpt>
<trkpt lat="58.781693333" lon="7.321068333">
<time>2014-01-11T13:34:08Z</time>
 <fix>2d</fix>
 <sat>9</sat>
</trkpt>
<trkpt lat="58.781686667" lon="7.321101667">
<time>2014-01-11T13:34:10Z</time>
 <fix>2d</fix>
 <sat>9</sat>
</trkpt>
<trkpt lat="58.781678333" lon="7.321151667">
<time>2014-01-11T13:34:12Z</time>
 <fix>2d</fix>
 <sat>9</sat>
</trkpt>
<trkpt lat="58.781670000" lon="7.321216667">
<time>2014-01-11T13:34:14Z</time>
 <fix>2d</fix>
 <sat>9</sat>
</trkpt>
<trkpt lat="58.781656667" lon="7.321291667">
<time>2014-01-11T13:34:16Z</time>
 <fix>2d</fix>
 <sat>9</sat>
</trkpt>
<trkpt lat="58.781643333" lon="7.321395000">
<time>2014-01-11T13:34:18Z</time>
 <fix>2d</fix>
 <sat>9</sat>
</trkpt>
<trkpt lat="58.781625000" lon="7.321510000">
<time>2014-01-11T13:34:20Z</time>
 <fix>2d</fix>
 <sat>9</sat>
</trkpt>
<trkpt lat="58.781610000" lon="7.321621667">
<time>2014-01-11T13:34:22Z</time>
 <fix>2d</fix>
 <sat>9</sat>
</trkpt>
<trkpt lat="58.781593333" lon="7.321741667">
<time>2014-01-11T13:34:24Z</time>
 <fix>2d</fix>
 <sat>9</sat>
</trkpt>
<trkpt lat="58.781576667" lon="7.321895000">
<time>2014-01-11T13:34:26Z</time>
 <fix>2d</fix>
 <sat>8</sat>
</trkpt>
<trkpt lat="58.781551667" lon="7.322108333">
<time>2014-01-11T13:34:28Z</time>
 <fix>2d</fix>
 <sat>8</sat>
</trkpt>
<trkpt lat="58.781535000" lon="7.322321667">
<time>2014-01-11T13:34:30Z</time>
 <fix>2d</fix>
 <sat>9</sat>
</trkpt>
<trkpt lat="58.781530000" lon="7.322518333">
<time>2014-01-11T13:34:32Z</time>
 <fix>2d</fix>
 <sat>9</sat>
</trkpt>
<trkpt lat="58.781536667" lon="7.322681667">
<time>2014-01-11T13:34:34Z</time>
 <fix>2d</fix>
 <sat>9</sat>
</trkpt>
<trkpt lat="58.781550000" lon="7.322816667">
<time>2014-01-11T13:34:36Z</time>
 <fix>2d</fix>
 <sat>10</sat>
</trkpt>
<trkpt lat="58.781563333" lon="7.322886667">
<time>2014-01-11T13:34:38Z</time>
 <fix>2d</fix>
 <sat>10</sat>
</trkpt>
<trkpt lat="58.781570000" lon="7.322958333">
<time>2014-01-11T13:34:40Z</time>
 <fix>2d</fix>
 <sat>10</sat>
</trkpt>
<trkpt lat="58.781581667" lon="7.323035000">
<time>2014-01-11T13:34:42Z</time>
 <fix>2d</fix>
 <sat>10</sat>
</trkpt>
<trkpt lat="58.781588333" lon="7.323108333">
<time>2014-01-11T13:34:44Z</time>
 <fix>2d</fix>
 <sat>10</sat>
</trkpt>
<trkpt lat="58.781591667" lon="7.323176667">
<time>2014-01-11T13:34:46Z</time>
 <fix>2d</fix>
 <sat>10</sat>
</trkpt>
<trkpt lat="58.781593333" lon="7.323236667">
<time>2014-01-11T13:34:48Z</time>
 <fix>2d</fix>
 <sat>10</sat>
</trkpt>
<trkpt lat="58.781600000" lon="7.323303333">
<time>2014-01-11T13:34:50Z</time>
 <fix>2d</fix>
 <sat>10</sat>
</trkpt>
<trkpt lat="58.781621667" lon="7.323385000">
<time>2014-01-11T13:34:52Z</time>
 <fix>2d</fix>
 <sat>10</sat>
</trkpt>
<trkpt lat="58.781678333" lon="7.323491667">
<time>2014-01-11T13:34:54Z</time>
 <fix>2d</fix>
 <sat>10</sat>
</trkpt>
<trkpt lat="58.781768333" lon="7.323586667">
<time>2014-01-11T13:34:56Z</time>
 <fix>2d</fix>
 <sat>10</sat>
</trkpt>
<trkpt lat="58.781871667" lon="7.323663333">
<time>2014-01-11T13:34:58Z</time>
 <fix>2d</fix>
 <sat>10</sat>
</trkpt>
<trkpt lat="58.781961667" lon="7.323706667">
<time>2014-01-11T13:35:00Z</time>
 <fix>2d</fix>
 <sat>11</sat>
</trkpt>
<trkpt lat="58.782043333" lon="7.323743333">
<time>2014-01-11T13:35:02Z</time>
 <fix>2d</fix>
 <sat>11</sat>
</trkpt>
<trkpt lat="58.782096667" lon="7.323770000">
<time>2014-01-11T13:35:04Z</time>
 <fix>2d</fix>
 <sat>11</sat>
</trkpt>
<trkpt lat="58.782126667" lon="7.323786667">
<time>2014-01-11T13:35:06Z</time>
 <fix>2d</fix>
 <sat>11</sat>
</trkpt>
<trkpt lat="58.782158333" lon="7.323818333">
<time>2014-01-11T13:35:08Z</time>
 <fix>2d</fix>
 <sat>11</sat>
</trkpt>
<trkpt lat="58.782191667" lon="7.323870000">
<time>2014-01-11T13:35:10Z</time>
 <fix>2d</fix>
 <sat>10</sat>
</trkpt>
<trkpt lat="58.782205000" lon="7.323946667">
<time>2014-01-11T13:35:12Z</time>
 <fix>2d</fix>
 <sat>11</sat>
</trkpt>
<trkpt lat="58.782198333" lon="7.324021667">
<time>2014-01-11T13:35:14Z</time>
 <fix>2d</fix>
 <sat>11</sat>
</trkpt>
<trkpt lat="58.782181667" lon="7.324091667">
<time>2014-01-11T13:35:16Z</time>
 <fix>2d</fix>
 <sat>11</sat>
</trkpt>
<trkpt lat="58.782161667" lon="7.324156667">
<time>2014-01-11T13:35:18Z</time>
 <fix>2d</fix>
 <sat>11</sat>
</trkpt>
<trkpt lat="58.782136667" lon="7.324220000">
<time>2014-01-11T13:35:20Z</time>
 <fix>2d</fix>
 <sat>11</sat>
</trkpt>
<trkpt lat="58.782113333" lon="7.324285000">
<time>2014-01-11T13:35:22Z</time>
 <fix>2d</fix>
 <sat>11</sat>
</trkpt>
<trkpt lat="58.782088333" lon="7.324355000">
<time>2014-01-11T13:35:24Z</time>
 <fix>2d</fix>
 <sat>11</sat>
</trkpt>
<trkpt lat="58.782060000" lon="7.324433333">
<time>2014-01-11T13:35:26Z</time>
 <fix>2d</fix>
 <sat>11</sat>
</trkpt>
<trkpt lat="58.782031667" lon="7.324505000">
<time>2014-01-11T13:35:28Z</time>
 <fix>2d</fix>
 <sat>11</sat>
</trkpt>
<trkpt lat="58.782010000" lon="7.324566667">
<time>2014-01-11T13:35:30Z</time>
 <fix>2d</fix>
 <sat>11</sat>
</trkpt>
<trkpt lat="58.781985000" lon="7.324625000">
<time>2014-01-11T13:35:32Z</time>
 <fix>2d</fix>
 <sat>11</sat>
</trkpt>
<trkpt lat="58.781965000" lon="7.324673333">
<time>2014-01-11T13:35:34Z</time>
 <fix>2d</fix>
 <sat>11</sat>
</trkpt>
<trkpt lat="58.781946667" lon="7.324715000">
<time>2014-01-11T13:35:36Z</time>
 <fix>2d</fix>
 <sat>11</sat>
</trkpt>
<trkpt lat="58.781928333" lon="7.324758333">
<time>2014-01-11T13:35:38Z</time>
 <fix>2d</fix>
 <sat>11</sat>
</trkpt>
<trkpt lat="58.781913333" lon="7.324803333">
<time>2014-01-11T13:35:40Z</time>
 <fix>2d</fix>
 <sat>11</sat>
</trkpt>
<trkpt lat="58.781901667" lon="7.324845000">
<time>2014-01-11T13:35:42Z</time>
 <fix>2d</fix>
 <sat>11</sat>
</trkpt>
<trkpt lat="58.781893333" lon="7.324885000">
<time>2014-01-11T13:35:44Z</time>
 <fix>2d</fix>
 <sat>11</sat>
</trkpt>
<trkpt lat="58.781881667" lon="7.324918333">
<time>2014-01-11T13:35:46Z</time>
 <fix>2d</fix>
 <sat>11</sat>
</trkpt>
<trkpt lat="58.781868333" lon="7.324955000">
<time>2014-01-11T13:35:48Z</time>
 <fix>2d</fix>
 <sat>11</sat>
</trkpt>
<trkpt lat="58.781856667" lon="7.324990000">
<time>2014-01-11T13:35:50Z</time>
 <fix>2d</fix>
 <sat>12</sat>
</trkpt>
<trkpt lat="58.781846667" lon="7.325023333">
<time>2014-01-11T13:35:52Z</time>
 <fix>2d</fix>
 <sat>12</sat>
</trkpt>
<trkpt lat="58.781836667" lon="7.325053333">
<time>2014-01-11T13:35:54Z</time>
 <fix>2d</fix>
 <sat>12</sat>
</trkpt>
<trkpt lat="58.781825000" lon="7.325086667">
<time>2014-01-11T13:35:56Z</time>
 <fix>2d</fix>
 <sat>12</sat>
</trkpt>
<trkpt lat="58.781813333" lon="7.325128333">
<time>2014-01-11T13:35:58Z</time>
 <fix>2d</fix>
 <sat>12</sat>
</trkpt>
<trkpt lat="58.781803333" lon="7.325168333">
<time>2014-01-11T13:36:00Z</time>
 <fix>2d</fix>
 <sat>12</sat>
</trkpt>
<trkpt lat="58.781796667" lon="7.325206667">
<time>2014-01-11T13:36:02Z</time>
 <fix>2d</fix>
 <sat>11</sat>
</trkpt>
<trkpt lat="58.781795000" lon="7.325248333">
<time>2014-01-11T13:36:04Z</time>
 <fix>2d</fix>
 <sat>11</sat>
</trkpt>
<trkpt lat="58.781830000" lon="7.325333333">
<time>2014-01-11T13:36:06Z</time>
 <fix>2d</fix>
 <sat>11</sat>
</trkpt>
<trkpt lat="58.781875000" lon="7.325431667">
<time>2014-01-11T13:36:08Z</time>
 <fix>2d</fix>
 <sat>11</sat>
</trkpt>
<trkpt lat="58.781938333" lon="7.325510000">
<time>2014-01-11T13:36:10Z</time>
 <fix>2d</fix>
 <sat>11</sat>
</trkpt>
<trkpt lat="58.782016667" lon="7.325583333">
<time>2014-01-11T13:36:12Z</time>
 <fix>2d</fix>
 <sat>11</sat>
</trkpt>
<trkpt lat="58.782101667" lon="7.325665000">
<time>2014-01-11T13:36:14Z</time>
 <fix>2d</fix>
 <sat>11</sat>
</trkpt>
<trkpt lat="58.782185000" lon="7.325748333">
<time>2014-01-11T13:36:16Z</time>
 <fix>2d</fix>
 <sat>11</sat>
</trkpt>
<trkpt lat="58.782268333" lon="7.325843333">
<time>2014-01-11T13:36:18Z</time>
 <fix>2d</fix>
 <sat>11</sat>
</trkpt>
<trkpt lat="58.782331667" lon="7.325958333">
<time>2014-01-11T13:36:20Z</time>
 <fix>2d</fix>
 <sat>11</sat>
</trkpt>
<trkpt lat="58.782391667" lon="7.326080000">
<time>2014-01-11T13:36:22Z</time>
 <fix>2d</fix>
 <sat>11</sat>
</trkpt>
<trkpt lat="58.782451667" lon="7.326201667">
<time>2014-01-11T13:36:24Z</time>
 <fix>2d</fix>
 <sat>11</sat>
</trkpt>
<trkpt lat="58.782500000" lon="7.326316667">
<time>2014-01-11T13:36:26Z</time>
 <fix>2d</fix>
 <sat>11</sat>
</trkpt>
<trkpt lat="58.782536667" lon="7.326411667">
<time>2014-01-11T13:36:28Z</time>
 <fix>2d</fix>
 <sat>11</sat>
</trkpt>
<trkpt lat="58.782568333" lon="7.326495000">
<time>2014-01-11T13:36:30Z</time>
 <fix>2d</fix>
 <sat>11</sat>
</trkpt>
<trkpt lat="58.782603333" lon="7.326570000">
<time>2014-01-11T13:36:32Z</time>
 <fix>2d</fix>
 <sat>11</sat>
</trkpt>
<trkpt lat="58.782645000" lon="7.326671667">
<time>2014-01-11T13:36:34Z</time>
 <fix>2d</fix>
 <sat>11</sat>
</trkpt>
<trkpt lat="58.782680000" lon="7.326745000">
<time>2014-01-11T13:36:36Z</time>
 <fix>2d</fix>
 <sat>10</sat>
</trkpt>
<trkpt lat="58.782720000" lon="7.326821667">
<time>2014-01-11T13:36:38Z</time>
 <fix>2d</fix>
 <sat>10</sat>
</trkpt>
<trkpt lat="58.782780000" lon="7.326911667">
<time>2014-01-11T13:36:40Z</time>
 <fix>2d</fix>
 <sat>9</sat>
</trkpt>
<trkpt lat="58.782853333" lon="7.326993333">
<time>2014-01-11T13:36:42Z</time>
 <fix>2d</fix>
 <sat>10</sat>
</trkpt>
<trkpt lat="58.782915000" lon="7.327063333">
<time>2014-01-11T13:36:44Z</time>
 <fix>2d</fix>
 <sat>10</sat>
</trkpt>
<trkpt lat="58.782973333" lon="7.327145000">
<time>2014-01-11T13:36:46Z</time>
 <fix>2d</fix>
 <sat>10</sat>
</trkpt>
<trkpt lat="58.783026667" lon="7.327233333">
<time>2014-01-11T13:36:48Z</time>
 <fix>2d</fix>
 <sat>10</sat>
</trkpt>
<trkpt lat="58.783073333" lon="7.327318333">
<time>2014-01-11T13:36:50Z</time>
 <fix>2d</fix>
 <sat>10</sat>
</trkpt>
<trkpt lat="58.783115000" lon="7.327378333">
<time>2014-01-11T13:36:52Z</time>
 <fix>2d</fix>
 <sat>10</sat>
</trkpt>
<trkpt lat="58.783151667" lon="7.327416667">
<time>2014-01-11T13:36:54Z</time>
 <fix>2d</fix>
 <sat>10</sat>
</trkpt>
<trkpt lat="58.783153333" lon="7.327415000">
<time>2014-01-11T13:36:56Z</time>
 <fix>2d</fix>
 <sat>10</sat>
</trkpt>
<trkpt lat="58.783151667" lon="7.327413333">
<time>2014-01-11T13:36:58Z</time>
 <fix>2d</fix>
 <sat>10</sat>
</trkpt>
<trkpt lat="58.783148333" lon="7.327408333">
<time>2014-01-11T13:37:00Z</time>
 <fix>2d</fix>
 <sat>10</sat>
</trkpt>
<trkpt lat="58.783148333" lon="7.327405000">
<time>2014-01-11T13:37:02Z</time>
 <fix>2d</fix>
 <sat>10</sat>
</trkpt>
<trkpt lat="58.783148333" lon="7.327405000">
<time>2014-01-11T13:37:04Z</time>
 <fix>2d</fix>
 <sat>10</sat>
</trkpt>
<trkpt lat="58.783151667" lon="7.327415000">
<time>2014-01-11T13:37:06Z</time>
 <fix>2d</fix>
 <sat>10</sat>
</trkpt>
<trkpt lat="58.783143333" lon="7.327445000">
<time>2014-01-11T13:37:08Z</time>
 <fix>2d</fix>
 <sat>10</sat>
</trkpt>
<trkpt lat="58.783140000" lon="7.327495000">
<time>2014-01-11T13:37:10Z</time>
 <fix>2d</fix>
 <sat>9</sat>
</trkpt>
<trkpt lat="58.783145000" lon="7.327553333">
<time>2014-01-11T13:37:12Z</time>
 <fix>2d</fix>
 <sat>10</sat>
</trkpt>
<trkpt lat="58.783163333" lon="7.327608333">
<time>2014-01-11T13:37:14Z</time>
 <fix>2d</fix>
 <sat>10</sat>
</trkpt>
<trkpt lat="58.783173333" lon="7.327651667">
<time>2014-01-11T13:37:16Z</time>
 <fix>2d</fix>
 <sat>10</sat>
</trkpt>
<trkpt lat="58.783180000" lon="7.327695000">
<time>2014-01-11T13:37:18Z</time>
 <fix>2d</fix>
 <sat>10</sat>
</trkpt>
<trkpt lat="58.783181667" lon="7.327761667">
<time>2014-01-11T13:37:20Z</time>
 <fix>2d</fix>
 <sat>10</sat>
</trkpt>
<trkpt lat="58.783185000" lon="7.327850000">
<time>2014-01-11T13:37:22Z</time>
 <fix>2d</fix>
 <sat>10</sat>
</trkpt>
<trkpt lat="58.783188333" lon="7.327915000">
<time>2014-01-11T13:37:24Z</time>
 <fix>2d</fix>
 <sat>10</sat>
</trkpt>
<trkpt lat="58.783188333" lon="7.327948333">
<time>2014-01-11T13:37:26Z</time>
 <fix>2d</fix>
 <sat>10</sat>
</trkpt>
<trkpt lat="58.783183333" lon="7.327978333">
<time>2014-01-11T13:37:28Z</time>
 <fix>2d</fix>
 <sat>10</sat>
</trkpt>
<trkpt lat="58.783181667" lon="7.328015000">
<time>2014-01-11T13:37:30Z</time>
 <fix>2d</fix>
 <sat>10</sat>
</trkpt>
<trkpt lat="58.783178333" lon="7.328058333">
<time>2014-01-11T13:37:32Z</time>
 <fix>2d</fix>
 <sat>10</sat>
</trkpt>
<trkpt lat="58.783175000" lon="7.328111667">
<time>2014-01-11T13:37:34Z</time>
 <fix>2d</fix>
 <sat>10</sat>
</trkpt>
<trkpt lat="58.783168333" lon="7.328168333">
<time>2014-01-11T13:37:36Z</time>
 <fix>2d</fix>
 <sat>10</sat>
</trkpt>
<trkpt lat="58.783160000" lon="7.328225000">
<time>2014-01-11T13:37:38Z</time>
 <fix>2d</fix>
 <sat>10</sat>
</trkpt>
<trkpt lat="58.783140000" lon="7.328311667">
<time>2014-01-11T13:37:40Z</time>
 <fix>2d</fix>
 <sat>10</sat>
</trkpt>
<trkpt lat="58.783101667" lon="7.328423333">
<time>2014-01-11T13:37:42Z</time>
 <fix>2d</fix>
 <sat>10</sat>
</trkpt>
<trkpt lat="58.783061667" lon="7.328545000">
<time>2014-01-11T13:37:44Z</time>
 <fix>2d</fix>
 <sat>10</sat>
</trkpt>
<trkpt lat="58.783021667" lon="7.328658333">
<time>2014-01-11T13:37:46Z</time>
 <fix>2d</fix>
 <sat>10</sat>
</trkpt>
<trkpt lat="58.782986667" lon="7.328751667">
<time>2014-01-11T13:37:48Z</time>
 <fix>2d</fix>
 <sat>11</sat>
</trkpt>
<trkpt lat="58.782960000" lon="7.328836667">
<time>2014-01-11T13:37:50Z</time>
 <fix>2d</fix>
 <sat>11</sat>
</trkpt>
<trkpt lat="58.782925000" lon="7.328941667">
<time>2014-01-11T13:37:52Z</time>
 <fix>2d</fix>
 <sat>11</sat>
</trkpt>
<trkpt lat="58.782893333" lon="7.329050000">
<time>2014-01-11T13:37:54Z</time>
 <fix>2d</fix>
 <sat>11</sat>
</trkpt>
<trkpt lat="58.782866667" lon="7.329151667">
<time>2014-01-11T13:37:56Z</time>
 <fix>2d</fix>
 <sat>11</sat>
</trkpt>
<trkpt lat="58.782845000" lon="7.329248333">
<time>2014-01-11T13:37:58Z</time>
 <fix>2d</fix>
 <sat>11</sat>
</trkpt>
<trkpt lat="58.782830000" lon="7.329328333">
<time>2014-01-11T13:38:00Z</time>
 <fix>2d</fix>
 <sat>11</sat>
</trkpt>
<trkpt lat="58.782818333" lon="7.329396667">
<time>2014-01-11T13:38:02Z</time>
 <fix>2d</fix>
 <sat>11</sat>
</trkpt>
<trkpt lat="58.782805000" lon="7.329490000">
<time>2014-01-11T13:38:04Z</time>
 <fix>2d</fix>
 <sat>9</sat>
</trkpt>
<trkpt lat="58.782781667" lon="7.329620000">
<time>2014-01-11T13:38:06Z</time>
 <fix>2d</fix>
 <sat>9</sat>
</trkpt>
<trkpt lat="58.782761667" lon="7.329790000">
<time>2014-01-11T13:38:08Z</time>
 <fix>2d</fix>
 <sat>9</sat>
</trkpt>
<trkpt lat="58.782753333" lon="7.330000000">
<time>2014-01-11T13:38:10Z</time>
 <fix>2d</fix>
 <sat>9</sat>
</trkpt>
<trkpt lat="58.782753333" lon="7.330238333">
<time>2014-01-11T13:38:12Z</time>
 <fix>2d</fix>
 <sat>9</sat>
</trkpt>
<trkpt lat="58.782773333" lon="7.330458333">
<time>2014-01-11T13:38:14Z</time>
 <fix>2d</fix>
 <sat>10</sat>
</trkpt>
<trkpt lat="58.782818333" lon="7.330623333">
<time>2014-01-11T13:38:16Z</time>
 <fix>2d</fix>
 <sat>10</sat>
</trkpt>
<trkpt lat="58.782873333" lon="7.330786667">
<time>2014-01-11T13:38:18Z</time>
 <fix>2d</fix>
 <sat>9</sat>
</trkpt>
<trkpt lat="58.782931667" lon="7.330958333">
<time>2014-01-11T13:38:20Z</time>
 <fix>2d</fix>
 <sat>9</sat>
</trkpt>
<trkpt lat="58.782988333" lon="7.331138333">
<time>2014-01-11T13:38:22Z</time>
 <fix>2d</fix>
 <sat>9</sat>
</trkpt>
<trkpt lat="58.783038333" lon="7.331320000">
<time>2014-01-11T13:38:24Z</time>
 <fix>2d</fix>
 <sat>10</sat>
</trkpt>
<trkpt lat="58.783055000" lon="7.331411667">
<time>2014-01-11T13:38:26Z</time>
 <fix>2d</fix>
 <sat>10</sat>
</trkpt>
<trkpt lat="58.783058333" lon="7.331451667">
<time>2014-01-11T13:38:28Z</time>
 <fix>2d</fix>
 <sat>10</sat>
</trkpt>
<trkpt lat="58.783058333" lon="7.331486667">
<time>2014-01-11T13:38:30Z</time>
 <fix>2d</fix>
 <sat>10</sat>
</trkpt>
<trkpt lat="58.783066667" lon="7.331543333">
<time>2014-01-11T13:38:32Z</time>
 <fix>2d</fix>
 <sat>10</sat>
</trkpt>
<trkpt lat="58.783090000" lon="7.331653333">
<time>2014-01-11T13:38:34Z</time>
 <fix>2d</fix>
 <sat>10</sat>
</trkpt>
<trkpt lat="58.783148333" lon="7.331778333">
<time>2014-01-11T13:38:36Z</time>
 <fix>2d</fix>
 <sat>10</sat>
</trkpt>
<trkpt lat="58.783235000" lon="7.331870000">
<time>2014-01-11T13:38:38Z</time>
 <fix>2d</fix>
 <sat>10</sat>
</trkpt>
<trkpt lat="58.783306667" lon="7.331975000">
<time>2014-01-11T13:38:40Z</time>
 <fix>2d</fix>
 <sat>10</sat>
</trkpt>
<trkpt lat="58.783338333" lon="7.332098333">
<time>2014-01-11T13:38:42Z</time>
 <fix>2d</fix>
 <sat>10</sat>
</trkpt>
<trkpt lat="58.783348333" lon="7.332228333">
<time>2014-01-11T13:38:44Z</time>
 <fix>2d</fix>
 <sat>10</sat>
</trkpt>
<trkpt lat="58.783336667" lon="7.332310000">
<time>2014-01-11T13:38:46Z</time>
 <fix>2d</fix>
 <sat>10</sat>
</trkpt>
<trkpt lat="58.783330000" lon="7.332363333">
<time>2014-01-11T13:38:48Z</time>
 <fix>2d</fix>
 <sat>10</sat>
</trkpt>
<trkpt lat="58.783318333" lon="7.332413333">
<time>2014-01-11T13:38:50Z</time>
 <fix>2d</fix>
 <sat>10</sat>
</trkpt>
<trkpt lat="58.783310000" lon="7.332470000">
<time>2014-01-11T13:38:52Z</time>
 <fix>2d</fix>
 <sat>10</sat>
</trkpt>
<trkpt lat="58.783306667" lon="7.332530000">
<time>2014-01-11T13:38:54Z</time>
 <fix>2d</fix>
 <sat>10</sat>
</trkpt>
<trkpt lat="58.783306667" lon="7.332591667">
<time>2014-01-11T13:38:56Z</time>
 <fix>2d</fix>
 <sat>10</sat>
</trkpt>
<trkpt lat="58.783310000" lon="7.332636667">
<time>2014-01-11T13:38:58Z</time>
 <fix>2d</fix>
 <sat>10</sat>
</trkpt>
<trkpt lat="58.783316667" lon="7.332671667">
<time>2014-01-11T13:39:00Z</time>
 <fix>2d</fix>
 <sat>10</sat>
</trkpt>
<trkpt lat="58.783323333" lon="7.332701667">
<time>2014-01-11T13:39:02Z</time>
 <fix>2d</fix>
 <sat>10</sat>
</trkpt>
<trkpt lat="58.783326667" lon="7.332715000">
<time>2014-01-11T13:39:04Z</time>
 <fix>2d</fix>
 <sat>10</sat>
</trkpt>
<trkpt lat="58.783330000" lon="7.332716667">
<time>2014-01-11T13:39:06Z</time>
 <fix>2d</fix>
 <sat>10</sat>
</trkpt>
<trkpt lat="58.783331667" lon="7.332718333">
<time>2014-01-11T13:39:08Z</time>
 <fix>2d</fix>
 <sat>10</sat>
</trkpt>
<trkpt lat="58.783331667" lon="7.332716667">
<time>2014-01-11T13:39:10Z</time>
 <fix>2d</fix>
 <sat>10</sat>
</trkpt>
<trkpt lat="58.783331667" lon="7.332716667">
<time>2014-01-11T13:39:12Z</time>
 <fix>2d</fix>
 <sat>10</sat>
</trkpt>
<trkpt lat="58.783331667" lon="7.332716667">
<time>2014-01-11T13:39:14Z</time>
 <fix>2d</fix>
 <sat>10</sat>
</trkpt>
<trkpt lat="58.783333333" lon="7.332720000">
<time>2014-01-11T13:39:16Z</time>
 <fix>2d</fix>
 <sat>10</sat>
</trkpt>
<trkpt lat="58.783336667" lon="7.332730000">
<time>2014-01-11T13:39:18Z</time>
 <fix>2d</fix>
 <sat>10</sat>
</trkpt>
<trkpt lat="58.783353333" lon="7.332725000">
<time>2014-01-11T13:39:20Z</time>
 <fix>2d</fix>
 <sat>10</sat>
</trkpt>
<trkpt lat="58.783376667" lon="7.332711667">
<time>2014-01-11T13:39:22Z</time>
 <fix>2d</fix>
 <sat>10</sat>
</trkpt>
<trkpt lat="58.783400000" lon="7.332708333">
<time>2014-01-11T13:39:24Z</time>
 <fix>2d</fix>
 <sat>10</sat>
</trkpt>
<trkpt lat="58.783423333" lon="7.332696667">
<time>2014-01-11T13:39:26Z</time>
 <fix>2d</fix>
 <sat>10</sat>
</trkpt>
<trkpt lat="58.783443333" lon="7.332681667">
<time>2014-01-11T13:39:28Z</time>
 <fix>2d</fix>
 <sat>10</sat>
</trkpt>
<trkpt lat="58.783461667" lon="7.332670000">
<time>2014-01-11T13:39:30Z</time>
 <fix>2d</fix>
 <sat>10</sat>
</trkpt>
<trkpt lat="58.783483333" lon="7.332655000">
<time>2014-01-11T13:39:32Z</time>
 <fix>2d</fix>
 <sat>10</sat>
</trkpt>
<trkpt lat="58.783505000" lon="7.332630000">
<time>2014-01-11T13:39:34Z</time>
 <fix>2d</fix>
 <sat>10</sat>
</trkpt>
<trkpt lat="58.783526667" lon="7.332605000">
<time>2014-01-11T13:39:36Z</time>
 <fix>2d</fix>
 <sat>10</sat>
</trkpt>
<trkpt lat="58.783545000" lon="7.332588333">
<time>2014-01-11T13:39:38Z</time>
 <fix>2d</fix>
 <sat>10</sat>
</trkpt>
<trkpt lat="58.783563333" lon="7.332571667">
<time>2014-01-11T13:39:40Z</time>
 <fix>2d</fix>
 <sat>10</sat>
</trkpt>
<trkpt lat="58.783586667" lon="7.332553333">
<time>2014-01-11T13:39:42Z</time>
 <fix>2d</fix>
 <sat>10</sat>
</trkpt>
<trkpt lat="58.783610000" lon="7.332533333">
<time>2014-01-11T13:39:44Z</time>
 <fix>2d</fix>
 <sat>11</sat>
</trkpt>
<trkpt lat="58.783631667" lon="7.332516667">
<time>2014-01-11T13:39:46Z</time>
 <fix>2d</fix>
 <sat>11</sat>
</trkpt>
<trkpt lat="58.783656667" lon="7.332498333">
<time>2014-01-11T13:39:48Z</time>
 <fix>2d</fix>
 <sat>11</sat>
</trkpt>
<trkpt lat="58.783681667" lon="7.332483333">
<time>2014-01-11T13:39:50Z</time>
 <fix>2d</fix>
 <sat>11</sat>
</trkpt>
<trkpt lat="58.783705000" lon="7.332468333">
<time>2014-01-11T13:39:52Z</time>
 <fix>2d</fix>
 <sat>11</sat>
</trkpt>
<trkpt lat="58.783728333" lon="7.332456667">
<time>2014-01-11T13:39:54Z</time>
 <fix>2d</fix>
 <sat>11</sat>
</trkpt>
<trkpt lat="58.783755000" lon="7.332450000">
<time>2014-01-11T13:39:56Z</time>
 <fix>2d</fix>
 <sat>11</sat>
</trkpt>
<trkpt lat="58.783780000" lon="7.332446667">
<time>2014-01-11T13:39:58Z</time>
 <fix>2d</fix>
 <sat>11</sat>
</trkpt>
<trkpt lat="58.783806667" lon="7.332438333">
<time>2014-01-11T13:40:00Z</time>
 <fix>2d</fix>
 <sat>11</sat>
</trkpt>
<trkpt lat="58.783831667" lon="7.332435000">
<time>2014-01-11T13:40:02Z</time>
 <fix>2d</fix>
 <sat>11</sat>
</trkpt>
<trkpt lat="58.783855000" lon="7.332438333">
<time>2014-01-11T13:40:04Z</time>
 <fix>2d</fix>
 <sat>11</sat>
</trkpt>
<trkpt lat="58.783881667" lon="7.332440000">
<time>2014-01-11T13:40:06Z</time>
 <fix>2d</fix>
 <sat>11</sat>
</trkpt>
<trkpt lat="58.783906667" lon="7.332445000">
<time>2014-01-11T13:40:08Z</time>
 <fix>2d</fix>
 <sat>11</sat>
</trkpt>
<trkpt lat="58.783933333" lon="7.332448333">
<time>2014-01-11T13:40:10Z</time>
 <fix>2d</fix>
 <sat>11</sat>
</trkpt>
<trkpt lat="58.783958333" lon="7.332450000">
<time>2014-01-11T13:40:12Z</time>
 <fix>2d</fix>
 <sat>11</sat>
</trkpt>
<trkpt lat="58.783983333" lon="7.332446667">
<time>2014-01-11T13:40:14Z</time>
 <fix>2d</fix>
 <sat>11</sat>
</trkpt>
<trkpt lat="58.784008333" lon="7.332441667">
<time>2014-01-11T13:40:16Z</time>
 <fix>2d</fix>
 <sat>10</sat>
</trkpt>
<trkpt lat="58.784033333" lon="7.332438333">
<time>2014-01-11T13:40:18Z</time>
 <fix>2d</fix>
 <sat>10</sat>
</trkpt>
<trkpt lat="58.784060000" lon="7.332438333">
<time>2014-01-11T13:40:20Z</time>
 <fix>2d</fix>
 <sat>10</sat>
</trkpt>
<trkpt lat="58.784086667" lon="7.332430000">
<time>2014-01-11T13:40:22Z</time>
 <fix>2d</fix>
 <sat>10</sat>
</trkpt>
<trkpt lat="58.784111667" lon="7.332415000">
<time>2014-01-11T13:40:24Z</time>
 <fix>2d</fix>
 <sat>10</sat>
</trkpt>
<trkpt lat="58.784135000" lon="7.332398333">
<time>2014-01-11T13:40:26Z</time>
 <fix>2d</fix>
 <sat>10</sat>
</trkpt>
<trkpt lat="58.784161667" lon="7.332393333">
<time>2014-01-11T13:40:28Z</time>
 <fix>2d</fix>
 <sat>10</sat>
</trkpt>
<trkpt lat="58.784186667" lon="7.332380000">
<time>2014-01-11T13:40:30Z</time>
 <fix>2d</fix>
 <sat>10</sat>
</trkpt>
<trkpt lat="58.784210000" lon="7.332363333">
<time>2014-01-11T13:40:32Z</time>
 <fix>2d</fix>
 <sat>10</sat>
</trkpt>
<trkpt lat="58.784233333" lon="7.332348333">
<time>2014-01-11T13:40:34Z</time>
 <fix>2d</fix>
 <sat>10</sat>
</trkpt>
<trkpt lat="58.784258333" lon="7.332335000">
<time>2014-01-11T13:40:36Z</time>
 <fix>2d</fix>
 <sat>10</sat>
</trkpt>
<trkpt lat="58.784283333" lon="7.332321667">
<time>2014-01-11T13:40:38Z</time>
 <fix>2d</fix>
 <sat>10</sat>
</trkpt>
<trkpt lat="58.784308333" lon="7.332306667">
<time>2014-01-11T13:40:40Z</time>
 <fix>2d</fix>
 <sat>10</sat>
</trkpt>
<trkpt lat="58.784330000" lon="7.332293333">
<time>2014-01-11T13:40:42Z</time>
 <fix>2d</fix>
 <sat>10</sat>
</trkpt>
<trkpt lat="58.784351667" lon="7.332276667">
<time>2014-01-11T13:40:44Z</time>
 <fix>2d</fix>
 <sat>10</sat>
</trkpt>
<trkpt lat="58.784373333" lon="7.332260000">
<time>2014-01-11T13:40:46Z</time>
 <fix>2d</fix>
 <sat>10</sat>
</trkpt>
<trkpt lat="58.784396667" lon="7.332245000">
<time>2014-01-11T13:40:48Z</time>
 <fix>2d</fix>
 <sat>10</sat>
</trkpt>
<trkpt lat="58.784421667" lon="7.332240000">
<time>2014-01-11T13:40:50Z</time>
 <fix>2d</fix>
 <sat>10</sat>
</trkpt>
<trkpt lat="58.784445000" lon="7.332243333">
<time>2014-01-11T13:40:52Z</time>
 <fix>2d</fix>
 <sat>10</sat>
</trkpt>
<trkpt lat="58.784466667" lon="7.332238333">
<time>2014-01-11T13:40:54Z</time>
 <fix>2d</fix>
 <sat>10</sat>
</trkpt>
<trkpt lat="58.784486667" lon="7.332226667">
<time>2014-01-11T13:40:56Z</time>
 <fix>2d</fix>
 <sat>10</sat>
</trkpt>
<trkpt lat="58.784498333" lon="7.332216667">
<time>2014-01-11T13:40:58Z</time>
 <fix>2d</fix>
 <sat>10</sat>
</trkpt>
<trkpt lat="58.784505000" lon="7.332213333">
<time>2014-01-11T13:41:00Z</time>
 <fix>2d</fix>
 <sat>10</sat>
</trkpt>
<trkpt lat="58.784506667" lon="7.332215000">
<time>2014-01-11T13:41:02Z</time>
 <fix>2d</fix>
 <sat>10</sat>
</trkpt>
<trkpt lat="58.784510000" lon="7.332218333">
<time>2014-01-11T13:41:04Z</time>
 <fix>2d</fix>
 <sat>10</sat>
</trkpt>
<trkpt lat="58.784510000" lon="7.332218333">
<time>2014-01-11T13:41:06Z</time>
 <fix>2d</fix>
 <sat>10</sat>
</trkpt>
<trkpt lat="58.784510000" lon="7.332220000">
<time>2014-01-11T13:41:08Z</time>
 <fix>2d</fix>
 <sat>10</sat>
</trkpt>
<trkpt lat="58.784510000" lon="7.332221667">
<time>2014-01-11T13:41:10Z</time>
 <fix>2d</fix>
 <sat>10</sat>
</trkpt>
<trkpt lat="58.784510000" lon="7.332221667">
<time>2014-01-11T13:41:12Z</time>
 <fix>2d</fix>
 <sat>9</sat>
</trkpt>
<trkpt lat="58.784510000" lon="7.332221667">
<time>2014-01-11T13:41:14Z</time>
 <fix>2d</fix>
 <sat>9</sat>
</trkpt>
<trkpt lat="58.784510000" lon="7.332221667">
<time>2014-01-11T13:41:16Z</time>
 <fix>2d</fix>
 <sat>10</sat>
</trkpt>
<trkpt lat="58.784511667" lon="7.332223333">
<time>2014-01-11T13:41:18Z</time>
 <fix>2d</fix>
 <sat>10</sat>
</trkpt>
<trkpt lat="58.784513333" lon="7.332223333">
<time>2014-01-11T13:41:20Z</time>
 <fix>2d</fix>
 <sat>10</sat>
</trkpt>
<trkpt lat="58.784513333" lon="7.332223333">
<time>2014-01-11T13:41:22Z</time>
 <fix>2d</fix>
 <sat>10</sat>
</trkpt>
<trkpt lat="58.784513333" lon="7.332223333">
<time>2014-01-11T13:41:24Z</time>
 <fix>2d</fix>
 <sat>10</sat>
</trkpt>
<trkpt lat="58.784513333" lon="7.332226667">
<time>2014-01-11T13:41:26Z</time>
 <fix>2d</fix>
 <sat>10</sat>
</trkpt>
<trkpt lat="58.784515000" lon="7.332228333">
<time>2014-01-11T13:41:28Z</time>
 <fix>2d</fix>
 <sat>10</sat>
</trkpt>
<trkpt lat="58.784513333" lon="7.332225000">
<time>2014-01-11T13:41:30Z</time>
 <fix>2d</fix>
 <sat>10</sat>
</trkpt>
<trkpt lat="58.784515000" lon="7.332233333">
<time>2014-01-11T13:41:32Z</time>
 <fix>2d</fix>
 <sat>10</sat>
</trkpt>
<trkpt lat="58.784516667" lon="7.332240000">
<time>2014-01-11T13:41:34Z</time>
 <fix>2d</fix>
 <sat>10</sat>
</trkpt>
<trkpt lat="58.784515000" lon="7.332240000">
<time>2014-01-11T13:41:36Z</time>
 <fix>2d</fix>
 <sat>10</sat>
</trkpt>
<trkpt lat="58.784513333" lon="7.332240000">
<time>2014-01-11T13:41:38Z</time>
 <fix>2d</fix>
 <sat>10</sat>
</trkpt>
<trkpt lat="58.784515000" lon="7.332240000">
<time>2014-01-11T13:41:40Z</time>
 <fix>2d</fix>
 <sat>10</sat>
</trkpt>
<trkpt lat="58.784515000" lon="7.332240000">
<time>2014-01-11T13:41:42Z</time>
 <fix>2d</fix>
 <sat>10</sat>
</trkpt>
<trkpt lat="58.784518333" lon="7.332240000">
<time>2014-01-11T13:41:44Z</time>
 <fix>2d</fix>
 <sat>10</sat>
</trkpt>
<trkpt lat="58.784520000" lon="7.332240000">
<time>2014-01-11T13:41:46Z</time>
 <fix>2d</fix>
 <sat>10</sat>
</trkpt>
<trkpt lat="58.784520000" lon="7.332240000">
<time>2014-01-11T13:41:48Z</time>
 <fix>2d</fix>
 <sat>10</sat>
</trkpt>
<trkpt lat="58.784521667" lon="7.332243333">
<time>2014-01-11T13:41:50Z</time>
 <fix>2d</fix>
 <sat>10</sat>
</trkpt>
<trkpt lat="58.784521667" lon="7.332243333">
<time>2014-01-11T13:41:52Z</time>
 <fix>2d</fix>
 <sat>10</sat>
</trkpt>
<trkpt lat="58.784523333" lon="7.332240000">
<time>2014-01-11T13:41:54Z</time>
 <fix>2d</fix>
 <sat>10</sat>
</trkpt>
<trkpt lat="58.784521667" lon="7.332240000">
<time>2014-01-11T13:41:56Z</time>
 <fix>2d</fix>
 <sat>10</sat>
</trkpt>
<trkpt lat="58.784520000" lon="7.332238333">
<time>2014-01-11T13:41:58Z</time>
 <fix>2d</fix>
 <sat>10</sat>
</trkpt>
<trkpt lat="58.784520000" lon="7.332240000">
<time>2014-01-11T13:42:00Z</time>
 <fix>2d</fix>
 <sat>10</sat>
</trkpt>
<trkpt lat="58.784520000" lon="7.332240000">
<time>2014-01-11T13:42:02Z</time>
 <fix>2d</fix>
 <sat>10</sat>
</trkpt>
<trkpt lat="58.784520000" lon="7.332243333">
<time>2014-01-11T13:42:04Z</time>
 <fix>2d</fix>
 <sat>10</sat>
</trkpt>
<trkpt lat="58.784520000" lon="7.332245000">
<time>2014-01-11T13:42:06Z</time>
 <fix>2d</fix>
 <sat>10</sat>
</trkpt>
<trkpt lat="58.784520000" lon="7.332248333">
<time>2014-01-11T13:42:08Z</time>
 <fix>2d</fix>
 <sat>10</sat>
</trkpt>
<trkpt lat="58.784520000" lon="7.332250000">
<time>2014-01-11T13:42:10Z</time>
 <fix>2d</fix>
 <sat>10</sat>
</trkpt>
<trkpt lat="58.784520000" lon="7.332250000">
<time>2014-01-11T13:42:12Z</time>
 <fix>2d</fix>
 <sat>10</sat>
</trkpt>
<trkpt lat="58.784518333" lon="7.332250000">
<time>2014-01-11T13:42:14Z</time>
 <fix>2d</fix>
 <sat>9</sat>
</trkpt>
<trkpt lat="58.784516667" lon="7.332250000">
<time>2014-01-11T13:42:16Z</time>
 <fix>2d</fix>
 <sat>9</sat>
</trkpt>
<trkpt lat="58.784515000" lon="7.332250000">
<time>2014-01-11T13:42:18Z</time>
 <fix>2d</fix>
 <sat>10</sat>
</trkpt>
<trkpt lat="58.784516667" lon="7.332251667">
<time>2014-01-11T13:42:20Z</time>
 <fix>2d</fix>
 <sat>10</sat>
</trkpt>
<trkpt lat="58.784516667" lon="7.332255000">
<time>2014-01-11T13:42:22Z</time>
 <fix>2d</fix>
 <sat>10</sat>
</trkpt>
<trkpt lat="58.784518333" lon="7.332251667">
<time>2014-01-11T13:42:24Z</time>
 <fix>2d</fix>
 <sat>10</sat>
</trkpt>
<trkpt lat="58.784516667" lon="7.332246667">
<time>2014-01-11T13:42:26Z</time>
 <fix>2d</fix>
 <sat>10</sat>
</trkpt>
<trkpt lat="58.784516667" lon="7.332248333">
<time>2014-01-11T13:42:28Z</time>
 <fix>2d</fix>
 <sat>10</sat>
</trkpt>
<trkpt lat="58.784515000" lon="7.332250000">
<time>2014-01-11T13:42:30Z</time>
 <fix>2d</fix>
 <sat>10</sat>
</trkpt>
<trkpt lat="58.784515000" lon="7.332250000">
<time>2014-01-11T13:42:32Z</time>
 <fix>2d</fix>
 <sat>10</sat>
</trkpt>
<trkpt lat="58.784515000" lon="7.332250000">
<time>2014-01-11T13:42:34Z</time>
 <fix>2d</fix>
 <sat>10</sat>
</trkpt>
<trkpt lat="58.784513333" lon="7.332246667">
<time>2014-01-11T13:42:36Z</time>
 <fix>2d</fix>
 <sat>10</sat>
</trkpt>
<trkpt lat="58.784510000" lon="7.332256667">
<time>2014-01-11T13:42:38Z</time>
 <fix>2d</fix>
 <sat>10</sat>
</trkpt>
<trkpt lat="58.784510000" lon="7.332253333">
<time>2014-01-11T13:42:40Z</time>
 <fix>2d</fix>
 <sat>10</sat>
</trkpt>
<trkpt lat="58.784510000" lon="7.332256667">
<time>2014-01-11T13:42:42Z</time>
 <fix>2d</fix>
 <sat>10</sat>
</trkpt>
<trkpt lat="58.784510000" lon="7.332256667">
<time>2014-01-11T13:42:44Z</time>
 <fix>2d</fix>
 <sat>10</sat>
</trkpt>
<trkpt lat="58.784515000" lon="7.332248333">
<time>2014-01-11T13:42:46Z</time>
 <fix>2d</fix>
 <sat>10</sat>
</trkpt>
<trkpt lat="58.784513333" lon="7.332248333">
<time>2014-01-11T13:42:48Z</time>
 <fix>2d</fix>
 <sat>10</sat>
</trkpt>
<trkpt lat="58.784513333" lon="7.332245000">
<time>2014-01-11T13:42:50Z</time>
 <fix>2d</fix>
 <sat>10</sat>
</trkpt>
<trkpt lat="58.784515000" lon="7.332240000">
<time>2014-01-11T13:42:52Z</time>
 <fix>2d</fix>
 <sat>10</sat>
</trkpt>
<trkpt lat="58.784525000" lon="7.332246667">
<time>2014-01-11T13:42:54Z</time>
 <fix>2d</fix>
 <sat>9</sat>
</trkpt>
<trkpt lat="58.784535000" lon="7.332263333">
<time>2014-01-11T13:42:56Z</time>
 <fix>2d</fix>
 <sat>10</sat>
</trkpt>
<trkpt lat="58.784538333" lon="7.332281667">
<time>2014-01-11T13:42:58Z</time>
 <fix>2d</fix>
 <sat>9</sat>
</trkpt>
<trkpt lat="58.784535000" lon="7.332286667">
<time>2014-01-11T13:43:00Z</time>
 <fix>2d</fix>
 <sat>9</sat>
</trkpt>
<trkpt lat="58.784535000" lon="7.332288333">
<time>2014-01-11T13:43:02Z</time>
 <fix>2d</fix>
 <sat>9</sat>
</trkpt>
<trkpt lat="58.784531667" lon="7.332286667">
<time>2014-01-11T13:43:04Z</time>
 <fix>2d</fix>
 <sat>8</sat>
</trkpt>
<trkpt lat="58.784530000" lon="7.332285000">
<time>2014-01-11T13:43:06Z</time>
 <fix>2d</fix>
 <sat>9</sat>
</trkpt>
<trkpt lat="58.784528333" lon="7.332285000">
<time>2014-01-11T13:43:08Z</time>
 <fix>2d</fix>
 <sat>10</sat>
</trkpt>
<trkpt lat="58.784526667" lon="7.332285000">
<time>2014-01-11T13:43:10Z</time>
 <fix>2d</fix>
 <sat>10</sat>
</trkpt>
<trkpt lat="58.784526667" lon="7.332283333">
<time>2014-01-11T13:43:12Z</time>
 <fix>2d</fix>
 <sat>10</sat>
</trkpt>
<trkpt lat="58.784526667" lon="7.332283333">
<time>2014-01-11T13:43:14Z</time>
 <fix>2d</fix>
 <sat>10</sat>
</trkpt>
<trkpt lat="58.784526667" lon="7.332283333">
<time>2014-01-11T13:43:16Z</time>
 <fix>2d</fix>
 <sat>10</sat>
</trkpt>
<trkpt lat="58.784528333" lon="7.332283333">
<time>2014-01-11T13:43:18Z</time>
 <fix>2d</fix>
 <sat>10</sat>
</trkpt>
</trkseg>
</trk>
</gpx>